     2              Observation         GPS                 RINEX VERSION / TYPE
teqc 1997Jul24 19970902 21:11:20UTC                         PGM / RUN BY / DATE
                                                            COMMENT
BIT 2 OF LLI FLAGS DATA COLLECTED UNDER A-S CONDITION       COMMENT
BIT 2 OF LLI FLAGS DATA COLLECTED UNDER A-S CONDITION       COMMENT
Original Marker Name: 55491.SAGO                            COMMENT
Campaign Name: Salt. Tr. Crust. Monit. May-Jun 1986         COMMENT
4-Character Station Name: SAGO                              COMMENT
6-Character Antenna Code: TI4100                            COMMENT
Vertical Measurement Point: PAE                             COMMENT
Vertical Offset to Rinex Ref. Point: 0.0000                 COMMENT
Radial Measurement Point: RRP                               COMMENT
Radial Offset to Rinex Ref. Point: 0.0000                   COMMENT
Antenna Height from Field Measurement: 1.1660 m             COMMENT
Revised Rinex header created by UCSD GPS archive for        COMMENT
SCEC DC on 24-Sep-1997 (1997.267) 19:20:13 GMT              COMMENT
For assistance contact dagnew@ucsd.edu or hjohnson@ucsd.edu COMMENT
                                                            COMMENT
SANTIAGO                                                    MARKER NAME
5 NATIONAL GEODETIC SURVEY                                  OBSERVER / AGENCY
UT-18 TI 4100 1.0                                           REC # / TYPE / VERS
4014 TI 4100                                                ANT # / TYPE
 -2455909.9748 -4710846.7772  3520753.8909                  APPROX POSITION XYZ
        1.1660        0.0000        0.0000                  ANTENNA: DELTA H/E/N
     1     1     0                                          WAVELENGTH FACT L1/2
     4    P1    P2    L1    L2                              # / TYPES OF OBSERV
     6                                                      INTERVAL
  1986     6    20     0    35   23.000000                  TIME OF FIRST OBS
  1986     6    20     2    22   17.000000                  TIME OF LAST OBS
     0                                                      # OF SATELLITES
                                                            END OF HEADER
 86  6 20  0 35 23.0800000  0  4G 6G 8G 9G11
  20753519.811    20753519.214    11163303.309 7 -11045789.406 7
                  19384481.874    10959572.146 1
  20398812.940    20398815.622    21640362.471 8 -58377146.537 7
  21035916.743    21035921.661    28055631.755 7 -31188140.606 7
 86  6 20  0 35 29.0800000  0  4G 6G 8G 9G11
  20755050.425    20755050.038    11171352.539 8 -11039517.284 5
                  19504362.331    10982636.457 1
  20397007.731    20397009.631    21630875.338 7 -58384539.116 5
  21037791.028    21037793.963    28065478.414 8 -31180467.883 5
 86  6 20  0 35 35.0800000  0  4G 6G 8G 9G11
  20756585.106    20756585.516    11179422.678 7 -11033228.906 2
                  19620437.987    11005726.910 1
  20395205.442    20395206.734    21621406.195 8 -58391917.646 5
  21039667.083    21039670.598    28075341.277 7 -31172782.548 5
 86  6 20  0 35 41.0800000  0  4G 6G 8G 9G11
  20758127.036    20758126.710    11187513.754 8 -11026924.177 4
                  19436520.083    11023144.084 1
  20393408.219    20393409.591    21611955.077 7 -58399282.160 5
  21041547.446    21041551.545    28085220.314 8 -31165084.595 6
 86  6 20  0 35 47.0800000  0  4G 6G 8G 9G11
  20759668.729    20759670.674    11195625.753 7 -11020603.176 4
                  19548792.374    11035486.989 1
  20391611.959    20391615.083    21602521.798 7 -58406632.751 4
  21043431.056    21043433.588    28095115.455 8 -31157374.107 3
 86  6 20  0 35 53.0800000  0  4G 6G 8G 9G11
  20761216.722    20761219.405    11203758.608 8 -11014265.874 6
                  19654622.507    11047856.034 1
  20389821.864    20389824.764    21593106.642 7 -58413969.223 5
  21045317.791    21045320.479    28105026.737 7 -31149651.040 5
 86  6 20  0 35 59.0800000  0  4G 6G 8G 9G11
  20762768.692    20762770.832    11211912.382 7 -11007912.313 6
                  19470269.662    11069143.869 1
  20388033.587    20388035.091    21583709.461 8 -58421291.717 5
  21047206.159    21047209.829    28114954.102 7 -31141915.426 6
 86  6 20  0 36  5.0800000  0  4G 6G 8G 9G11
  20764324.065    20764327.636    11220087.086 8 -11001542.426 6
                  19587184.653    11093565.009 1
  20386248.439    20386248.924    21574330.331 7 -58428600.112 5
  21049099.557    21049102.111    28124897.600 7 -31134167.257 7
 86  6 20  0 36 11.0800000  0  4G 6G 8G 9G11
  20765883.849    20765885.835    11228282.736 8 -10995156.215 5
                  19411510.204    11115798.258 1
  20384467.870    20384465.768    21564969.255 6 -58435894.462 4
  21050995.192    21050995.230    28134857.163 7 -31126406.569 5
 86  6 20  0 36 17.0800000  0  4G 6G 8G 9G11
  20767447.901    20767450.707    11236499.303 8 -10988753.686 7
                  19533542.548    11127071.887 1
  20382689.246    20382689.433    21555626.348 6 -58443174.623 6
  21052893.171    21052895.290    28144832.766 8 -31118633.373 8
 86  6 20  0 36 23.0800000  0  4G 6G 8G 9G11
  20769013.841    20769018.984    11244736.746 7 -10982334.928 2
                  19650890.936    11138371.658 1
  20380916.073    20380912.316    21546301.452 7 -58450440.815 1
  21054793.700    21054801.116    28154824.419 7 -31110847.677 2
 86  6 20  0 36 29.0800000  0  4G 6G 8G 9G11
  20770589.426    20770593.907    11252995.048 5 -10975899.865 1
                  19459769.447    11157968.785 1
  20379145.018    20379141.130    21536994.792 6 -58457692.786 1
  21056699.629    21056703.834    28164832.101 7 -31103049.494 2
 86  6 20  0 36 35.0800000  0  4G 6G 8G 9G11
  20772160.928    20772161.716    11261274.302 6 -10969448.555 1
                  19563164.211    11183720.611 1
  20377377.450    20377380.178    21527706.268 5 -58464930.592 1
  21058607.690    21058607.060    28174855.757 6 -31095238.876 2
 86  6 20  0 36 41.0800000  0  4G 6G 8G 9G11
  20773739.432    20773740.449    11269574.421 5 -10962980.864 1
                  19679165.088    11209498.579 1
  20375612.152    20375607.135    21518435.873 6 -58472154.292 1
  21060517.346    21060519.795    28184895.403 5 -31087415.780 1
 86  6 20  0 36 47.0800000  0  4G 6G 8G 9G11
  20775325.291    20775322.984    11277895.556 5 -10956496.855 1
                  19475108.000    11224262.238 1
  20373851.567    20373853.963    21509183.604 6 -58479363.814 1
  21062430.953    21062433.592    28194951.072 7 -31079580.174 1
 86  6 20  0 36 53.0800000  0  4G 6G 8G 9G11
  20776909.151    20776911.142    11286237.558 5 -10949996.600 2
                  19581117.168    11234492.733 1
  20372094.329    20372095.130    21499949.667 6 -58486559.097 1
  21064348.020    21064351.887    28205022.647 6 -31071732.165 2
 86  6 20  0 36 59.0800000  0  4G 6G 8G 9G11
  20778504.961    20778505.035    11294600.557 6 -10943479.984 2
                  19693871.418    11244749.369 1
  20370341.349    20370344.105    21490733.976 6 -58493740.147 2
  21066267.944    21066270.811    28215110.190 7 -31063871.785 1
 86  6 20  0 37  5.0800000  0  4G 6G 8G 9G11
  20780099.066    20780101.563    11302984.370 5 -10936947.113 1
                  19502381.780    11270113.813 1
  20368592.789    20368590.996    21481536.425 6 -58500907.077 1
  21068188.501    21068193.527    28225213.582 6 -31055999.002 1
 86  6 20  0 37 11.0800000  0  3G 6G 9G11
  20781699.263    20781700.385    11311389.098 6 -10930397.996 1
  20366843.546    20366845.215    21472357.283 6 -58508059.625 1
  21070114.375    21070117.878    28235332.901 6 -31048113.818 1
 86  6 20  0 37 17.0800000  0  3G 6G 9G11
  20783303.176    20783303.793    11319814.782 6 -10923832.488 1
  20365100.368    20365103.347    21463196.402 6 -58515198.003 1
  21072043.056    21072041.681    28245468.091 6 -31040216.268 1
 86  6 20  0 37 23.0800000  0  3G 6G 9G11
  20784908.091    20784909.941    11328261.397 6 -10917250.721 1
  20363360.829    20363363.888    21454053.773 5 -58522322.116 1
  21073974.930    21073982.859    28255619.052 7 -31032306.411 1
 86  6 20  0 37 29.0800000  0  3G 6G 9G11
  20786518.873    20786524.978    11336728.901 5 -10910652.717 1
  20361625.102    20361624.289    21444929.568 6 -58529431.920 1
  21075909.699    21075910.910    28265785.802 6 -31024384.268 1
 86  6 20  0 37 35.0800000  0  3G 6G 9G11
  20788137.790    20788136.651    11345217.339 5 -10904038.378 1
  20359890.740    20359889.922    21435823.665 5 -58536527.407 1
  21077846.904    21077852.372    28275968.293 7 -31016449.868 1
 86  6 20  0 37 41.0800000  0  3G 6G 9G11
                  20789754.891    11353726.609 5
  20358159.156    20358164.038    21426736.070 6 -58543608.648 1
  21079787.803    21079786.676    28286166.516 6 -31008503.166 2
 86  6 20  0 37 47.0800000  0  3G 6G 9G11
  20791376.202    20791384.205    11362256.847 5 -10851407.291 1
  20356435.932    20356437.827    21417666.981 5 -58550675.492 1
  21081731.425    21081734.507    28296380.577 7 -31000544.194 1
 86  6 20  0 37 53.0800000  0  3G 6G 9G11
  20793005.699    20793005.738    11370807.947 6 -10844744.113 1
  20354712.900    20354717.658    21408616.243 5 -58557727.972 2
  21083679.918    21083679.774    28306610.360 6 -30992572.904 5
 86  6 20  0 37 59.0800000  0  3G 6G 9G11
  20794636.635    20794638.356    11379379.970 6 -10838065.133 5
  20352992.775    20352998.217    21399583.973 5 -58564766.100 7
  21085628.640    21085629.225    28316855.896 7 -30984589.378 7
 86  6 20  0 38  5.0800000  0  3G 6G 9G11
  20796270.485    20796273.516    11387972.939 6 -10831369.329 5
  20351275.153    20351281.823    21390570.194 6 -58571789.800 6
  21087581.465    21087583.842    28327117.151 6 -30976593.593 7
 86  6 20  0 38 11.0800000  0  3G 6G 9G11
  20797909.303    20797912.548    11396586.845 6 -10824657.208 5
  20349566.536    20349570.507    21381574.915 5 -58578799.120 7
  21089537.441    21089539.931    28337394.088 7 -30968585.595 6
 86  6 20  0 38 17.0800000  0  3G 6G 9G11
  20799553.414    20799554.974    11405221.609 6 -10817928.831 5
  20347857.826    20347862.741    21372598.093 6 -58585794.039 6
  21091494.808    21091498.301    28347686.728 7 -30960565.339 6
 86  6 20  0 38 23.0800000  0  3G 6G 9G11
  20801198.000    20801202.489    11413877.329 6 -10811184.104 6
  20346150.810    20346155.764    21363639.870 5 -58592774.455 7
  21093456.037    21093458.700    28357995.021 7 -30952532.920 7
 86  6 20  0 38 29.0800000  0  3G 6G 9G11
  20802850.882    20802854.665    11422553.959 7 -10804423.119 5
  20344452.379    20344455.208    21354700.118 7 -58599740.481 6
  21095421.938    21095422.717    28368318.924 7 -30944488.307 7
 86  6 20  0 38 35.0800000  0  3G 6G 9G11
  20804506.304    20804509.740    11431251.538 6 -10797645.783 5
  20342754.155    20342756.757    21345778.982 6 -58606692.068 4
  21097387.412    21097392.200    28378658.461 7 -30936431.548 5
 86  6 20  0 38 41.0800000  0  3G 6G 9G11
  20806165.751    20806169.508    11439969.987 6 -10790852.171 6
  20341061.997    20341064.644    21336876.474 5 -58613629.048 6
  21099357.142    21099360.055    28389013.615 6 -30928362.579 7
 86  6 20  0 38 47.0800000  0  3G 6G 9G11
  20807830.717    20807834.101    11448709.348 7 -10784042.293 5
  20339372.741    20339374.643    21327992.480 5 -58620551.650 5
  21101332.209    21101334.272    28399384.311 7 -30920281.517 5
 86  6 20  0 38 53.0800000  0  3G 6G 9G11
  20809498.883    20809499.008    11457469.609 6 -10777216.125 7
  20337685.793    20337688.391    21319127.195 6 -58627459.670 6
  21103308.290    21103310.202    28409770.544 6 -30912188.354 6
 86  6 20  0 38 59.0800000  0  3G 6G 9G11
  20811170.902    20811173.110    11466250.779 8 -10770373.643 7
  20336001.890    20336003.599    21310280.478 7 -58634353.202 7
  21105288.677    21105290.120    28420172.331 6 -30904083.053 7
 86  6 20  0 39  5.0800000  0  3G 6G 9G11
  20812845.241    20812847.101    11475052.847 8 -10763514.879 7
  20334320.542    20334325.882    21301452.464 7 -58641232.182 5
  21107271.028    21107272.337    28430589.648 7 -30895965.661 6
 86  6 20  0 39 11.0800000  0  3G 6G 9G11
  20814524.065    20814525.177    11483875.878 8 -10756639.800 6
  20332644.364    20332647.124    21292643.106 7 -58648096.610 5
  21109255.375    21109257.827    28441022.391 7 -30887836.246 6
 86  6 20  0 39 17.0800000  0  3G 6G 9G11
  20816207.286    20816207.689    11492719.748 8 -10749748.464 6
  20330973.368    20330974.340    21283852.542 6 -58654946.398 6
  21111247.147    21111246.751    28451470.602 8 -30879694.783 7
 86  6 20  0 39 23.0800000  0  3G 6G 9G11
  20817892.884    20817895.237    11501584.584 8 -10742840.808 4
  20329302.808    20329304.696    21275080.727 6 -58661781.584 6
  21113235.628    21113238.671    28461934.282 8 -30871541.287 6
 86  6 20  0 39 29.0800000  0  3G 6G 9G11
  20819586.138    20819584.539    11510470.279 8 -10735916.904 6
  20327636.166    20327640.308    21266327.576 7 -58668602.211 6
  21115228.763    21115232.233    28472413.393 7 -30863375.733 6
 86  6 20  0 39 35.0800000  0  3G 6G 9G11
  20821279.635    20821279.647    11519376.889 8 -10728976.683 6
  20325976.000    20325976.945    21257593.216 8 -58675408.204 6
  21117227.518    21117229.200    28482907.939 8 -30855198.173 7
 86  6 20  0 39 41.0800000  0  3G 6G 9G11
  20822979.090    20822978.978    11528304.441 8 -10722020.173 5
  20324317.685    20324316.507    21248877.713 6 -58682199.518 3
  21119228.484    21119228.751    28493417.884 7 -30847008.612 6
 86  6 20  0 39 47.0800000  0  3G 6G 9G11
  20824680.499    20824680.607    11537252.854 8 -10715047.381 5
  20322661.953    20322663.433    21240181.020 7 -58688976.133 5
  21121230.855    21121232.438    28503943.161 7 -30838807.078 6
 86  6 20  0 39 53.0800000  0  3G 6G 9G11
  20826387.133    20826389.426    11546222.169 8 -10708058.314 5
  20321010.787    20321011.805    21231503.083 7 -58695738.186 4
  21123235.487    21123235.832    28514483.767 8 -30830593.627 6
 86  6 20  0 39 59.0800000  0  3G 6G 9G11
  20828097.585    20828101.460    11555212.424 8 -10701052.952 5
  20319362.478    20319365.743    21222844.016 7 -58702485.498 5
  21125243.179    21125247.014    28525039.681 8 -30822368.253 5
 86  6 20  0 40  5.0800000  0  3G 6G 9G11
  20829812.405    20829813.723    11564223.528 8 -10694031.309 6
  20317718.068    20317721.378    21214203.893 7 -58709218.084 5
  21127255.142    21127257.300    28535610.918 7 -30814130.920 5
 86  6 20  0 40 11.0800000  0  3G 6G 9G11
  20831531.848    20831535.654    11573255.548 7 -10686993.421 5
  20316078.712    20316076.334    21205582.552 7 -58715935.965 5
  21129269.858    21129273.472    28546197.470 7 -30805881.666 5
 86  6 20  0 40 17.0800000  0  3G 6G 9G11
  20833252.475    20833258.591    11582308.433 8 -10679939.211 5
  20314441.116    20314440.258    21196980.175 6 -58722639.138 5
  21131286.749    21131287.379    28556799.260 8 -30797620.536 7
 86  6 20  0 40 23.0800000  0  3G 6G 9G11
  20834979.102    20834984.946    11591382.231 6 -10672868.710 4
  20312807.067    20312808.642    21188396.718 6 -58729327.560 6
  21133306.219    21133310.243    28567416.318 7 -30789347.521 6
 86  6 20  0 40 29.0800000  0  3G 6G 9G11
  20836708.658    20836716.829    11600476.935 5 -10665781.921 6
  20311177.672    20311178.646    21179832.208 7 -58736001.186 6
  21135330.252    21135333.502    28578048.560 7 -30781062.670 6
 86  6 20  0 40 35.0800000  0  3G 6G 9G11
  20838443.026    20838448.544    11609592.500 6 -10658678.885 6
  20309551.324    20309553.290    21171286.650 5 -58742660.076 4
  21137355.913    21137359.873    28588695.977 7 -30772765.982 6
 86  6 20  0 40 41.0800000  0  3G 6G 9G11
  20840180.641    20840188.709    11618728.950 7 -10651559.565 7
  20307926.639    20307931.008    21162760.057 6 -58749304.163 4
  21139384.886    21139388.956    28599358.565 7 -30764457.479 5
 86  6 20  0 40 47.0800000  0  3G 6G 9G11
  20841923.901    20841930.080    11627886.317 7 -10644423.966 6
  20306310.072    20306312.209    21154252.479 6 -58755933.418 4
  21141416.823    21141420.799    28610036.349 8 -30756137.145 6
 86  6 20  0 40 53.0800000  0  3G 6G 9G11
  20843670.291    20843674.665    11637064.504 6 -10637272.106 6
  20304694.839    20304696.782    21145763.989 6 -58762547.840 6
  21143452.547    21143456.671    28620729.304 7 -30747804.968 7
 86  6 20  0 40 59.0800000  0  3G 6G 9G11
  20845421.543    20845424.912    11646263.636 7 -10630103.964 5
  20303081.665    20303084.374    21137294.474 6 -58769147.452 5
  21145491.623    21145492.886    28631437.393 7 -30739461.019 6
 86  6 20  0 41  5.0800000  0  3G 6G 9G11
  20847174.892    20847179.898    11655483.614 7 -10622919.569 6
  20301474.130    20301476.468    21128844.055 6 -58775732.189 5
  21147531.520    21147533.681    28642160.526 8 -30731105.312 6
 86  6 20  0 41 11.0800000  0  3G 6G 9G11
  20848935.403    20848938.890    11664724.473 7 -10615718.909 6
  20299870.579    20299871.555    21120412.725 7 -58782302.050 6
  21149575.110    21149576.536    28652898.699 8 -30722737.911 7
 86  6 20  0 41 17.0800000  0  3G 6G 9G11
  20850697.627    20850701.067    11673986.243 7 -10608501.953 6
  20298269.657    20298270.564    21112000.496 7 -58788857.047 6
  21151621.995    21151623.716    28663651.975 7 -30714358.743 7
 86  6 20  0 41 23.0800000  0  3G 6G 9G11
  20852465.568    20852467.979    11683268.876 8 -10601268.751 6
  20296672.236    20296673.827    21103607.388 6 -58795397.117 5
  21153669.953    21153672.793    28674420.305 9 -30705967.838 6
 86  6 20  0 41 29.0800000  0  3G 6G 9G11
  20854234.250    20854238.361    11692572.359 8 -10594019.285 6
  20295080.006    20295079.840    21095233.473 7 -58801922.256 6
  21155722.932    21155723.147    28685203.669 8 -30697565.203 7
 86  6 20  0 41 35.0800000  0  3G 6G 9G11
  20856007.758    20856013.011    11701896.721 7 -10586753.554 6
  20293489.572    20293488.942    21086878.748 7 -58808432.403 4
  21157778.096    21157777.637    28696002.020 7 -30689150.931 6
 86  6 20  0 41 41.0800000  0  3G 6G 9G11
  20857786.640    20857791.877    11711242.018 8 -10579471.501 7
  20291904.194    20291903.952    21078543.222 6 -58814927.632 6
  21159836.070    21159835.663    28706815.338 7 -30680724.952 7
 86  6 20  0 41 47.0800000  0  3G 6G 9G11
  20859570.150    20859574.892    11720608.135 7 -10572173.228 7
  20290320.903    20290320.752    21070226.813 7 -58821407.954 5
  21161895.845    21161897.107    28717643.616 8 -30672287.327 6
 86  6 20  0 41 53.0800000  0  3G 6G 9G11
  20861357.707    20861360.937    11729995.175 6 -10564858.656 7
  20288742.872    20288740.964    21061929.738 7 -58827873.199 6
  21163960.188    21163960.847    28728486.903 8 -30663838.021 7
 86  6 20  0 41 59.0800000  0  3G 6G 9G11
  20863145.923    20863150.362    11739403.026 7 -10557527.871 7
  20287167.049    20287166.956    21053651.788 7 -58834323.558 6
  21166025.144    21166027.731    28739345.097 8 -30655377.080 7
 86  6 20  0 42  5.0800000  0  3G 6G 9G11
  20864940.185    20864946.317    11748831.752 7 -10550180.804 7
  20285595.777    20285595.039    21045393.193 7 -58840758.821 6
  21168094.399    21168095.483    28750218.211 8 -30646904.539 6
 86  6 20  0 42 11.0800000  0  3G 6G 9G11
  20866737.509    20866742.117    11758281.408 7 -10542817.439 7
  20284029.021    20284026.251    21037153.824 7 -58847179.122 6
  21170167.260    21170167.830    28761106.210 8 -30638420.385 7
 86  6 20  0 42 17.0800000  0  3G 6G 9G11
  20868540.727    20868542.266    11767751.850 7 -10535437.866 7
  20282463.541    20282461.375    21028933.802 8 -58853584.339 6
  21172240.779    21172242.332    28772009.057 7 -30629924.658 6
 86  6 20  0 42 23.0800000  0  3G 6G 9G11
  20870345.284    20870350.801    11777243.180 6 -10528042.021 5
  20280903.948    20280901.101    21020733.139 6 -58859974.493 3
  21174318.854    21174320.295    28782926.707 8 -30621417.409 7
 86  6 20  0 42 29.0800000  0  3G 6G 9G11
  20872155.170    20872159.479    11786755.362 6 -10520629.927 5
  20279347.562    20279345.413    21012551.857 6 -58866349.512 6
  21176399.467    21176400.774    28793859.251 9 -30612898.535 6
 86  6 20  0 42 35.0800000  0  3G 6G 9G11
  20873970.274    20873972.118    11796288.398 6 -10513201.569 6
  20277794.381    20277791.894    21004389.920 7 -58872709.441 5
  21178482.595    21178483.973    28804806.617 8 -30604368.116 7
 86  6 20  0 42 41.0800000  0  3G 6G 9G11
  20875787.579    20875791.851    11805842.301 7 -10505756.990 6
  20276242.053    20276242.389    20996247.366 6 -58879054.308 6
  21180568.430    21180570.402    28815768.746 8 -30595826.199 7
 86  6 20  0 42 47.0800000  0  3G 6G 9G11
  20877610.386    20877613.039    11815417.066 7 -10498296.145 6
  20274697.465    20274696.304    20988124.205 7 -58885384.049 4
  21182658.157    21182659.717    28826745.695 8 -30587272.750 5
 86  6 20  0 42 53.0800000  0  3G 6G 9G11
  20879436.588    20879438.941    11825012.720 7 -10490819.020 7
  20273156.172    20273157.171    20980020.417 5 -58891698.677 5
  21184748.226    21184749.830    28837737.369 7 -30578707.797 5
 86  6 20  0 42 59.0800000  0  3G 6G 9G11
  20881268.516    20881271.621    11834629.155 7 -10483325.724 6
  20271615.439    20271617.479    20971936.154 6 -58897998.089 6
  21186842.946    21186845.984    28848743.759 8 -30570131.395 6
 86  6 20  0 43  5.0800000  0  3G 6G 9G11
  20883102.662    20883104.069    11844266.463 7 -10475816.142 6
  20270081.110    20270084.214    20963871.305 5 -58904282.389 6
  21188941.925    21188943.175    28859764.839 7 -30561543.539 6
 86  6 20  0 43 11.0800000  0  3G 6G 9G11
  20884939.121    20884941.876    11853924.601 8 -10468290.325 6
  20268548.088    20268553.107    20955825.987 6 -58910551.461 6
  21191040.844    21191043.343    28870800.632 7 -30552944.208 6
 86  6 20  0 43 17.0800000  0  3G 6G 9G11
  20886782.803    20886784.090    11863603.581 8 -10460748.293 5
  20267023.591    20267026.418    20947800.143 6 -58916805.379 6
  21193142.799    21193146.895    28881851.082 7 -30544333.479 6
 86  6 20  0 43 23.0800000  0  3G 6G 9G11
  20888626.988    20888629.171    11873303.382 7 -10453190.016 5
  20265499.530    20265502.126    20939793.788 7 -58923044.073 6
  21195247.611    21195250.548    28892916.152 8 -30535711.346 6
 86  6 20  0 43 29.0800000  0  3G 6G 9G11
  20890476.947    20890480.163    11883023.999 7 -10445615.501 7
  20263979.337    20263982.493    20931806.967 6 -58929267.568 6
  21197355.092    21197359.868    28903995.832 8 -30527077.832 6
 86  6 20  0 43 35.0800000  0  3G 6G 9G11
  20892329.189    20892333.379    11892765.477 7 -10438024.750 7
  20262464.737    20262466.734    20923839.751 7 -58935475.790 6
  21199467.863    21199470.134    28915090.149 7 -30518432.916 7
 86  6 20  0 43 41.0800000  0  3G 6G 9G11
  20894187.583    20894191.424    11902527.727 7 -10430417.808 6
  20260952.477    20260954.507    20915892.063 7 -58941668.786 3
  21201582.390    21201584.384    28926199.015 8 -30509776.656 6
 86  6 20  0 43 47.0800000  0  3G 6G 9G11
  20896049.910    20896054.259    11912310.833 7 -10422794.604 6
  20259444.168    20259442.922    20907964.069 7 -58947846.444 6
  21203698.566    21203702.640    28937322.450 8 -30501109.067 6
 86  6 20  0 43 53.0800000  0  3G 6G 9G11
  20897914.218    20897918.960    11922114.751 7 -10415155.193 6
  20257937.477    20257941.380    20900055.484 7 -58954008.964 6
  21205816.966    21205821.046    28948460.373 7 -30492430.157 4
 86  6 20  0 43 59.0800000  0  3G 6G 9G11
  20899782.726    20899788.329    11931939.453 6 -10407499.563 5
  20256435.817    20256437.603    20892166.755 7 -58960156.025 6
  21207939.579    21207943.294    28959612.817 7 -30483739.955 6
 86  6 20  0 44  5.0800000  0  3G 6G 9G11
  20901657.420    20901662.302    11941785.031 4 -10399827.688 6
  20254939.281    20254942.200    20884297.615 7 -58966287.835 1
  21210064.852    21210068.464    28970779.758 7 -30475038.442 6
 86  6 20  0 44 11.0800000  0  3G 6G 9G11
  20903532.448    20903540.604    11951651.408 5 -10392139.572 6
  20253446.547    20253448.104    20876448.217 7 -58972404.250 6
  21212191.474    21212195.031    28981961.221 7 -30466325.614 7
 86  6 20  0 44 17.0800000  0  3G 6G 9G11
  20905414.591    20905421.466    11961538.637 5 -10384435.213 6
  20251955.290    20251956.851    20868618.524 6 -58978505.321 5
  21214322.420    21214327.151    28993157.170 6 -30457601.511 7
 86  6 20  0 44 23.0800000  0  3G 6G 9G11
  20907301.139    20907309.253    11971446.597 7 -10376714.730 5
  20250469.475    20250470.821    20860808.517 6 -58984591.042 6
  21216458.111    21216459.342    29004367.510 7 -30448866.163 6
 86  6 20  0 44 29.0800000  0  3G 6G 9G11
  20909191.988    20909196.103    11981375.446 5 -10368977.963 5
  20248987.152    20248987.593    20853018.293 7 -58990661.345 6
  21218593.836    21218595.145    29015592.230 8 -30440119.623 6
 86  6 20  0 44 35.0800000  0  3G 6G 9G11
  20911086.798    20911089.934    11991325.092 7 -10361225.007 5
  20247508.618    20247509.040    20845247.774 6 -58996716.311 5
  21220732.004    21220734.137    29026831.329 8 -30431361.891 6
 86  6 20  0 44 41.0800000  0  3G 6G 9G11
  20912984.256    20912986.936    12001295.567 7 -10353455.780 5
  20246034.138    20246037.856    20837497.039 6 -59002755.810 5
  21222874.028    21222876.186    29038084.824 9 -30422592.938 6
 86  6 20  0 44 47.0800000  0  3G 6G 9G11
  20914884.676    20914888.075    12011286.831 7 -10345670.391 5
  20244560.136    20244565.499    20829766.128 6 -59008779.912 5
  21225018.229    21225019.646    29049352.680 9 -30413812.775 6
 86  6 20  0 44 53.0800000  0  3G 6G 9G11
  20916790.262    20916792.723    12021298.900 9 -10337868.797 5
  20243095.381    20243098.231    20822055.018 6 -59014788.566 5
  21227165.451    21227165.958    29060634.949 8 -30405021.393 7
 86  6 20  0 44 59.0800000  0  3G 6G 9G11
  20918700.038    20918699.717    12031331.751 7 -10330051.020 4
  20241630.069    20241634.841    20814363.756 6 -59020781.751 5
  21229315.045    21229316.765    29071931.574 9 -30396218.836 7
 86  6 20  0 45  5.0800000  0  3G 6G 9G11
  20920613.966    20920613.474    12041385.438 8 -10322217.013 4
  20240170.965    20240174.439    20806692.236 7 -59026759.540 5
  21231466.175    21231469.325    29083242.434 8 -30387405.169 5
 86  6 20  0 45 11.0800000  0  3G 6G 9G11
  20922529.500    20922529.262    12051459.913 7 -10314366.798 3
  20238713.492    20238719.608    20799040.763 6 -59032721.730 5
  21233622.242    21233624.273    29094567.540 8 -30378580.427 6
 86  6 20  0 45 17.0800000  0  3G 6G 9G11
  20924450.931    20924453.169    12061555.150 7 -10306500.398 6
  20237259.842    20237267.479    20791409.097 7 -59038668.458 7
  21235778.024    21235782.111    29105906.914 8 -30369744.535 7
 86  6 20  0 45 23.0800000  0  3G 6G 9G11
  20926375.289    20926377.821    12071671.207 7 -10298617.761 5
  20235813.242    20235818.016    20783797.423 6 -59044599.643 6
  21237940.583    21237942.173    29117260.525 7 -30360897.573 6
 86  6 20  0 45 29.0800000  0  3G 6G 9G11
  20928303.697    20928307.976    12081808.011 6 -10290718.972 6
  20234369.771    20234373.220    20776205.632 6 -59050515.323 6
  21240103.482    21240104.953    29128628.370 8 -30352039.523 6
 86  6 20  0 45 35.0800000  0  3G 6G 9G11
  20930236.861    20930240.690    12091965.528 6 -10282804.023 6
  20232928.671    20232933.827    20768633.818 7 -59056415.428 5
  21242269.305    21242271.806    29140010.384 8 -30343170.424 7
 86  6 20  0 45 41.0800000  0  3G 6G 9G11
  20932172.194    20932179.744    12102143.847 5 -10274872.842 7
  20231491.119    20231495.930    20761081.997 6 -59062299.958 6
  21244437.658    21244441.416    29151406.591 7 -30334290.261 7
 86  6 20  0 45 47.0800000  0  3G 6G 9G11
  20934112.716    20934118.755    12112342.923 7 -10266925.516 6
  20230056.211    20230062.428    20753549.991 7 -59068169.029 6
  21246607.728    21246611.211    29162816.991 7 -30325399.055 7
 86  6 20  0 45 53.0800000  0  3G 6G 9G11
  20936056.710    20936063.133    12122562.778 5 -10258961.961 6
  20228627.927    20228632.603    20746038.042 7 -59074022.511 7
  21248780.571    21248786.294    29174241.512 8 -30316496.833 6
 86  6 20  0 45 59.0800000  0  3G 6G 9G11
  20938008.009    20938012.604    12132803.398 7 -10250982.240 7
  20227203.979    20227207.814    20738546.133 7 -59079860.357 6
  21250959.887    21250961.640    29185680.165 8 -30307583.616 6
 86  6 20  0 46  5.0800000  0  3G 6G 9G11
  20939961.343    20939963.663    12143064.752 7 -10242986.374 7
  20225780.252    20225785.245    20731074.279 7 -59085682.590 6
  21253137.285    21253142.580    29197132.869 8 -30298659.430 6
 86  6 20  0 46 11.0800000  0  3G 6G 9G11
  20941916.622    20941921.361    12153346.868 7 -10234974.348 6
  20224361.419    20224367.640    20723622.429 6 -59091489.222 7
  21255320.290    21255324.634    29208599.658 7 -30289724.263 7
 86  6 20  0 46 17.0800000  0  3G 6G 9G11
  20943878.235    20943882.538    12163649.778 7 -10226946.097 7
  20222949.516    20222952.604    20716190.826 7 -59097280.060 6
  21257504.071    21257508.493    29220080.520 6 -30280778.128 7
 86  6 20  0 46 23.0800000  0  3G 6G 9G11
  20945841.446    20945845.424    12173973.437 7 -10218901.689 6
  20221538.730    20221541.229    20708779.150 7 -59103055.395 6
  21259694.304    21259696.180    29231575.375 9 -30271821.113 7
 86  6 20  0 46 29.0800000  0  3G 6G 9G11
  20947810.380    20947816.122    12184317.806 7 -10210841.161 6
  20220132.220    20220136.008    20701387.669 7 -59108814.991 7
  21261882.403    21261885.743    29243084.264 8 -30262853.146 6
 86  6 20  0 46 35.0800000  0  3G 6G 9G11
  20949783.223    20949787.410    12194682.961 8 -10202764.411 6
  20218730.631    20218733.043    20694016.291 6 -59114558.905 6
  21264074.810    21264079.262    29254607.149 7 -30253874.275 6
 86  6 20  0 46 41.0800000  0  3G 6G 9G11
  20951760.547    20951764.319    12205068.876 8 -10194671.506 7
  20217330.284    20217334.989    20686665.148 6 -59120287.065 7
  21266270.579    21266273.972    29266144.036 8 -30244884.487 7
 86  6 20  0 46 47.0800000  0  3G 6G 9G11
  20953740.559    20953744.785    12215475.471 8 -10186562.468 8
  20215935.916    20215939.583    20679334.163 7 -59125999.511 8
  21268469.960    21268471.221    29277694.879 7 -30235883.825 8
 86  6 20  0 46 53.0800000  0  3G 6G 9G11
  20955725.042    20955726.649    12225902.810 8 -10178437.281 7
  20214545.597    20214547.897    20672023.373 7 -59131696.237 5
  21270670.622    21270673.042    29289259.640 9 -30226872.329 8
 86  6 20  0 46 59.0800000  0  3G 6G 9G11
  20957712.795    20957717.180    12236350.900 8 -10170295.920 6
  20213158.172    20213160.249    20664732.811 6 -59137377.194 7
  21272874.571    21272875.919    29300838.326 7 -30217849.961 7
 86  6 20  0 47  5.0800000  0  3G 6G 9G11
  20959703.324    20959708.169    12246819.711 7 -10162138.424 6
  20211774.536    20211776.576    20657462.428 7 -59143042.410 6
  21275078.811    21275083.631    29312430.935 8 -30208816.765 7
 86  6 20  0 47 11.0800000  0  3G 6G 9G11
  20961701.828    20961700.797    12257309.238 6 -10153964.775 6
  20210394.162    20210394.950    20650212.378 6 -59148691.813 6
  21277287.791    21277290.053    29324037.415 7 -30199772.760 7
 86  6 20  0 47 17.0800000  0  3G 6G 9G11
  20963700.660    20963701.182    12267819.479 7 -10145774.969 5
  20209020.123    20209021.001    20642982.584 7 -59154325.416 5
  21279498.192    21279502.861    29335657.698 7 -30190718.007 6
 86  6 20  0 47 23.0800000  0  3G 6G 9G11
  20965704.794    20965706.906    12278350.417 7 -10137569.046 6
  20207647.475    20207649.328    20635773.043 8 -59159943.230 6
  21281712.838    21281716.041    29347291.786 8 -30181652.475 8
 86  6 20  0 47 29.0800000  0  3G 6G 9G11
  20967713.667    20967714.701    12288902.066 6 -10129346.985 6
  20206277.795    20206279.880    20628583.902 7 -59165545.180 7
  21283927.368    21283931.505    29358939.710 8 -30172576.185 7
 86  6 20  0 47 35.0800000  0  3G 6G 9G11
  20969723.841    20969726.966    12299474.427 6 -10121108.781 7
  20204915.364    20204915.556    20621415.039 8 -59171131.293 7
  21286147.468    21286152.951    29370601.427 8 -30163489.123 8
 86  6 20  0 47 41.0800000  0  3G 6G 9G11
  20971741.134    20971742.298    12310067.536 7 -10112854.421 6
  20203553.714    20203557.502    20614266.476 7 -59176701.609 6
  21288368.624    21288373.152    29382276.916 7 -30154391.354 7
 86  6 20  0 47 47.0800000  0  3G 6G 9G11
  20973760.292    20973762.866    12320681.297 7 -10104583.949 6
  20202197.427    20202200.813    20607138.206 7 -59182256.104 7
  21290592.556    21290597.191    29393966.070 8 -30145282.921 7
 86  6 20  0 47 53.0800000  0  3G 6G 9G11
  20975783.236    20975787.527    12331315.797 7 -10096297.328 6
  20200845.032    20200849.183    20600030.394 6 -59187794.661 5
  21292821.028    21292824.699    29405668.977 9 -30136163.777 7
 86  6 20  0 47 59.0800000  0  3G 6G 9G11
  20977812.999    20977814.841    12341970.948 7 -10087994.619 5
  20199495.040    20199498.411    20592943.044 7 -59193317.261 5
  21295051.561    21295054.328    29417385.590 7 -30127033.950 7
 86  6 20  0 48  5.0800000  0  3G 6G 9G11
  20979844.246    20979847.040    12352646.771 8 -10079675.793 7
  20198151.100    20198153.267    20585876.150 7 -59198823.925 7
  21297283.232    21297286.018    29429115.865 8 -30117893.469 6
 86  6 20  0 48 11.0800000  0  3G 6G 9G11
  20981879.530    20981881.938    12363343.309 7 -10071340.819 6
  20196812.320    20196813.753    20578829.607 6 -59204314.748 6
  21299518.318    21299522.046    29440859.792 8 -30108742.361 6
 86  6 20  0 48 17.0800000  0  3G 6G 9G11
  20983919.412    20983922.159    12374060.522 8 -10062989.749 7
  20195474.253    20195477.621    20571803.497 7 -59209789.622 7
  21301756.978    21301758.546    29452617.403 8 -30099580.584 7
 86  6 20  0 48 23.0800000  0  3G 6G 9G11
  20985963.077    20985964.833    12384798.451 8 -10054622.553 7
  20194141.275    20194144.613    20564797.881 7 -59215248.523 7
  21303995.875    21303999.125    29464388.628 8 -30090408.189 7
 86  6 20  0 48 29.0800000  0  3G 6G 9G11
  20988009.185    20988012.462    12395557.025 7 -10046239.252 7
  20192812.186    20192817.093    20557812.730 7 -59220691.504 6
  21306238.656    21306240.959    29476173.469 8 -30081225.198 7
 86  6 20  0 48 35.0800000  0  3G 6G 9G11
  20990061.091    20990061.199    12406336.254 8 -10037839.863 7
  20191487.040    20191488.915    20550848.172 7 -59226118.421 6
  21308483.134    21308487.076    29487971.891 8 -30072031.616 6
 86  6 20  0 48 41.0800000  0  3G 6G 9G11
  20992114.633    20992118.812    12417136.131 8 -10029424.372 6
  20190163.990    20190168.883    20543904.024 8 -59231529.448 6
  21310729.781    21310734.975    29499783.875 8 -30062827.478 7
 86  6 20  0 48 47.0800000  0  3G 6G 9G11
  20994173.808    20994177.508    12427956.652 7 -10020992.798 6
  20188847.732    20188851.072    20536980.521 7 -59236924.372 7
  21312981.299    21312985.639    29511609.377 8 -30053612.795 7
 86  6 20  0 48 53.0800000  0  3G 6G 9G11
  20996235.456    20996240.930    12438797.790 7 -10012545.156 7
  20187534.664    20187535.487    20530077.560 7 -59242303.296 7
  21315233.802    21315238.519    29523448.403 8 -30044387.594 8
 86  6 20  0 48 59.0800000  0  3G 6G 9G11
  20998303.194    20998308.408    12449659.614 6 -10004081.394 6
  20186224.850    20186225.901    20523195.236 8 -59247666.137 6
  21317489.342    21317493.854    29535300.910 8 -30035151.874 8
 86  6 20  0 49  5.0800000  0  3G 6G 9G11
  21000374.782    21000376.949    12460542.077 6  -9995601.564 3
  20184918.457    20184919.914    20516333.564 7 -59253012.907 6
  21319747.317    21319752.269    29547166.890 9 -30025905.653 7
 86  6 20  0 49 11.0800000  0  3G 6G 9G11
  21002447.778    21002453.025    12471445.193 6  -9987105.614 6
  20183617.424    20183618.226    20509492.418 7 -59258343.656 6
  21322007.342    21322012.778    29559046.368 8 -30016648.924 6
 86  6 20  0 49 17.0800000  0  3G 6G 9G11
  21004529.125    21004533.474    12482368.968 6  -9978593.598 4
  20182319.462    20182318.791    20502672.039 8 -59263658.236 6
  21324272.638    21324273.541    29570939.331 8 -30007381.681 6
 86  6 20  0 49 23.0800000  0  3G 6G 9G11
  21006611.945    21006613.643    12493313.355 6  -9970065.514 6
  20181024.024    20181025.891    20495872.229 8 -59268956.807 7
  21326537.840    21326540.368    29582845.708 8 -29998103.987 6
 86  6 20  0 49 29.0800000  0  3G 6G 9G11
  21008698.321    21008697.793    12504278.354 7  -9961521.387 5
  20179735.824    20179735.945    20489093.099 7 -59274239.223 6
  21328805.842    21328808.271    29594765.475 8 -29988815.857 6
 86  6 20  0 49 35.0800000  0  3G 6G 9G11
  21010789.550    21010790.615    12515263.975 7  -9952961.181 6
  20178449.817    20178450.412    20482334.678 7 -59279505.542 7
  21331075.436    21331078.661    29606698.573 8 -29979517.343 7
 86  6 20  0 49 41.0800000  0  3G 6G 9G11
  21012883.731    21012884.712    12526270.273 7  -9944384.852 6
  20177168.353    20177167.502    20475596.920 8 -59284755.740 6
  21333350.265    21333352.361    29618645.026 8 -29970208.414 8
 86  6 20  0 49 47.0800000  0  3G 6G 9G11
  21014982.842    21014984.631    12537297.172 7  -9935792.492 5
  20175890.233    20175889.784    20468879.941 7 -59289989.747 5
  21335627.133    21335628.284    29630604.857 8 -29960889.070 6
 86  6 20  0 49 53.0800000  0  3G 6G 9G11
  21017084.628    21017088.495    12548344.648 7  -9927184.087 5
  20174612.344    20174614.637    20462183.747 7 -59295207.594 2
  21337905.438    21337907.732    29642578.024 8 -29951559.337 4
 86  6 20  0 49 59.0800000  0  3G 6G 9G11
  21019190.957    21019192.985    12559412.717 7  -9918559.611 6
  20173341.510    20173344.863    20455508.251 7 -59300409.257 5
  21340185.001    21340187.325    29654564.470 9 -29942219.236 6
 86  6 20  0 50  5.0800000  0  3G 6G 9G11
  21021301.534    21021303.035    12570501.355 7  -9909919.116 6
  20172075.416    20172078.904    20448853.545 7 -59305594.738 6
  21342468.249    21342469.793    29666564.210 7 -29932868.783 7
 86  6 20  0 50 11.0800000  0  3G 6G 9G11
  21023417.177    21023418.829    12581610.576 7  -9901262.586 5
  20170813.141    20170814.720    20442219.661 7 -59310763.993 5
  21344754.555    21344756.232    29678577.186 8 -29923508.037 7
 86  6 20  0 50 17.0800000  0  3G 6G 9G11
  21025532.370    21025535.657    12592740.407 7  -9892589.979 8
  20169555.487    20169558.225    20435606.518 7 -59315917.090 6
  21347042.051    21347044.345    29690603.378 7 -29914136.967 7
 86  6 20  0 50 23.0800000  0  3G 6G 9G11
  21027654.650    21027658.192    12603890.851 7  -9883901.323 6
  20168299.279    20168305.288    20429014.282 7 -59321053.894 5
  21349333.338    21349334.041    29702642.828 8 -29904755.576 6
 86  6 20  0 50 29.0800000  0  3G 6G 9G11
  21029779.258    21029782.412    12615061.768 8  -9875196.683 7
  20167050.356    20167053.460    20422442.874 7 -59326174.455 6
  21351626.248    21351629.804    29714695.473 8 -29895363.906 8
 86  6 20  0 50 35.0800000  0  3G 6G 9G11
  21031907.963    21031911.935    12626253.307 7  -9866476.006 8
  20165803.232    20165805.579    20415892.414 7 -59331278.716 7
  21353923.259    21353925.559    29726761.247 7 -29885962.013 8
 86  6 20  0 50 41.0800000  0  3G 6G 9G11
  21034042.318    21034045.480    12637465.459 7  -9857739.257 7
  20164562.628    20164563.746    20409362.777 8 -59336366.728 6
  21356221.971    21356223.266    29738840.148 7 -29876549.890 8
 86  6 20  0 50 47.0800000  0  3G 6G 9G11
  21036181.062    21036182.660    12648698.136 7  -9848986.502 7
  20163324.651    20163325.465    20402854.065 7 -59341438.449 6
  21358522.238    21358526.068    29750932.180 8 -29867127.524 8
 86  6 20  0 50 53.0800000  0  3G 6G 9G11
  21038323.369    21038323.892    12659951.416 7  -9840217.709 7
  20162088.811    20162089.576    20396366.251 7 -59346493.889 5
  21360826.232    21360828.747    29763037.357 7 -29857694.934 6
 86  6 20  0 50 59.0800000  0  3G 6G 9G11
  21040468.171    21040469.094    12671225.237 7  -9831432.923 7
  20160860.043    20160860.821    20389899.370 8 -59351532.996 7
  21363131.411    21363135.328    29775155.642 8 -29848252.111 7
 86  6 20  0 51  5.0800000  0  3G 6G 9G11
  21042617.999    21042616.302    12682519.599 7  -9822632.123 6
  20159633.091    20159633.833    20383453.593 8 -59356555.692 7
  21365440.389    21365444.053    29787286.997 8 -29838799.117 7
 86  6 20  0 51 11.0800000  0  3G 6G 9G11
  21044772.493    21044770.906    12693834.505 8  -9813815.335 5
  20158411.912    20158409.831    20377028.934 7 -59361561.927 6
  21367752.760    21367755.576    29799431.408 6 -29829335.943 7
 86  6 20  0 51 17.0800000  0  3G 6G 9G11
  21046929.064    21046926.402    12705169.979 8  -9804982.510 6
  20157193.053    20157191.626    20370625.013 8 -59366552.000 6
  21370065.290    21370068.952    29811588.859 8 -29819862.606 7
 86  6 20  0 51 23.0800000  0  3G 6G 9G11
  21049089.664    21049088.807    12716526.066 7  -9796133.647 5
  20155978.352    20155977.588    20364242.218 6 -59371525.602 6
  21372382.338    21372385.947    29823759.345 8 -29810379.126 7
 86  6 20  0 51 29.0800000  0  3G 6G 9G11
  21051254.314    21051253.469    12727902.608 7  -9787268.832 4
                  20154766.840                   -59376482.835 6
  21374701.369    21374704.241    29835942.838 7 -29800885.483 6
 86  6 20  0 51 35.0800000  0  3G 6G 9G11
  21053422.150    21053423.311    12739299.656 8  -9778388.040 7
  20153559.721    20153560.371    20321504.756 1 -59381423.620 6
  21377022.866    21377025.068    29848139.242 8 -29791381.792 6
 86  6 20  0 51 41.0800000  0  3G 6G 9G11
  21055594.020    21055597.973    12750717.225 7  -9769491.227 7
  20152357.635    20152357.623    20315185.081 8 -59386348.042 6
  21379345.243    21379348.089    29860348.595 8 -29781868.011 7
 86  6 20  0 51 47.0800000  0  3G 6G 9G11
  21057771.826    21057774.687    12762155.350 8  -9760578.426 8
  20151157.791    20151160.558    20308886.553 8 -59391255.978 7
  21381671.397    21381673.678    29872570.852 8 -29772344.171 7
 86  6 20  0 51 53.0800000  0  3G 6G 9G11
  21059953.039    21059954.738    12773613.990 8  -9751649.609 7
  20149964.041    20149965.228    20302609.200 8 -59396147.409 8
  21383998.972    21384001.807    29884806.019 9 -29762810.274 7
 86  6 20  0 51 59.0800000  0  3G 6G 9G11
  21062136.436    21062140.062    12785093.127 7  -9742704.838 7
  20148774.323    20148773.657    20296352.852 7 -59401022.494 6
  21386329.659    21386333.089    29897054.059 8 -29753266.344 7
 86  6 20  0 52  5.0800000  0  3G 6G 9G11
  21064324.350    21064327.275    12796592.776 8  -9733744.056 5
  20147586.397    20147586.294    20290117.740 6 -59405881.010 5
  21388663.350    21388666.740    29909314.978 8 -29743712.371 6
 86  6 20  0 52 11.0800000  0  3G 6G 9G11
  21066518.252    21066519.787    12808112.881 7  -9724767.348 8
  20146404.103    20146405.158    20283903.771 7 -59410723.045 7
  21390998.324    21391002.315    29921588.750 9 -29734148.397 8
 86  6 20  0 52 17.0800000  0  3G 6G 9G11
  21068712.811    21068716.374    12819653.410 6  -9715774.717 5
  20145224.974    20145227.327    20277710.943 6 -59415548.629 6
  21393334.921    21393338.854    29933875.288 6 -29724574.460 4
 86  6 20  0 52 23.0800000  0  3G 6G 9G11
  21070913.550    21070917.008    12831214.402 6  -9706766.142 8
  20144052.207    20144052.078    20271539.393 6 -59420357.623 7
  21395676.644    21395679.347    29946174.655 8 -29714990.542 7
 86  6 20  0 52 29.0800000  0  4G 6G13G 9G11
  21073116.867    21073119.152    12842796.002 6  -9697741.509 8
                  21189261.410    -6050145.483 9
  20142880.809    20142883.656    20265389.046 7 -59425150.083 6
  21398019.772    21398023.027    29958486.894 7 -29705396.600 7
 86  6 20  0 52 35.0800000  0  4G 6G13G 9G11
  21075325.653    21075326.844    12854398.073 8  -9688700.927 8
                  21186962.526    -6062215.306 9
  20141713.797    20141715.134    20259260.021 7 -59429925.948 7
  21400363.131    21400367.644    29970811.888 8 -29695792.701 7
 86  6 20  0 52 41.0800000  0  4G 6G13G 9G11
  21077537.847    21077538.412    12866020.598 8  -9679644.413 8
                  21184698.561    -6074265.947 8
  20140554.838    20140553.675    20253152.140 7 -59434685.334 7
  21402712.289    21402715.022    29983149.651 7 -29686178.861 6
 86  6 20  0 52 47.0800000  0  4G 6G13G 9G11
  21079754.393    21079753.491    12877663.543 7  -9670571.990 6
  21182408.276    21182410.261    -6086296.932 8   7912184.977 1
  20139394.458    20139394.247    20247065.537 8 -59439428.154 6
  21405063.396    21405064.385    29995500.082 7 -29676555.147 6
 86  6 20  0 52 53.0800000  0  4G 6G13G 9G11
  21081971.927    21081973.100    12889326.962 7  -9661483.600 2
  21180122.653    21180124.876    -6098308.534 8   7902825.333 1
  20138241.499    20138242.327    20241000.246 7 -59444154.353 1
  21407415.380    21407419.113    30007863.216 8 -29666921.565 3
 86  6 20  0 52 59.0800000  0  4G 6G13G 9G11
  21084194.860    21084193.674    12901010.938 8  -9652379.245 6
  21177839.481    21177841.551    -6110300.730 7   7893480.791 6
  20137089.581    20137090.493    20234956.320 7 -59448863.887 6
  21409769.523    21409773.317    30020239.018 7 -29657278.055 7
 86  6 20  0 53  5.0800000  0  4G 6G13G 9G11
  21086422.717    21086420.585    12912715.308 7  -9643258.984 6
  21175560.420    21175563.688    -6122273.530 8   7884151.342 6
  20135945.017    20135943.101    20228933.649 7 -59453556.880 6
  21412127.537    21412128.872    30032627.492 7 -29647624.693 6
 86  6 20  0 53 11.0800000  0  4G 6G13G 9G11
  21088652.997    21088652.018    12924440.073 7  -9634122.835 3
  21173285.948    21173286.597    -6134226.770 7   7874837.120 6
  20134802.313    20134802.591    20222932.388 8 -59458233.202 6
  21414488.996    21414491.071    30045028.679 8 -29637961.448 6
 86  6 20  0 53 17.0800000  0  4G 6G13G 9G11
  21090886.960    21090887.841    12936185.265 8  -9624970.775 4
  21171013.306    21171017.862    -6146160.660 8   7865538.017 4
  20133662.701    20133662.950    20216952.486 7 -59462892.881 5
  21416849.943    21416852.194    30057442.467 8 -29628288.368 5
 86  6 20  0 53 23.0800000  0  4G 6G13G 9G11
  21093126.672    21093128.383    12947950.873 7  -9615802.778 4
  21168746.034    21168751.583    -6158075.106 8   7856254.026 5
  20132527.991    20132531.831    20210993.893 7 -59467535.892 5
  21419214.706    21419217.031    30069868.823 7 -29618605.503 5
 86  6 20  0 53 29.0800000  0  4G 6G13G 9G11
  21095368.372    21095373.340    12959736.859 7  -9606618.930 4
  21166482.414    21166487.726    -6169970.176 6   7846985.149 5
  20131398.452    20131399.096    20205056.641 6 -59472162.331 5
  21421580.889    21421582.553    30082307.734 7 -29608912.836 5
 86  6 20  0 53 35.0800000  0  4G 6G13G 9G11
  21097615.124    21097620.688    12971543.296 7  -9597419.107 5
  21164222.715    21164226.364    -6181845.768 7   7837731.449 5
  20130273.558    20130274.475    20199140.853 7 -59476772.032 6
  21423950.383    21423953.603    30094759.232 7 -29599210.377 7
 86  6 20  0 53 41.0800000  0  4G 6G13G 9G11
  21099865.999    21099872.101    12983370.172 7  -9588203.372 5
  21161965.943    21161971.338    -6193701.993 8   7828492.845 6
  20129150.869    20129153.552    20193246.529 7 -59481365.025 6
  21426322.425    21426326.272    30107223.266 7 -29589498.130 6
 86  6 20  0 53 47.0800000  0  4G 6G13G 9G11
  21102120.273    21102124.105    12995217.466 7  -9578971.690 5
  21159713.910    21159718.579    -6205538.728 8   7819269.432 7
  20128034.674    20128034.385    20187373.613 7 -59485941.305 7
  21428696.427    21428699.384    30119699.840 8 -29579776.132 5
 86  6 20  0 53 53.0800000  0  4G 6G13G 9G11
  21104377.659    21104384.733    13007085.181 7  -9569724.124 6
  21157466.601    21157469.228    -6217355.998 7   7810061.174 7
  20126920.800    20126923.547    20181522.176 6 -59490500.860 6
  21431073.907    21431075.589    30132188.955 7 -29570044.351 6
 86  6 20  0 53 59.0800000  0  4G 6G13G 9G11
  21106639.742    21106646.231    13018973.227 7  -9560460.683 6
  21155221.340    21155224.159    -6229153.719 8   7800868.157 7
  20125811.218    20125812.405    20175692.174 7 -59495043.744 6
  21433453.153    21433455.117    30144690.538 8 -29560302.858 4
 86  6 20  0 54  5.0800000  0  4G 6G13G 9G11
  21108905.655    21108912.259    13030881.663 7  -9551181.373 7
  21152980.068    21152982.934    -6240931.946 8   7791690.336 6
  20124705.479    20124708.313    20169883.739 7 -59499569.777 5
  21435833.298    21435837.502    30157204.578 8 -29550551.656 6
 86  6 20  0 54 11.0800000  0  4G 6G13G 9G11
  21111178.116    21111182.343    13042810.486 7  -9541886.188 7
  21150740.566    21150746.334    -6252690.662 7   7782527.706 6
  20123605.462    20123606.175    20164096.828 6 -59504079.068 6
  21438217.878    21438219.391    30169731.051 8 -29540790.763 7
 86  6 20  0 54 17.0800000  0  4G 6G13G 9G11
  21113451.080    21113454.471    13054759.726 8  -9532575.084 7
  21148508.138    21148511.525    -6264429.920 7   7773380.251 6
  20122506.613    20122509.862    20158331.376 6 -59508571.606 6
  21440602.814    21440607.551    30182269.943 7 -29531020.192 6
 86  6 20  0 54 23.0800000  0  4G 6G13G 9G11
  21115728.830    21115731.877    13066729.332 7  -9523248.098 8
  21146277.504    21146282.884    -6276149.694 7   7764247.985 7
  20121413.640    20121416.516    20152587.535 6 -59513047.326 6
  21442991.989    21442995.611    30194821.220 7 -29521239.982 7
 86  6 20  0 54 29.0800000  0  4G 6G13G 9G11
  21118011.800    21118013.981    13078719.268 8  -9513905.304 7
  21144052.344    21144055.669    -6287849.942 7   7755130.916 6
  20120323.890    20120327.929    20146865.224 6 -59517506.285 6
  21445381.855    21445386.936    30207384.872 8 -29511450.114 7
 86  6 20  0 54 35.0800000  0  4G 6G13G 9G11
  21120297.027    21120298.251    13090729.559 8  -9504546.645 7
  21141829.546    21141832.263    -6299530.737 8   7746029.020 7
  20119239.815    20119243.573    20141164.490 7 -59521948.380 7
  21447776.200    21447780.989    30219960.892 8 -29501650.615 7
 86  6 20  0 54 41.0800000  0  4G 6G13G 9G11
  21122586.187    21122586.495    13102760.208 8  -9495172.129 7
  21139610.540    21139614.548    -6311192.005 8   7736942.320 6
  20118159.642    20118164.183    20135485.333 6 -59526373.712 6
  21450171.798    21450174.746    30232549.233 8 -29491841.518 8
 86  6 20  0 54 47.0800000  0  4G 6G13G 9G11
  21124879.836    21124879.495    13114811.232 8  -9485781.718 6
  21137395.193    21137398.669    -6322833.729 7   7727870.856 7
  20117083.571    20117085.785    20129827.884 7 -59530782.090 5
  21452569.259    21452571.884    30245149.828 8 -29482022.872 6
 86  6 20  0 54 53.0800000  0  4G 6G13G 9G11
  21127175.417    21127176.639    13126882.523 8  -9476375.526 5
  21135182.755    21135186.950    -6334455.990 7   7718814.551 6
  20116011.392    20116013.311    20124191.929 7 -59535173.749 6
  21454968.957    21454971.901    30257762.780 8 -29472194.602 6
 86  6 20  0 54 59.0800000  0  4G 6G13G 9G11
  21129477.576    21129478.047    13138974.173 8  -9466953.495 6
  21132974.255    21132980.006    -6346058.740 8   7709773.453 7
  20114940.550    20114945.577    20118577.729 6 -59539548.446 6
  21457371.176    21457375.725    30270387.998 7 -29462356.769 8
 86  6 20  0 55  5.0800000  0  4G 6G13G 9G11
  21131781.033    21131784.048    13151086.117 8  -9457515.640 6
  21130770.061    21130774.013    -6357641.970 8   7700747.574 6
  20113878.902    20113881.760    20112985.132 7 -59543906.324 5
  21459776.094    21459779.523    30283025.463 8 -29452509.400 7
 86  6 20  0 55 11.0800000  0  4G 6G13G 9G11
  21134090.755    21134092.627    13163218.399 8  -9448061.929 4
  21128569.339    21128573.816    -6369205.693 8   7691736.896 4
  20112817.152    20112817.281    20107414.157 7 -59548247.321 4
  21462184.055    21462187.079    30295675.168 8 -29442652.483 5
 86  6 20  0 55 17.0800000  0  4G 6G13G 9G11
  21136402.088    21136407.012    13175370.984 7  -9438592.399 5
  21126372.192    21126377.311    -6380749.753 7   7682741.531 6
  20111759.714    20111763.297    20101864.936 7 -59552571.400 6
  21464593.354    21464596.873    30308337.101 7 -29432786.048 7
 86  6 20  0 55 23.0800000  0  4G 6G13G 9G11
  21138717.681    21138721.479    13187543.825 8  -9429107.071 1
  21124180.052    21124182.947    -6392274.292 8   7673761.343 5
  20110709.159    20110713.864    20096337.469 8 -59556878.525 3
  21467005.012    21467005.780    30321011.167 7 -29422910.157 1
 86  6 20  0 55 29.0800000  0  4G 6G13G 9G11
  21141037.895    21141045.132    13199736.945 8  -9419605.941 6
  21121990.661    21121994.583    -6403779.388 8   7664796.364 8
  20109661.394    20109663.663    20090831.726 7 -59561168.687 7
  21469420.112    21469422.414    30333697.402 7 -29413024.763 7
 86  6 20  0 55 35.0800000  0  4G 6G13G 9G11
  21143362.815    21143367.486    13211950.393 6  -9410088.970 6
  21119805.420    21119810.072    -6415264.925 8   7655846.606 6
  20108619.511    20108619.677    20085347.813 7 -59565441.870 5
  21471835.941    21471838.628    30346395.818 8 -29403129.910 7
 86  6 20  0 55 41.0800000  0  4G 6G13G 9G11
  21145692.119    21145696.041    13224184.112 6  -9400556.193 7
  21117624.190    21117629.132    -6426730.993 8   7646912.003 6
  20107581.055    20107581.525    20079885.554 6 -59569698.174 6
  21474254.566    21474256.334    30359106.321 8 -29393225.611 6
 86  6 20  0 55 47.0800000  0  4G 6G13G 9G11
  21148024.513    21148027.225    13236438.128 6  -9391007.601 7
  21115445.186    21115449.202    -6438177.586 8   7637992.597 7
  20106546.882    20106543.443    20074445.101 7 -59573937.493 4
  21476676.985    21476678.738    30371828.955 8 -29383311.880 6
 86  6 20  0 55 53.0800000  0  4G 6G13G 9G11
  21150361.345    21150362.436    13248712.427 7  -9381443.192 7
  21113271.613    21113275.926    -6449604.676 7   7629088.369 5
  20105514.054    20105511.199    20069026.459 7 -59578159.830 4
  21479100.068    21479100.918    30384563.710 8 -29373388.704 6
 86  6 20  0 55 59.0800000  0  4G 6G13G 9G11
  21152699.900    21152701.784    13261007.062 7  -9371862.960 6
  21111101.830    21111105.586    -6461012.102 9   7620199.479 6
  20104487.301    20104486.361    20063629.693 7 -59582365.102 4
  21481524.534    21481527.405    30397310.542 8 -29363456.075 7
 86  6 20  0 56  5.0800000  0  4G 6G13G 9G11
  21155043.785    21155044.886    13273321.888 7  -9362267.003 7
  21108934.649    21108939.228    -6472399.989 8   7611325.811 6
  20103465.320    20103464.888    20058254.654 7 -59586553.443 5
  21483953.038    21483954.923    30410069.405 8 -29353514.109 6
 86  6 20  0 56 11.0800000  0  4G 6G13G 9G11
  21157388.888    21157391.512    13285656.939 8  -9352655.261 7
  21106770.119    21106775.806    -6483768.289 8   7602467.397 6
  20102446.647    20102446.044    20052901.621 7 -59590724.637 5
  21486383.389    21486386.106    30422840.311 8 -29343562.753 6
 86  6 20  0 56 17.0800000  0  4G 6G13G 9G11
  21159741.791    21159742.161    13298012.266 8  -9343027.733 6
  21104609.462    21104617.094    -6495117.021 7   7593624.226 6
  20101431.517    20101432.995    20047570.381 7 -59594878.844 6
  21488816.124    21488818.628    30435623.210 8 -29333602.044 7
 86  6 20  0 56 23.0800000  0  4G 6G13G 9G11
  21162096.320    21162098.631    13310387.792 7  -9333384.479 7
  21102455.047    21102461.258    -6506446.208 8   7584796.318 7
  20100421.639    20100421.273    20042261.098 7 -59599015.957 6
  21491249.789    21491253.723    30448418.063 9 -29323632.027 8
 86  6 20  0 56 29.0800000  0  4G 6G13G 9G11
  21164455.192    21164455.805    13322783.530 8  -9323725.467 7
  21100301.598    21100307.137    -6517755.827 8   7575983.622 6
  20099413.433    20099413.998    20036973.742 6 -59603135.972 5
  21493687.139    21493689.918    30461224.929 8 -29313652.630 7
 86  6 20  0 56 35.0800000  0  4G 6G13G 9G11
  21166816.622    21166817.026    13335199.485 8  -9314050.702 7
  21098151.752    21098158.453    -6529045.921 7   7567186.168 6
  20098411.524    20098413.364    20031708.135 7 -59607239.036 6
  21496127.358    21496130.289    30474043.770 8 -29303663.924 7
 86  6 20  0 56 41.0800000  0  4G 6G13G 9G11
  21169182.319    21169185.937    13347635.708 7  -9304360.142 6
  21096007.387    21096012.719    -6540316.380 8   7558403.999 7
  20097412.055    20097415.801    20026464.578 7 -59611324.908 6
  21498568.639    21498570.474    30486874.506 7 -29293665.938 8
 86  6 20  0 56 47.0800000  0  4G 6G13G 9G11
  21171552.966    21171553.617    13360092.148 7  -9294653.820 6
  21093866.673    21093870.538    -6551567.197 8   7549637.129 8
  20096420.589    20096420.124    20021242.960 7 -59615393.713 7
  21501014.127    21501015.612    30499717.171 8 -29283658.654 7
 86  6 20  0 56 53.0800000  0  4G 6G13G 9G11
  21173926.806    21173927.885    13372568.781 7  -9284931.780 2
  21091729.770    21091734.385    -6562798.428 8   7540885.520 5
  20095432.186    20095431.890    20016043.115 6 -59619445.553 3
  21503459.891    21503462.100    30512571.690 7 -29273642.160 4
 86  6 20  0 56 59.0800000  0  4G 6G13G 9G11
  21176305.045    21176306.224    13385065.544 7  -9275194.040 6
  21089597.533    21089601.118    -6574010.127 9   7532149.152 7
  20094445.805    20094446.225    20010865.318 7 -59623480.176 6
  21505907.202    21505911.150    30525438.069 7 -29263616.395 6
 86  6 20  0 57  5.0800000  0  4G 6G13G 9G11
  21178687.515    21178689.448    13397582.469 7  -9265440.594 5
  21087469.895    21087470.281    -6585202.247 7   7523428.045 5
  20093464.625    20093462.706    20005709.480 6 -59627497.708 4
  21508358.013    21508361.311    30538316.307 7 -29253581.397 4
 86  6 20  0 57 11.0800000  0  4G 6G13G 9G11
  21181074.002    21181075.514    13410119.599 7  -9255671.393 5
  21085342.661    21085344.503    -6596374.679 7   7514722.257 7
  20092489.386    20092489.430    20000575.743 7 -59631498.020 6
  21510810.781    21510813.988    30551206.365 6 -29243537.192 6
 86  6 20  0 57 17.0800000  0  4G 6G13G 9G11
  21183464.488    21183465.702    13422676.924 7  -9245886.489 2
  21083220.668    21083219.497    -6607527.431 8   7506031.809 5
  20091517.906    20091516.924    19995464.109 7 -59635481.095 3
  21513264.544    21513268.329    30564108.221 7 -29233483.831 3
 86  6 20  0 57 23.0800000  0  4G 6G13G 9G11
  21185857.780    21185855.766    13435254.381 7  -9236085.880 5
  21081100.908    21081102.282    -6618660.552 7   7497356.670 6
  20090548.143    20090545.513    19990374.498 7 -59639447.045 5
  21515720.144    21515726.641    30577021.868 8 -29223421.233 6
 86  6 20  0 57 29.0800000  0  4G 6G13G 9G11
  21188255.434    21188256.537    13447852.064 8  -9226269.515 4
  21078986.180    21078986.891    -6629774.080 8   7488696.774 5
  20089582.713    20089582.374    19985306.904 7 -59643395.838 4
  21518180.675    21518183.139    30589947.263 6 -29213349.478 5
 86  6 20  0 57 35.0800000  0  4G 6G13G 9G11
  21190657.637    21190653.262    13460469.910 9  -9216437.447 3
  21076875.115    21076874.406    -6640868.034 8   7480052.134 5
  20088622.572    20088623.538    19980261.310 7 -59647327.462 3
  21520640.597    21520645.703    30602884.449 6 -29203268.581 5
 86  6 20  0 57 41.0800000  0  4G 6G13G 9G11
  21193062.828    21193062.639    13473107.860 8  -9206589.698 6
  21074766.854    21074768.717    -6651942.414 8   7471422.764 6
  20087667.148    20087666.854    19975237.926 7 -59651241.792 5
  21523105.201    21523110.867    30615833.325 5 -29193178.545 6
 86  6 20  0 57 47.0800000  0  4G 6G13G 9G11
  21195470.772    21195472.614    13485765.916 8  -9196726.301 5
  21072663.578    21072664.203    -6662997.224 8   7462808.635 5
  20086714.671    20086717.495    19970236.624 7 -59655138.917 5
  21525569.268    21525577.914    30628793.886 6 -29183079.412 5
 86  6 20  0 57 53.0800000  0  4G 6G13G 9G11
  21197882.205    21197883.933    13498444.107 8  -9186847.182 6
  21070563.995    21070565.451    -6674032.420 8   7454209.790 8
  20085765.830    20085767.121    19965257.537 6 -59659018.720 6
  21528040.029    21528045.714    30641766.114 5 -29172971.209 6
 86  6 20  0 57 59.0800000  0  4G 6G13G 9G11
  21200299.928    21200299.799    13511142.404 8  -9176952.418 4
  21068467.212    21068468.115    -6685047.900 8   7445626.306 5
  20084823.444    20084825.213    19960300.432 6 -59662881.411 5
  21530511.255    21530515.608    30654749.976 6 -29162853.918 3
 86  6 20  0 58  5.0800000  0  4G 6G13G 9G11
  21202719.619    21202724.770    13523860.836 9  -9167041.966 6
  21066374.802    21066378.196    -6696043.732 7   7437058.115 7
  20083883.683    20083886.649    19955365.631 7 -59666726.695 6
  21532985.366    21532988.645    30667745.470 7 -29152727.562 4
 86  6 20  0 58 11.0800000  0  4G 6G13G 9G11
  21205142.194    21205146.147    13536599.404 8  -9157115.797 7
  21064287.380    21064288.526    -6707019.988 8   7428505.211 7
  20082949.389    20082950.381    19950452.948 7 -59670554.753 6
  21535462.495    21535464.227    30680752.614 7 -29142592.129 7
 86  6 20  0 58 17.0800000  0  4G 6G13G 9G11
  21207571.398    21207573.440    13549358.053 8  -9147174.007 6
  21062200.986    21062204.499    -6717976.558 8   7419967.629 7
  20082019.711    20082018.438    19945562.406 7 -59674365.544 5
  21537939.104    21537941.359    30693771.362 6 -29132447.645 7
 86  6 20  0 58 23.0800000  0  4G 6G13G 9G11
  21210002.131    21210003.684    13562136.813 8  -9137216.518 6
  21060120.777    21060125.636    -6728913.449 9   7411445.383 5
  20081092.437    20081092.757    19940694.165 7 -59678158.982 5
  21540418.377    21540421.029    30706801.695 7 -29122294.137 4
 86  6 20  0 58 29.0800000  0  4G 6G13G 9G11
  21212438.044    21212440.940    13574935.577 8  -9127243.422 6
  21058042.966    21058046.267    -6739830.781 8   7402938.380 7
  20080170.275    20080172.820    19935848.117 7 -59681935.139 6
  21542901.215    21542902.902    30719843.540 7 -29112131.661 6
 86  6 20  0 58 35.0800000  0  4G 6G13G 9G11
  21214876.919    21214878.307    13587754.369 7  -9117254.734 5
  21055969.395    21055974.239    -6750728.471 8   7394446.665 6
  20079252.321    20079253.519    19931024.252 6 -59685693.964 6
  21545385.769    21545387.251    30732896.920 8 -29101960.189 6
 86  6 20  0 58 41.0800000  0  4G 6G13G 9G11
  21217321.896    21217321.303    13600593.286 7  -9107250.398 4
  21053899.591    21053904.800    -6761606.481 8   7385970.290 3
  20078338.479    20078339.475    19926222.696 7 -59689435.435 4
  21547872.410    21547874.015    30745961.777 7 -29091779.775 6
 86  6 20  0 58 47.0800000  0  4G 6G13G 9G11
  21219769.630    21219770.104    13613452.289 7  -9097230.396 5
  21051832.724    21051837.302    -6772464.811 8   7377509.266 5
  20077429.864    20077431.640    19921443.311 6 -59693159.620 6
  21550361.497    21550362.461    30759038.172 8 -29081590.376 5
 86  6 20  0 58 53.0800000  0  4G 6G13G 9G11
  21222220.699    21222221.653    13626331.338 8  -9087194.763 6
  21049769.558    21049774.361    -6783303.522 8   7369063.531 6
  20076524.224    20076526.727    19916686.329 6 -59696866.368 5
  21552850.719    21552852.248    30772126.047 8 -29071392.021 6
 86  6 20  0 58 59.0800000  0  4G 6G13G 9G11
  21224673.803    21224674.249    13639230.445 8  -9077143.537 6
  21047711.790    21047715.022    -6794122.571 9   7360633.125 6
  20075622.823    20075624.811    19911951.682 7 -59700555.710 5
  21555342.532    21555346.720    30785225.369 8 -29061184.737 7
 86  6 20  0 59  5.0800000  0  4G 6G13G 9G11
  21227131.573    21227132.127    13652149.588 9  -9067076.691 6
  21045656.625    21045659.524    -6804921.909 8   7352218.067 6
  20074724.969    20074726.141    19907239.184 6 -59704227.780 6
  21557838.349    21557840.720    30798336.112 8 -29050968.573 6
 86  6 20  0 59 11.0800000  0  4G 6G13G 9G11
  21229594.974    21229594.297    13665088.678 8  -9056994.305 5
  21043604.857    21043608.017    -6815701.629 8   7343818.298 6
  20073832.723    20073834.481    19902549.040 6 -59707882.442 6
  21560334.457    21560338.041    30811458.275 8 -29040743.514 6
 86  6 20  0 59 17.0800000  0  4G 6G13G 9G11
  21232060.462    21232060.666    13678047.799 8  -9046896.309 6
  21041558.267    21041559.053    -6826461.639 8   7335433.891 6
  20072946.116    20072949.902    19897881.238 7 -59711519.692 7
  21562834.476    21562837.131    30824591.797 8 -29030509.584 6
 86  6 20  0 59 23.0800000  0  4G 6G13G 9G11
  21234528.988    21234531.185    13691026.980 9  -9036782.677 5
  21039513.679    21039514.895    -6837202.044 8   7327064.752 6
  20072060.663    20072064.832    19893235.850 6 -59715139.475 7
  21565336.283    21565338.287    30837736.696 7 -29020266.807 6
 86  6 20  0 59 29.0800000  0  4G 6G13G 9G11
  21237003.339    21237004.892    13704026.165 9  -9026653.461 3
  21037473.799    21037475.782    -6847922.762 8   7318710.942 6
  20071181.734    20071186.156    19888612.784 6 -59718741.867 6
  21567839.228    21567841.655    30850892.946 8 -29010015.175 5
 86  6 20  0 59 35.0800000  0  4G 6G13G 9G11
  21239479.643    21239483.040    13717045.278 7  -9016508.710 5
  21035436.997    21035439.275    -6858623.765 8   7310372.521 7
  20070306.946    20070309.242    19884012.176 6 -59722326.736 6
  21570345.082    21570347.369    30864060.459 8 -28999754.772 4
 86  6 20  0 59 41.0800000  0  4G 6G13G 9G11
  21241961.204    21241964.119    13730084.379 8  -9006348.373 6
  21033404.091    21033408.343    -6869305.070 8   7302049.415 6
  20069435.488    20069439.838    19879434.024 6 -59725894.133 6
  21572852.167    21572856.777    30877239.270 8 -28989485.562 6
 86  6 20  0 59 47.0800000  0  4G 6G13G 9G11
  21244445.667    21244450.354    13743143.568 6  -8996172.376 7
  21031374.771    21031379.258    -6879966.739 9   7293741.630 7
  20068569.601    20068570.432    19874878.252 6 -59729444.089 5
  21575361.760    21575365.012    30890429.362 7 -28979207.575 6
 86  6 20  0 59 53.0800000  0  4G 6G13G 9G11
  21246934.634    21246939.021    13756222.643 7  -8985980.874 6
  21029350.074    21029354.715    -6890608.635 8   7285449.255 6
  20067706.271    20067707.858    19870345.011 7 -59732976.491 5
  21577872.930    21577877.003    30903630.776 7 -28968920.757 4
 86  6 20  0 59 59.0800000  0  4G 6G13G 9G11
  21249426.361    21249431.571    13769321.745 7  -8975773.794 7
  21027330.674    21027333.670    -6901230.821 8   7277172.232 6
  20066847.783    20066849.535    19865834.172 6 -59736491.432 5
  21580388.405    21580391.861    30916843.410 8 -28958625.206 5
 86  6 20  1  0  5.0800000  0  4G 6G13G 9G11
  21251923.305    21251927.148    13782440.729 7  -8965551.174 7
  21025311.478    21025315.413    -6911833.308 8   7268910.562 7
  20065993.258    20065995.892    19861345.775 7 -59739988.871 6
  21582903.092    21582908.840    30930067.299 7 -28948320.882 5
 86  6 20  1  0 11.0800000  0  4G 6G13G 9G11
  21254423.898    21254426.485    13795579.713 8  -8955313.006 7
  21023297.255    21023303.276    -6922416.087 8   7260664.240 6
  20065143.445    20065146.746    19856879.896 7 -59743468.774 6
  21585423.514    21585425.719    30943302.393 7 -28938007.831 5
 86  6 20  1  0 17.0800000  0  4G 6G13G 9G11
  21256927.397    21256931.378    13808738.646 7  -8945059.280 9
  21021287.390    21021291.394    -6932979.142 9   7252433.284 7
  20064298.067    20064299.934    19852436.553 7 -59746931.130 6
  21587942.478    21587948.260    30956548.722 7 -28927686.003 7
 86  6 20  1  0 23.0800000  0  4G 6G13G 9G11
  21259437.205    21259440.250    13821917.554 8  -8934790.009 5
  21019281.247    21019286.266    -6943522.544 8   7244217.668 6
  20063456.230    20063457.873    19848015.704 7 -59750375.929 6
  21590467.207    21590470.620    30969806.263 7 -28917355.461 5
 86  6 20  1  0 29.0800000  0  4G 6G13G 9G11
  21261948.677    21261951.599    13835116.345 8  -8924505.237 6
  21017278.413    21017282.147    -6954046.206 7   7236017.423 6
  20062621.315    20062622.088    19843617.362 7 -59753803.214 5
  21592989.832    21592993.280    30983074.924 7 -28907016.250 5
 86  6 20  1  0 35.0800000  0  4G 6G13G 9G11
  21264465.377    21264465.663    13848335.015 8  -8914204.971 7
  21015278.190    21015282.816    -6964550.195 8   7227832.507 6
  20061787.967    20061789.412    19839241.570 7 -59757212.934 5
  21595519.198    21595520.943    30996354.725 7 -28896668.341 6
 86  6 20  1  0 41.0800000  0  4G 6G13G 9G11
  21266984.202    21266984.269    13861573.596 7  -8903889.224 5
  21013283.147    21013288.101    -6975034.489 8   7219662.902 5
  20060959.950    20060959.847    19834888.424 7 -59760604.997 4
  21598046.154    21598050.896    31009645.632 8 -28886311.806 3
 86  6 20  1  0 47.0800000  0  4G 6G13G 9G11
  21269507.857    21269507.053    13874832.043 8  -8893557.972 4
  21011292.055    21011296.116    -6985499.041 7   7211508.724 4
  20060136.696    20060136.461    19830557.802 7 -59763979.487 4
  21600577.679    21600582.457    31022947.587 6 -28875946.655 3
 86  6 20  1  0 53.0800000  0  4G 6G13G 9G11
  21272033.977    21272032.703    13888110.362 8  -8883211.232 3
  21009306.058    21009308.741    -6995943.935 8   7203369.853 6
  20059317.456    20059317.444    19826249.699 7 -59767336.488 5
  21603112.253    21603115.444    31036260.608 7 -28865572.836 5
 86  6 20  1  0 59.0800000  0  4G 6G13G 9G11
  21274564.412    21274565.037    13901408.645 8  -8872848.955 5
  21007321.081    21007326.855    -7006369.120 8   7195246.338 5
  20058500.858    20058501.418    19821964.232 7 -59770675.792 4
  21605648.620    21605651.340    31049584.691 7 -28855190.450 5
 86  6 20  1  1  5.0800000  0  4G 6G13G 9G11
  21277097.366    21277098.562    13914726.756 8  -8862471.220 4
  21005341.891    21005344.698    -7016774.603 8   7187138.189 5
  20057690.386    20057689.281    19817701.433 6 -59773997.478 3
  21608186.987    21608190.009    31062919.744 7 -28844799.490 5
 86  6 20  1  1 11.0800000  0  4G 6G13G 9G11
  21279636.032    21279638.975    13928064.729 8  -8852078.008 6
  21003365.336    21003369.514    -7027160.330 7   7179045.430 6
  20056881.135    20056880.546    19813461.217 7 -59777301.508 6
  21610726.419    21610730.125    31076265.753 6 -28834399.998 5
 86  6 20  1  1 17.0800000  0  4G 6G13G 9G11
  21282176.909    21282180.165    13941422.513 7  -8841669.360 4
  21001392.007    21001393.640    -7037526.278 8   7170968.055 4
  20056079.209    20056079.100    19809243.639 7 -59780587.961 4
  21613270.505    21613271.543    31089622.834 7 -28823991.879 3
 86  6 20  1  1 23.0800000  0  4G 6G13G 9G11
  21284722.205    21284729.069    13954800.170 8  -8831245.217 5
  20999425.280    20999428.204    -7047872.540 8   7162906.066 6
  20055281.023    20055280.132    19805048.832 7 -59783856.622 5
  21615812.187    21615813.312    31102990.838 7 -28813575.252 4
 86  6 20  1  1 29.0800000  0  4G 6G13G 9G11
  21287271.828    21287277.181    13968197.689 8  -8820805.582 6
  20997459.476    20997463.287    -7058199.050 8   7154859.450 8
  20054486.290    20054488.730    19800876.680 7 -59787107.672 6
  21618358.971    21618359.863    31116369.740 6 -28803150.108 4
 86  6 20  1  1 35.0800000  0  4G 6G13G 9G11
  21289827.165    21289830.623    13981615.020 6  -8810350.521 8
  20995498.799    20995501.389    -7068505.814 9   7146828.202 7
  20053695.477    20053698.145    19796727.193 7 -59790341.034 6
  21620906.804    21620906.963    31129759.597 7 -28792716.467 4
 86  6 20  1  1 41.0800000  0  4G 6G13G 9G11
  21292384.365    21292388.326    13995052.150 8  -8799880.030 6
  20993540.248    20993543.134    -7078792.881 9   7138812.320 6
  20052909.751    20052913.237    19792600.405 6 -59793556.705 6
  21623456.478    21623456.969    31143160.376 6 -28782274.317 5
 86  6 20  1  1 47.0800000  0  4G 6G13G 9G11
  21294945.250    21294949.230    14008509.095 7  -8789394.103 7
  20991586.072    20991589.115    -7089060.204 9   7130811.816 7
  20052129.823    20052132.173    19788496.360 7 -59796754.633 6
  21626008.527    21626009.293    31156572.009 6 -28771823.685 4
 86  6 20  1  1 53.0800000  0  4G 6G13G 9G11
  21297509.302    21297512.480    14021985.832 7  -8778892.735 7
  20989635.437    20989638.118    -7099307.726 8   7122826.727 6
  20051354.511    20051356.212    19784415.026 6 -59799934.893 6
  21628561.917    21628564.587    31169994.570 6 -28761364.548 5
 86  6 20  1  1 59.0800000  0  4G 6G13G 9G11
  21300078.174    21300079.930    14035482.423 8  -8768375.918 8
  20987690.736    20987693.520    -7109535.580 9   7114856.985 8
  20050579.928    20050583.585    19780356.515 6 -59803097.380 6
  21631117.947    21631121.106    31183428.017 6 -28750896.953 7
 86  6 20  1  2  5.0800000  0  4G 6G13G 9G11
  21302649.565    21302651.054    14048998.774 7  -8757843.699 8
  20985748.068    20985750.988    -7119743.672 8   7106902.621 7
  20049812.298    20049815.568    19776320.785 7 -59806242.100 5
  21633675.926    21633678.385    31196872.218 6 -28740420.950 6
 86  6 20  1  2 11.0800000  0  4G 6G13G 9G11
  21305225.753    21305227.318    14062534.868 8  -8747296.096 6
  20983809.200    20983812.352    -7129931.901 9   7098963.744 6
  20049050.942    20049051.014    19772307.808 6 -59809369.097 4
  21636237.136    21636239.605    31210327.289 7 -28729936.500 5
 86  6 20  1  2 17.0800000  0  4G 6G13G 9G11
  21307805.809    21307807.204    14076090.731 8  -8736733.091 6
  20981874.305    20981876.774    -7140100.468 9   7091040.208 6
  20048292.211    20048292.536    19768317.704 6 -59812478.262 7
  21638797.730    21638803.655    31223793.055 6 -28719443.681 5
 86  6 20  1  2 23.0800000  0  4G 6G13G 9G11
  21310387.352    21310389.891    14089666.392 8  -8726154.643 8
  20979943.081    20979945.890    -7150249.282 8   7083132.041 6
  20047535.378    20047534.793    19764350.367 7 -59815569.699 6
  21641364.435    21641363.697    31237269.569 7 -28708942.497 4
 86  6 20  1  2 29.0800000  0  4G 6G13G 9G11
  21312974.225    21312977.165    14103261.757 8  -8715560.866 7
  20978015.178    20978018.179    -7160378.308 9   7075239.288 7
  20046785.033    20046786.337    19760405.859 6 -59818643.340 5
  21643929.620    21643933.056    31250756.858 7 -28698432.906 5
 86  6 20  1  2 35.0800000  0  4G 6G13G 9G11
  21315565.401    21315567.496    14116876.890 7  -8704951.666 6
  20976091.397    20976094.440    -7170487.557 8   7067361.966 6
  20046040.030    20046039.576    19756484.244 7 -59821699.157 4
  21646497.064    21646499.286    31264254.897 7 -28687914.954 5
 86  6 20  1  2 41.0800000  0  4G 6G13G 9G11
  21318159.809    21318162.926    14130511.764 8  -8694327.076 7
  20974171.307    20974172.503    -7180577.056 9   7059500.035 5
  20045297.420    20045298.700    19752585.455 7 -59824737.182 6
  21649070.041    21649070.384    31277763.612 7 -28677388.686 1
 86  6 20  1  2 47.0800000  0  4G 6G13G 9G11
  21320758.010    21320760.404    14144166.362 7  -8683687.161 5
  20972255.707    20972256.210    -7190646.873 9   7051653.426 5
  20044558.713    20044559.936    19748709.492 7 -59827757.391 5
  21651642.693    21651639.445    31291282.957 7 -28666854.127 2
 86  6 20  1  2 53.0800000  0  4G 6G13G 9G11
  21323359.221    21323360.834    14157840.635 7  -8673031.867 6
  20970341.768    20970341.566    -7200696.937 9   7043822.237 6
  20043825.290    20043824.971    19744856.459 6 -59830759.774 7
  21654217.947    21654214.139    31304812.934 7 -28656311.261 5
 86  6 20  1  2 59.0800000  0  4G 6G13G 9G11
  21325966.311    21325966.918    14171534.637 7  -8662361.224 4
  20968433.581    20968435.061    -7210727.169 8   7036006.471 6
  20043096.983    20043099.486    19741026.440 7 -59833744.197 5
  21656794.455    21656789.960    31318353.618 7 -28645760.040 2
 86  6 20  1  3  5.0800000  0  4G 6G13G 9G11
  21328576.365    21328576.719    14185248.388 8  -8651675.179 6
  20966527.824    20966530.429    -7220737.621 8   7028206.145 7
  20042372.135    20042373.376    19737219.259 6 -59836710.823 7
  21659372.522    21659371.648    31331904.903 6 -28635200.601 3
 86  6 20  1  3 11.0800000  0  4G 6G13G 9G11
  21331188.841    21331192.267    14198981.822 7  -8640973.826 6
  20964626.420    20964629.442    -7230728.356 9   7020421.154 7
  20041653.344    20041653.784    19733435.032 7 -59839659.574 6
  21661954.618    21661951.095    31345466.733 7 -28624632.920 2
 86  6 20  1  3 17.0800000  0  4G 6G13G 9G11
  21333806.912    21333809.606    14212734.896 7  -8630257.124 6
  20962729.274    20962733.262    -7240699.324 8   7012651.577 5
  20040935.730    20040938.812    19729673.757 6 -59842590.443 5
  21664536.496    21664532.280    31359039.149 7 -28614056.996 1
 86  6 20  1  3 23.0800000  0  4G 6G13G 9G11
  21336427.940    21336429.619    14226507.627 8  -8619525.131 7
  20960835.229    20960840.221    -7250650.533 8   7004897.379 6
  20040225.574    20040226.564    19725935.489 7 -59845503.374 5
  21667120.705    21667123.307    31372622.156 7 -28603472.816 1
 86  6 20  1  3 29.0800000  0  4G 6G13G 9G11
  21339051.887    21339051.582    14240299.987 8  -8608777.833 5
  20958945.612    20958953.754    -7260581.983 8   6997158.606 6
  20039519.654    20039517.481    19722220.098 8 -59848398.470 5
  21669707.989    21669710.212    31386215.669 6 -28592880.433 2
 86  6 20  1  3 35.0800000  0  4G 6G13G 9G11
  21341680.915    21341683.243    14254112.007 7  -8598015.235 7
  20957059.035    20957065.904    -7270493.624 8   6989435.251 6
  20038817.950    20038817.912    19718527.746 6 -59851275.634 5
  21672295.005    21672300.102    31399819.683 6 -28582279.895 3
 86  6 20  1  3 41.0800000  0  4G 6G13G 9G11
  21344313.290    21344315.538    14267943.659 8  -8587237.327 4
  20955177.350    20955184.003    -7280385.443 8   6981727.345 6
  20038117.285    20038119.117    19714858.443 6 -59854134.819 5
  21674886.191    21674892.983    31413434.279 6 -28571671.155 3
 86  6 20  1  3 47.0800000  0  4G 6G13G 9G11
  21346949.343    21346952.362    14281794.955 8  -8576444.114 6
  20953299.131    20953304.330    -7290257.485 8   6974034.861 6
  20037424.777    20037424.769    19711212.101 7 -59856976.135 3
  21677478.564    21677484.140    31427059.341 6 -28561054.258 2
 86  6 20  1  3 53.0800000  0  4G 6G13G 9G11
  21349588.762    21349591.329    14295665.850 8  -8565635.630 6
  20951424.817    20951429.632    -7300109.763 8   6966357.775 6
  20036733.177    20036735.142    19707588.799 6 -59859799.490 6
  21680072.308    21680077.448    31440694.763 6 -28550429.211 2
 86  6 20  1  3 59.0800000  0  4G 6G13G 9G11
  21352230.905    21352234.981    14309556.334 8  -8554811.873 6
  20949554.867    20949557.497    -7309942.307 7   6958696.059 3
  20036048.052    20036050.269    19703988.506 6 -59862604.899 5
  21682669.138    21682676.401    31454340.632 6 -28539796.096 3
 86  6 20  1  4  5.0800000  0  4G 6G13G 9G11
  21354877.406    21354880.681    14323466.447 7  -8543972.820 5
  20947687.150    20947689.201    -7319755.069 8   6951049.741 3
  20035368.974    20035372.109    19700411.287 7 -59865392.345 5
  21685268.590    21685272.935    31467996.930 5 -28529154.813 4
 86  6 20  1  4 11.0800000  0  4G 6G13G 9G11
  21357527.495    21357530.395    14337396.184 7  -8533118.471 6
  20945824.287    20945828.415    -7329548.053 9   6943418.868 5
  20034692.800    20034693.079    19696857.206 6 -59868161.748 5
  21687869.528    21687875.528    31481663.622 6 -28518505.448 3
 86  6 20  1  4 17.0800000  0  4G 6G13G 9G11
  21360182.537    21360185.982    14351345.498 7  -8522248.890 7
  20943963.328    20943966.116    -7339321.280 8   6935803.389 6
  20034021.391    20034022.178    19693326.141 7 -59870913.230 6
  21690472.877    21690477.255    31495340.682 6 -28507847.990 5
 86  6 20  1  4 23.0800000  0  4G 6G13G 9G11
  21362840.030    21362844.474    14365314.342 6  -8511364.058 6
  20942105.703    20942110.038    -7349074.790 7   6928203.255 3
  20033353.811    20033353.153    19689818.241 6 -59873646.643 6
  21693078.240    21693082.609    31509028.054 6 -28497182.511 6
 86  6 20  1  4 29.0800000  0  4G 6G13G 9G11
  21365501.710    21365506.065    14379302.717 7  -8500464.012 6
  20940253.898    20940255.614    -7358808.442 7   6920618.604 7
  20032690.762    20032692.292    19686333.407 7 -59876362.089 7
  21695687.238    21695689.097    31522725.798 6 -28486508.955 6
 86  6 20  1  4 35.0800000  0  4G 6G13G 9G11
  21368168.892    21368171.517    14393310.639 7  -8489548.756 6
  20938404.546    20938407.394    -7368522.300 8   6913049.367 6
  20032031.413    20032031.216    19682871.693 7 -59879059.533 6
  21698295.606    21698297.821    31536433.865 6 -28475827.346 5
 86  6 20  1  4 41.0800000  0  4G 6G13G 9G11
  21370839.617    21370839.702    14407338.142 7  -8478618.230 6
  20936561.388    20936561.300    -7378216.353 7   6905495.569 5
  20031376.375    20031378.347    19679433.124 7 -59881738.923 4
  21700904.994    21700909.583    31550152.258 7 -28465137.713 5
 86  6 20  1  4 47.0800000  0  4G 6G13G 9G11
  21373512.063    21373511.285    14421385.153 8  -8467672.519 7
  20934720.423    20934723.996    -7387890.664 8   6897957.155 7
  20030727.329    20030727.620    19676017.761 7 -59884400.255 7
  21703520.142    21703522.023    31563880.910 6 -28454440.050 6
 86  6 20  1  4 53.0800000  0  4G 6G13G 9G11
  21376190.653    21376188.919    14435451.735 8  -8456711.566 7
  20932883.176    20932886.398    -7397545.175 8   6890434.170 7
  20030080.801    20030081.404    19672625.492 7 -59887043.572 6
  21706132.459    21706136.743    31577619.803 6 -28443734.425 5
 86  6 20  1  4 59.0800000  0  4G 6G13G 9G11
  21378870.191    21378869.326    14449537.829 8  -8445735.395 8
  20931050.571    20931052.570    -7407179.862 8   6882926.641 8
  20029438.672    20029441.009    19669256.529 6 -59889668.735 7
  21708751.379    21708752.657    31591368.938 5 -28433020.812 6
 86  6 20  1  5  5.0800000  0  4G 6G13G 9G11
  21381553.939    21381554.172    14463643.458 8  -8434744.021 6
  20929221.146    20929222.170    -7416794.740 7   6875434.534 6
  20028802.331    20028804.979    19665910.735 6 -59892275.863 6
  21711369.210    21711368.448    31605128.227 6 -28422299.282 5
 86  6 20  1  5 11.0800000  0  4G 6G13G 9G11
  21384241.913    21384243.450    14477768.531 8  -8423737.487 7
  20927395.265    20927397.450    -7426389.851 8   6867957.831 7
  20028170.075    20028173.459    19662588.084 6 -59894864.932 5
  21713986.884    21713990.196    31618897.726 5 -28411569.820 6
 86  6 20  1  5 17.0800000  0  4G 6G13G 9G11
  21386934.048    21386935.143    14491913.072 9  -8412715.789 6
  20925573.824    20925575.914    -7435965.136 8   6860496.572 6
  20027543.220    20027544.478    19659288.694 7 -59897435.866 4
  21716607.428    21716612.139    31632677.405 5 -28400832.406 6
 86  6 20  1  5 23.0800000  0  4G 6G13G 9G11
  21389628.532    21389631.911    14506077.125 8  -8401678.907 7
  20923754.948    20923758.449    -7445520.649 8   6853050.722 6
  20026920.844    20026920.545    19656012.603 7 -59899988.653 6
  21719229.444    21719235.435    31646467.183 3 -28390087.134 6
 86  6 20  1  5 29.0800000  0  4G 6G13G 9G11
  21392328.847    21392331.324    14520260.664 8  -8390626.800 7
  20921939.285    20921943.577    -7455056.435 7   6845620.237 6
  20026302.486    20026301.357    19652759.686 7 -59902523.399 5
  21721855.462    21721859.869    31660267.082 6 -28379333.983 5
 86  6 20  1  5 35.0800000  0  4G 6G13G 9G11
  21395030.017    21395033.378    14534463.661 7  -8379559.529 7
  20920128.485    20920132.804    -7464572.432 9   6838205.172 7
  20025687.057    20025687.570    19649530.053 7 -59905039.997 7
  21724483.702    21724488.421    31674077.160 5 -28368572.875 6
 86  6 20  1  5 41.0800000  0  4G 6G13G 9G11
  21397736.619    21397739.822    14548686.105 8  -8368477.103 7
  20918322.614    20918326.186    -7474068.625 8   6830805.540 8
  20025078.028    20025078.130    19646323.832 7 -59907538.349 7
  21727113.234    21727118.166    31687897.369 5 -28357803.888 6
 86  6 20  1  5 47.0800000  0  4G 6G13G 9G11
  21400446.257    21400449.869    14562927.926 7  -8357379.575 7
  20916517.763    20916522.030    -7483545.025 8   6823421.337 7
  20024472.196    20024472.880    19643140.820 7 -59910018.606 6
  21729744.944    21729748.793    31701727.606 6 -28347027.071 6
 86  6 20  1  5 53.0800000  0  4G 6G13G 9G11
  21403159.361    21403164.232    14577189.201 6  -8346266.888 6
  20914718.214    20914722.918    -7493001.659 8   6816052.538 6
  20023869.475    20023870.714    19639981.078 7 -59912480.739 6
  21732378.871    21732380.160    31715567.901 5 -28336242.435 5
 86  6 20  1  5 59.0800000  0  4G 6G13G 9G11
  21405875.941    21405881.822    14591469.865 6  -8335139.074 7
  20912922.841    20912925.850    -7502438.466 8   6808699.184 6
  20023271.931    20023274.718    19636844.735 7 -59914924.650 6
  21735015.606    21735017.743    31729418.185 4 -28325450.002 5
 86  6 20  1  6  5.0800000  0  4G 6G13G 9G11
  21408597.339    21408601.697    14605769.950 6  -8323996.136 8
  20911131.560    20911133.871    -7511855.443 9   6801361.297 6
  20022678.274    20022681.393    19633731.667 6 -59917350.418 6
  21737652.675    21737655.601    31743278.494 5 -28314649.765 5
 86  6 20  1  6 11.0800000  0  4G 6G13G 9G11
  21411324.121    21411326.952    14620089.422 7  -8312838.101 7
  20909343.229    20909344.444    -7521252.575 8   6794038.871 7
  20022090.584    20022093.766    19630641.928 8 -59919757.995 7
  21740289.654    21740294.281    31757148.732 5 -28303841.790 5
 86  6 20  1  6 17.0800000  0  4G 6G13G 9G11
  21414052.440    21414055.789    14634428.253 8  -8301664.983 6
  20907558.782    20907559.941    -7530629.957 8   6786731.841 6
  20021509.079    20021510.413    19627575.594 6 -59922147.359 7
  21742932.814    21742935.714    31771028.934 5 -28293026.053 2
 86  6 20  1  6 23.0800000  0  4G 6G13G 9G11
  21416786.044    21416786.551    14648786.437 7  -8290476.780 7
  20905777.374    20905779.740    -7539987.528 8   6779440.244 8
  20020928.707    20020930.825    19624532.615 7 -59924518.503 7
  21745577.160    21745581.584    31784919.087 6 -28282202.583 5
 86  6 20  1  6 29.0800000  0  4G 6G13G 9G11
  21419523.070    21419523.572    14663164.036 8  -8279273.466 7
  20903999.113    20904003.326    -7549325.321 9   6772164.043 6
  20020354.698    20020357.221    19621513.033 6 -59926871.448 5
  21748223.583    21748226.239    31798819.134 3 -28271371.367 4
 86  6 20  1  6 35.0800000  0  4G 6G13G 9G11
  21422262.078    21422261.419    14677561.026 8  -8268055.047 6
  20902227.068    20902229.284    -7558643.278 9   6764903.310 6
  20019782.501    20019785.778    19618516.843 6 -59929206.121 4
  21750868.863    21750873.067    31812729.109 4 -28260532.439 3
 86  6 20  1  6 41.0800000  0  4G 6G13G 9G11
  21425004.929    21425005.047    14691977.337 8  -8256821.561 7
  20900456.245    20900459.477    -7567941.450 9   6757658.001 6
  20019217.831    20019220.369    19615544.069 6 -59931522.562 5
  21753516.756    21753523.158    31826648.951 5 -28249685.803 6
 86  6 20  1  6 47.0800000  0  4G 6G13G 9G11
  21427752.615    21427752.478    14706412.933 7  -8245573.091 7
  20898691.924    20898694.387    -7577219.689 9   6750428.199 5
  20018658.200    20018659.497    19612594.795 6 -59933820.709 6
  21756170.539    21756174.270    31840578.708 5 -28238831.464 4
 86  6 20  1  6 53.0800000  0  4G 6G13G 9G11
  21430502.275    21430503.612    14720867.888 8  -8234309.486 6
  20896930.840    20896932.338    -7586478.116 8   6743213.852 6
  20018101.018    20018102.116    19609668.958 7 -59936100.583 6
  21758824.912    21758826.295    31854518.299 6 -28227969.456 3
 86  6 20  1  6 59.0800000  0  4G 6G13G 9G11
  21433256.944    21433257.706    14735342.123 7  -8223030.891 4
  20895172.099    20895175.465    -7595716.690 9   6736014.984 4
  20017546.394    20017548.910    19606766.541 6 -59938362.197 5
  21761477.136    21761480.448    31868467.668 3 -28217099.802 4
 86  6 20  1  7  5.0800000  0  4G 6G13G 9G11
  21436013.942    21436018.534    14749835.690 7  -8211737.219 5
  20893417.872    20893419.956    -7604935.544 9   6728831.458 4
  20017000.077    20017002.134    19603887.589 6 -59940605.525 5
  21764136.862    21764134.791    31882426.898 6 -28206222.488 2
 86  6 20  1  7 11.0800000  0  4G 6G13G 9G11
  21438774.912    21438777.694    14764348.525 7  -8200428.505 5
  20891666.693    20891671.935    -7614134.596 8   6721663.374 4
  20016455.603    20016458.972    19601032.100 7 -59942830.568 5
  21766794.963    21766795.237    31896395.955 5 -28195337.496 6
 86  6 20  1  7 17.0800000  0  4G 6G13G 9G11
  21441539.642    21441543.207    14778880.691 7  -8189104.748 5
  20889920.800    20889924.821    -7623313.835 8   6714510.733 6
  20015917.730    20015919.932    19598200.171 5 -59945037.277 6
  21769454.017    21769452.366    31910374.768 6 -28184444.935 3
 86  6 20  1  7 23.0800000  0  4G 6G13G 9G11
  21444308.923    21444315.310    14793432.088 7  -8177766.015 5
  20888177.821    20888182.588    -7632473.303 9   6707373.487 5
  20015383.252    20015386.923    19595391.724 6 -59947225.662 2
  21772114.150    21772119.093    31924363.360 5 -28173544.717 2
 86  6 20  1  7 29.0800000  0  4G 6G13G 9G11
  21447081.762    21447085.611    14808002.784 7  -8166412.209 6
  20886437.310    20886442.186    -7641612.998 8   6700251.668 5
  20014853.623    20014856.593    19592606.909 7 -59949395.647 6
  21774777.755    21774782.338    31938361.689 6 -28162636.931 5
 86  6 20  1  7 35.0800000  0  4G 6G13G 9G11
  21449857.386    21449861.762    14822592.750 7  -8155043.407 5
  20884702.204    20884706.591    -7650732.871 8   6693145.286 6
  20014328.169    20014329.915    19589845.523 5 -59951547.371 7
  21777442.175    21777447.032    31952369.688 6 -28151721.574 6
 86  6 20  1  7 41.0800000  0  4G 6G13G 9G11
  21452637.475    21452642.197    14837201.923 8  -8143659.637 6
  20882969.962    20882975.057    -7659832.939 8   6686054.326 5
  20013808.630    20013809.419    19587107.693 7 -59953680.729 5
  21780111.045    21780112.964    31966387.392 5 -28140798.711 3
 86  6 20  1  7 47.0800000  0  4G 6G13G 9G11
  21455420.804    21455425.049    14851830.300 7  -8132260.896 5
  20881242.276    20881245.551    -7668913.239 8   6678978.773 7
  20013290.828    20013292.770    19584393.420 7 -59955795.756 6
  21782781.203    21782781.827    31980414.780 5 -28129868.248 3
 86  6 20  1  7 53.0800000  0  4G 6G13G 9G11
  21458209.955    21458210.901    14866477.913 8  -8120847.188 5
  20879518.131    20879522.972    -7677973.695 8   6671918.692 6
  20012777.825    20012780.164    19581702.716 6 -59957892.420 5
  21785451.673    21785453.962    31994451.777 5 -28118930.321 3
 86  6 20  1  7 59.0800000  0  4G 6G13G 9G11
  21461001.574    21461002.069    14881144.710 8  -8109418.511 6
  20877800.117    20877801.103    -7687014.380 8   6664874.002 7
  20012269.945    20012273.216    19579035.539 6 -59959970.714 7
  21788124.001    21788127.291    32008498.372 6 -28107984.947 5
 86  6 20  1  8  5.0800000  0  4G 6G13G 9G11
  21463795.563    21463798.477    14895830.680 8  -8097974.892 7
  20876081.403    20876084.408    -7696035.284 8   6657844.735 7
  20011769.883    20011770.522    19576392.068 5 -59962030.556 6
  21790798.727    21790806.049    32022554.537 5 -28097032.086 3
 86  6 20  1  8 11.0800000  0  4G 6G13G 9G11
  21466592.814    21466596.811    14910535.929 9  -8086516.267 7
  20874368.484    20874374.009    -7705036.344 7   6650830.926 6
  20011268.127    20011270.900    19573772.166 5 -59964072.038 6
  21793472.979    21793479.128    32036620.274 6 -28086071.737 2
 86  6 20  1  8 17.0800000  0  4G 6G13G 9G11
  21469395.510    21469397.247    14925260.345 8  -8075042.700 7
  20872659.368    20872661.728    -7714017.567 7   6643832.586 7
  20010774.108    20010776.993    19571175.877 6 -59966095.136 6
  21796156.239    21796158.022    32050695.573 6 -28075103.957 1
 86  6 20  1  8 23.0800000  0  4G 6G13G 9G11
  21472202.237    21472203.639    14940003.822 8  -8063554.290 5
  20870955.657    20870957.221    -7722978.963 7   6636849.698 6
  20010284.256    20010286.728    19568603.209 6 -59968099.788 4
  21798834.886    21798834.796    32064780.471 5 -28064128.694 3
 86  6 20  1  8 29.0800000  0  4G 6G13G 9G11
  21475012.207    21475013.221    14954766.487 7  -8052050.934 5
  20869254.925    20869255.497    -7731920.558 7   6629882.232 5
  20009801.883    20009806.319    19566054.163 5 -59970086.074 5
  21801516.299    21801513.924    32078874.890 5 -28053146.033 1
 86  6 20  1  8 35.0800000  0  4G 6G13G 9G11
  21477824.048    21477823.170    14969548.306 7  -8040532.628 6
  20867555.279    20867559.701    -7740842.331 8   6622930.185 5
  20009320.045    20009320.498    19563528.776 6 -59972053.902 5
  21804202.041    21804201.612    32092978.833 3 -28042155.937 3
 86  6 20  1  8 41.0800000  0  4G 6G13G 9G11
  21480640.049    21480640.094    14984349.241 7  -8028999.441 5
  20865860.930    20865865.777    -7749744.313 8   6615993.585 5
  20008843.139    20008848.882    19561027.054 6 -59974003.292 6
  21806885.972    21806886.184    32107092.282 3 -28031158.441 3
 86  6 20  1  8 47.0800000  0  4G 6G13G 9G11
  21483459.210    21483460.366    14999169.308 8  -8017451.350 5
  20864169.954    20864176.199    -7758626.415 7   6609072.458 6
  20008373.863    20008374.699    19558549.084 5 -59975934.170 5
  21809573.709    21809570.829    32121215.215 4 -28020153.568 4
 86  6 20  1  8 53.0800000  0  4G 6G13G 9G11
  21486283.680    21486284.698    15014008.480 7  -8005888.355 6
  20862484.341    20862488.845    -7767488.695 8   6602166.810 5
  20007908.375    20007907.338    19556094.792 5 -59977846.606 5
  21812260.520    21812261.114    32135347.609 3 -28009141.355 3
 86  6 20  1  8 59.0800000  0  4G 6G13G 9G11
  21489110.161    21489112.513    15028866.762 7  -7994310.485 5
  20860801.777    20860806.095    -7776331.145 8   6595276.576 6
  20007442.163    20007444.043    19553664.171 6 -59979740.605 4
  21814953.333    21814954.267    32149489.427 4 -27998121.738 1
 86  6 20  1  9  5.0800000  0  4G 6G13G 9G11
  21491943.056    21491943.673    15043744.117 7  -7982717.727 6
  20859122.455    20859127.577    -7785153.756 7   6588401.828 6
  20006985.794    20006986.091    19551257.277 6 -59981616.097 4
  21817647.977    21817642.241    32163640.600 1 -27987094.826 3
 86  6 20  1  9 11.0800000  0  4G 6G13G 9G11
  21494778.433    21494779.509    15058640.562 8  -7971110.108 6
  20857449.393    20857453.611    -7793956.489 8   6581542.558 7
  20006530.685    20006532.522    19548874.190 5 -59983473.041 6
  21820339.175    21820343.345    32177801.195 3 -27976060.614 2
 86  6 20  1  9 17.0800000  0  4G 6G13G 9G11
  21497616.467    21497619.173    15073556.102 7  -7959487.607 7
  20855776.702    20855782.555    -7802739.446 7   6574698.694 7
  20006079.022    20006083.796    19546514.832 6 -59985311.517 7
  21823036.176    21823040.202    32191971.142 3 -27965019.095 2
 86  6 20  1  9 23.0800000  0  4G 6G13G 9G11
  21500459.435    21500460.484    15088490.684 8  -7947850.287 7
  20854108.051    20854114.464    -7811502.608 8   6567870.267 7
  20005637.258    20005640.550    19544179.252 5 -59987131.432 7
  21825734.180    21825735.920    32206150.455 2 -27953970.266 4
 86  6 20  1  9 29.0800000  0  4G 6G13G 9G11
  21503305.478    21503306.308    15103444.324 7  -7936198.109 5
  20852445.638    20852451.171    -7820245.919 7   6561057.285 7
  20005196.746    20005200.526    19541867.406 5 -59988932.874 6
  21828434.358    21828437.002    32220339.105 3 -27942914.186 3
 86  6 20  1  9 35.0800000  0  4G 6G13G 9G11
  21506154.995    21506153.355    15118416.932 9  -7924531.160 6
  20850785.061    20850790.872    -7828969.476 8   6554259.705 6
  20004762.133    20004762.681    19539579.408 4 -59990715.725 3
  21831133.860    21831134.846    32234537.091 1 -27931850.857 3
 86  6 20  1  9 41.0800000  0  4G 6G13G 9G11
  21509007.548    21509008.676    15133408.566 8  -7912849.367 6
  20849128.341    20849133.526    -7837673.292 8   6547477.535 7
  20004330.525    20004334.310    19537315.133 6 -59992480.075 6
  21833840.754    21833841.138    32248744.313 2 -27920780.259 3
 86  6 20  1  9 47.0800000  0  4G 6G13G 9G11
  21511863.395    21511865.911    15148419.222 9  -7901152.764 7
  20847477.269    20847480.921    -7846357.299 8   6540710.791 7
  20003903.900    20003907.616    19535074.746 5 -59994225.826 6
  21836543.271    21836547.567    32262960.727 1 -27909702.532 4
 86  6 20  1  9 53.0800000  0  4G 6G13G 9G11
  21514723.893    21514726.127    15163448.852 8  -7889441.366 6
  20845829.164    20845831.480    -7855021.458 8   6533959.501 6
  20003481.884    20003486.142    19532858.171 6 -59995953.021 5
  21839253.549    21839255.855    32277186.487 1 -27898617.551 3
 86  6 20  1  9 59.0800000  0  4G 6G13G 9G11
  21517587.601    21517588.872    15178497.498 8  -7877715.152 7
  20844184.176    20844187.310    -7863665.880 8   6527223.600 7
  20003064.170    20003069.244    19530665.410 6 -59997661.691 7
  21841958.754    21841965.640    32291421.423 3 -27887525.371 2
 86  6 20  1 10  5.0800000  0  4G 6G13G 9G11
  21520453.293    21520455.126    15193565.112 8  -7865974.148 7
  20842543.288    20842546.541    -7872290.518 8   6520503.125 6
  20002651.577    20002655.999    19528496.450 6 -59999351.783 6
  21844668.126    21844675.148    32305665.608 2 -27876426.037 3
 86  6 20  1 10 11.0800000  0  4G 6G13G 9G11
  21523324.204    21523326.388    15208651.671 7  -7854218.382 6
  20840906.859    20840906.514    -7880895.285 8   6513798.108 6
  20002242.068    20002248.928    19526351.375 6 -60001023.278 6
  21847382.023    21847388.675    32319918.912 1 -27865319.543 2
 86  6 20  1 10 17.0800000  0  4G 6G13G 9G11
  21526198.297    21526201.972    15223757.221 6  -7842447.825 7
  20839272.287    20839274.375    -7889480.208 8   6507108.567 6
  20001840.532    20001843.903    19524230.140 5 -60002676.190 4
  21850100.086    21850102.495    32334181.406 1 -27854205.942 5
 86  6 20  1 10 23.0800000  0  4G 6G13G 9G11
  21529075.937    21529080.699    15238881.652 8  -7830662.546 6
  20837643.132    20837643.104    -7898045.318 8   6500434.444 6
  20001440.896    20001445.684    19522132.815 5 -60004310.476 6
  21852809.966    21852819.947    32348453.025 2 -27843085.203 2
 86  6 20  1 10 29.0800000  0  4G 6G13G 9G11
  21531956.794    21531961.017    15254024.976 7  -7818862.545 7
  20836016.266    20836017.788    -7906590.642 9   6493775.783 6
  20001046.028    20001049.096    19520059.261 6 -60005926.230 5
  21855533.988    21855538.610    32362733.716 1 -27831957.388 3
 86  6 20  1 10 35.0800000  0  4G 6G13G 9G11
  21534843.792    21534844.139    15269187.207 8  -7807047.831 4
  20834393.314    20834397.028    -7915116.204 8   6487132.492 5
  20000653.908    20000659.191    19518009.795 7 -60007523.224 4
  21858251.515    21858253.459    32377023.496 1 -27820822.459 2
 86  6 20  1 10 41.0800000  0  4G 6G13G 9G11
  21537733.828    21537734.016    15284368.400 8  -7795218.330 3
  20832775.461    20832777.527    -7923621.973 8   6480504.626 5
  20000270.613    20000276.050    19515984.118 6 -60009101.667 5
  21860971.669    21860978.084    32391322.425 1 -27809680.477 1
 86  6 20  1 10 47.0800000  0  4G 6G13G 9G11
  21540626.506    21540626.304    15299568.474 8  -7783374.134 6
  20831160.757    20831162.963    -7932107.921 9   6473892.224 6
  19999890.808    19999893.627    19513982.483 6 -60010661.390 7
  21863695.499    21863700.296    32405630.380 3 -27798531.405 4
 86  6 20  1 10 53.0800000  0  4G 6G13G 9G11
  21543523.621    21543522.742    15314787.495 9  -7771515.178 4
  20829549.229    20829551.827    -7940574.064 9   6467295.228 7
  19999515.333    19999516.979    19512004.718 6 -60012202.501 5
  21866418.949    21866424.453    32419947.342 3 -27787375.323 3
 86  6 20  1 10 59.0800000  0  4G 6G13G 9G11
  21546423.735    21546420.141    15330025.362 8  -7759641.537 6
  20827940.641    20827943.206    -7949020.469 8   6460713.638 6
  19999143.257    19999144.087    19510050.842 6 -60013724.992 7
  21869142.473    21869148.487    32434273.413 4 -27776212.197 2
 86  6 20  1 11  5.0800000  0  4G 6G13G 9G11
  21549326.479    21549325.945    15345282.052 8  -7747753.215 6
  20826338.106    20826341.536    -7957447.022 8   6454147.483 7
  19998776.589    19998778.985    19508121.007 6 -60015228.766 7
  21871873.645    21871875.609    32448608.492 3 -27765041.969 4
 86  6 20  1 11 11.0800000  0  4G 6G13G 9G11
  21552232.619    21552231.647    15360557.586 8  -7735850.210 7
  20824738.109    20824741.603    -7965853.840 9   6447596.730 8
                  19998412.638    19506215.680 5
  21874601.724    21874606.835    32462952.560 4 -27753864.826 1
 86  6 20  1 11 17.0800000  0  4G 6G13G 9G11
  21555143.268    21555142.019    15375851.926 7  -7723932.555 7
  20823141.379    20823144.680    -7974240.858 7   6441061.398 6
                  19998055.468    19504310.740 6
  21877334.764    21877334.876    32477305.553 3 -27742680.652 1
 86  6 20  1 11 23.0800000  0  4G 6G13G 9G11
  21558054.767    21558056.588    15391165.102 8  -7712000.214 7
  20821550.135    20821551.899    -7982607.981 9   6434541.562 7
                  19997702.178    19502441.468 3
  21880068.194    21880069.199    32491667.501 3 -27731489.536 2
 86  6 20  1 11 29.0800000  0  4G 6G13G 9G11
  21560971.898    21560974.241    15406497.082 7  -7700053.217 6
  20819962.162    20819965.373    -7990955.317 8   6428037.150 6
                  19997353.375    19500607.925 5
  21882802.020    21882804.145    32506038.395 5 -27720291.402 1
 86  6 20  1 11 35.0800000  0  4G 6G13G 9G11
  21563893.625    21563895.156    15421847.881 7  -7688091.542 7
  20818378.167    20818378.212    -7999282.835 9   6421548.191 6
                  19997008.377    19498792.343 6
  21885540.133    21885538.400    32520418.214 5 -27709086.325 3
 86  6 20  1 11 41.0800000  0  4G 6G13G 9G11
  21566817.868    21566821.230    15437217.523 7  -7676115.204 6
  20816796.259    20816797.426    -8007590.570 9   6415074.644 6
                  19996670.117    19496994.437 5
  21888278.221    21888277.531    32534806.949 5 -27697874.347 3
 86  6 20  1 11 47.0800000  0  4G 6G13G 9G11
  21569747.285    21569750.939    15452605.873 7  -7664124.287 5
  20815218.725    20815221.314    -8015878.535 7   6408616.494 6
                  19996334.962    19495243.682 4
  21891021.488    21891016.942    32549204.474 5 -27686655.460 2
 86  6 20  1 11 53.0800000  0  4G 6G13G 9G11
  21572679.193    21572680.746    15468012.993 7  -7652118.734 7
  20813646.634    20813647.286    -8024146.737 8   6402173.761 6
                  19996005.341    19493506.326 6
  21893762.047    21893757.968    32563610.821 4 -27675429.727 2
 86  6 20  1 11 59.0800000  0  4G 6G13G 9G11
  21575615.595    21575616.265    15483438.842 8  -7640098.591 7
  20812076.284    20812078.097    -8032395.141 9   6395746.426 6
                  19995675.979    19491775.153 5
  21896502.122    21896503.957    32578026.093 3 -27664197.066 3
 86  6 20  1 12  5.0800000  0  4G 6G13G 9G11
  21578554.729    21578555.013    15498883.484 8  -7628063.819 7
  20810510.203    20810511.676    -8040623.854 8   6389334.472 7
  19995353.120    19995338.725    19490084.958 6 -59604858.566 6
  21899248.480    21899246.083    32592450.133 1 -27652957.555 3
 86  6 20  1 12 11.0800000  0  4G 6G13G 9G11
  21581496.985    21581496.272    15514346.881 8  -7616014.429 7
  20808947.577    20808949.782    -8048832.747 8   6382937.942 8
  19995037.221    19995040.642    19488419.480 5 -59606156.418 7
  21901993.428    21901994.394    32606883.012 5 -27641711.168 3
 86  6 20  1 12 17.0800000  0  4G 6G13G 9G11
  21584443.048    21584442.726    15529828.954 8  -7603950.494 5
  20807388.597    20807391.235    -8057021.871 8   6376556.791 6
  19994724.422    19994727.251    19486778.065 6 -59607435.445 5
  21904742.062    21904744.434    32621324.618 2 -27630457.957 1
 86  6 20  1 12 23.0800000  0  4G 6G13G 9G11
  21587390.384    21587392.133    15545329.672 8  -7591872.021 7
  20805833.356    20805836.777    -8065191.106 7   6370191.167 7
  19994419.065    19994420.825    19485160.666 6 -59608695.748 6
  21907493.346    21907493.165    32635775.018 2 -27619197.924 3
 86  6 20  1 12 29.0800000  0  4G 6G13G 9G11
  21590345.622    21590344.647    15560849.146 9  -7579778.946 7
  20804281.811    20804286.308    -8073340.592 7   6363840.927 8
  19994116.230    19994117.374    19483567.514 6 -59609937.133 7
  21910243.260    21910242.268    32650234.094 3 -27607931.097 4
 86  6 20  1 12 35.0800000  0  4G 6G13G 9G11
  21593300.425    21593303.469    15576387.247 7  -7567671.336 7
  20802735.248    20802740.320    -8081470.287 8   6357506.108 7
  19993817.525    19993818.167    19481998.481 6 -59611159.771 6
  21912996.403    21912997.530    32664701.910 2 -27596657.477 4
 86  6 20  1 12 41.0800000  0  4G 6G13G 9G11
  21596261.919    21596262.863    15591943.954 8  -7555549.246 8
  20801190.543    20801195.692    -8089580.257 8   6351186.660 7
  19993523.671    19993524.001    19480453.574 5 -59612363.588 7
  21915751.297    21915750.654    32679178.437 1 -27585377.094 1
 86  6 20  1 12 47.0800000  0  4G 6G13G 9G11
  21599225.314    21599228.075    15607519.354 8  -7543412.585 7
  20799652.560    20799656.112    -8097670.416 8   6344882.647 8
  19993236.004    19993235.355    19478932.734 6 -59613548.650 6
  21918501.927    21918508.856    32693663.518 1 -27574089.977 1
 86  6 20  1 12 53.0800000  0  4G 6G13G 9G11
  21602192.327    21602195.229    15623113.431 7  -7531261.356 7
  20798116.129    20798120.309    -8105740.870 8   6338593.997 7
  19992950.736    19992950.285    19477436.149 6 -59614714.806 5
  21921263.321    21921267.545    32708157.309 1 -27562796.137 1
 86  6 20  1 12 59.0800000  0  4G 6G13G 9G11
  21605163.156    21605166.688    15638726.105 7  -7519095.640 7
  20796584.186    20796588.310    -8113791.492 7   6332320.782 7
  19992669.044    19992668.940    19475963.688 5 -59615862.216 6
  21924024.154    21924025.855    32722659.783 1 -27551495.516 2
 86  6 20  1 13  5.0800000  0  4G 6G13G 9G11
  21608136.987    21608141.152    15654357.401 8  -7506915.397 6
  20795056.966    20795058.129    -8121822.307 8   6326063.012 6
  19992395.256    19992396.385    19474515.401 7 -59616990.731 5
  21926772.599    21926793.110    32737170.809 1 -27540188.217 1
 86  6 20  1 13 11.0800000  0  4G 6G13G 9G11
  21611117.095    21611119.991    15670007.295 8  -7494720.688 6
  20793534.295    20793535.774    -8129833.348 9   6319820.638 5
  19992122.972    19992122.119    19473091.372 6 -59618100.408 4
  21929549.836    21929548.095    32751690.511 1 -27528874.177 1
 86  6 20  1 13 17.0800000  0  4G 6G13G 9G11
  21614097.342    21614101.724    15685675.814 8  -7482511.456 6
  20792013.632    20792014.510    -8137824.654 8   6313593.679 7
  19991857.725    19991857.550    19471691.429 5 -59619191.240 5
  21932314.125    21932317.328    32766218.776 1 -27517553.456 1
 86  6 20  1 13 23.0800000  0  4G 6G13G 9G11
  21617083.878    21617087.889    15701362.896 7  -7470287.754 7
  20790496.088    20790496.519    -8145796.255 8   6307382.041 7
  19991593.827    19991595.691    19470315.809 6 -59620263.132 6
  21935080.433    21935082.881    32780755.619 1 -27506226.062 1
 86  6 20  1 13 29.0800000  0  4G 6G13G 9G11
  21620072.529    21620075.481    15717068.573 8  -7458049.572 6
  20788982.636    20788984.525    -8153748.126 7   6301185.779 7
  19991337.975    19991339.682    19468964.375 7 -59621316.217 5
  21937843.366    21937847.912    32795300.921 1 -27494892.072 1
 86  6 20  1 13 35.0800000  0  4G 6G13G 9G11
  21623065.059    21623068.960    15732792.775 8  -7445796.958 8
  20787473.418    20787474.183    -8161680.198 7   6295004.950 7
  19991084.864    19991086.714    19467637.215 7 -59622350.372 7
                  21940844.417   -13739637.823 1
 86  6 20  1 13 41.0800000  0  4G 6G13G 9G11
  21626061.826    21626062.410    15748535.510 8  -7433529.892 6
  20785965.398    20785970.134    -8169592.427 8   6288839.583 5
  19990837.346    19990834.603    19466334.298 6 -59623365.635 5
                  21943317.393   -13787348.832 1
 86  6 20  1 13 47.0800000  0  4G 6G13G 9G11
  21629060.501    21629063.182    15764296.840 8  -7421248.346 6
  20784464.252    20784468.443    -8177484.850 8   6282689.629 7
  19990593.357    19990595.011    19465055.689 7 -59624361.953 6
                  21946117.270   -13773487.604 6
 86  6 20  1 13 53.0800000  0  4G 6G13G 9G11
  21632064.045    21632067.401    15780076.681 8  -7408952.373 5
  20782967.628    20782972.253    -8185357.567 8   6276555.046 3
  19990357.301    19990355.150    19463801.355 6 -59625339.368 6
                  21948918.170   -13758935.624 3
 86  6 20  1 13 59.0800000  0  4G 6G13G 9G11
  21635070.572    21635071.154    15795875.012 7  -7396641.986 5
  20781473.721    20781474.749    -8193210.477 8   6270435.911 6
  19990121.500    19990121.070    19462571.281 6 -59626297.864 6
                  21952407.747   -13883533.693 4
 86  6 20  1 14  5.0800000  0  4G 6G13G 9G11
  21638078.904    21638082.025    15811691.859 7  -7384317.176 5
  20779982.820    20779983.704    -8201043.652 8   6264332.143 7
  19989891.862    19989891.837    19461365.461 6 -59627237.461 6
                  21954962.531   -13912760.049 4
 86  6 20  1 14 11.0800000  0  4G 6G13G 9G11
  21641092.771    21641094.404    15827527.171 7  -7371977.996 5
  20778495.514    20778498.106    -8208857.013 8   6258243.815 7
  19989668.557    19989666.877    19460184.009 7 -59628158.067 6
                  21954160.178   -13898904.873 4
 86  6 20  1 14 17.0800000  0  4G 6G13G 9G11
  21644109.145    21644110.475    15843380.907 8  -7359624.443 6
  20777012.550    20777014.249    -8216650.684 9   6252170.833 6
  19989444.618    19989448.358    19459026.860 7 -59629059.745 5
                  21960252.924   -13983110.965 1
 86  6 20  1 14 23.0800000  0  4G 6G13G 9G11
  21647130.032    21647131.354    15859253.102 8  -7347256.493 6
  20775532.880    20775535.469    -8224424.644 8   6246113.206 6
  19989231.008    19989232.193    19457894.064 6 -59629942.445 6
                  21962650.190   -14010611.736 1
 86  6 20  1 14 29.0800000  0  4G 6G13G 9G11
  21650151.965    21650155.594    15875143.788 7  -7334874.152 7
  20774056.751    20774059.815    -8232178.932 8   6240070.913 7
  19989020.146    19989021.407    19456785.587 6 -59630806.200 6
                  21966339.508   -14039838.972 1
 86  6 20  1 14 35.0800000  0  3G 6G13G 9
  21653179.660    21653183.079    15891052.905 8  -7322477.431 8
  20772585.423    20772586.770    -8239913.429 9   6234044.033 6
  19988812.156    19988814.889    19455701.408 7 -59631651.013 6
 86  6 20  1 14 41.0800000  0  3G 6G13G 9
  21656210.809    21656213.558    15906980.371 7  -7310066.427 8
  20771116.560    20771119.667    -8247628.156 8   6228032.575 6
  19988610.497    19988612.414    19454641.504 6 -59632476.907 6
 86  6 20  1 14 47.0800000  0  3G 6G13G 9
  21659247.244    21659249.089    15922926.245 6  -7297641.086 7
  20769652.330    20769657.123    -8255323.156 8   6222036.472 6
  19988414.881    19988415.327    19453606.066 6 -59633283.740 5
 86  6 20  1 14 53.0800000  0  3G 6G13G 9
  21662284.366    21662287.511    15938890.500 7  -7285201.406 8
  20768191.593    20768195.338    -8262998.458 9   6216055.722 7
  19988221.311    19988223.433    19452594.936 6 -59634071.646 6
 86  6 20  1 14 59.0800000  0  3G 6G13G 9
  21665326.592    21665329.752    15954873.173 8  -7272747.378 7
  20766734.748    20766739.761    -8270653.946 8   6210090.410 6
  19988035.747    19988036.696    19451608.239 6 -59634840.490 6
 86  6 20  1 15  5.0800000  0  3G 6G13G 9
  21668369.577    21668373.996    15970874.226 8  -7260279.040 8
  20765280.185    20765286.203    -8278289.734 7   6204140.467 7
  19987851.465    19987853.348    19450645.921 6 -59635590.335 6
 86  6 20  1 15 11.0800000  0  3G 6G13G 9
  21671418.211    21671422.982    15986893.573 8  -7247796.415 7
  20763832.034    20763836.649    -8285905.754 8   6198205.910 6
  19987673.939    19987674.769    19449707.964 6 -59636321.209 6
 86  6 20  1 15 17.0800000  0  3G 6G13G 9
  21674470.405    21674474.536    16002931.309 7  -7235299.486 6
  20762385.240    20762392.344    -8293502.069 8   6192286.711 6
  19987498.131    19987500.407    19448794.541 6 -59637032.987 6
 86  6 20  1 15 23.0800000  0  3G 6G13G 9
  21677526.293    21677531.138    16018987.384 7  -7222788.273 6
  20760944.158    20760949.071    -8301078.602 8   6186382.926 7
  19987329.235    19987331.500    19447905.477 6 -59637725.734 7
 86  6 20  1 15 29.0800000  0  3G 6G13G 9
  21680584.772    21680588.535    16035061.738 8  -7210262.803 6
  20759506.485    20759511.297    -8308635.460 7   6180494.483 6
  19987165.008    19987166.153    19447040.904 5 -59638399.425 7
 86  6 20  1 15 35.0800000  0  3G 6G13G 9
  21683646.473    21683650.248    16051154.396 8  -7197723.075 6
  20758074.516    20758078.216    -8316172.595 8   6174621.383 6
  19987003.494    19987005.623    19446200.666 6 -59639054.156 6
 86  6 20  1 15 41.0800000  0  3G 6G13G 9
  21686711.968    21686716.487    16067265.344 8  -7185169.094 7
  20756643.447    20756645.748    -8323689.985 8   6168763.702 6
  19986849.353    19986851.160    19445384.928 6 -59639689.789 6
 86  6 20  1 15 47.0800000  0  3G 6G13G 9
  21689782.295    21689785.041    16083394.563 8  -7172600.891 6
  20755218.492    20755220.362    -8331187.595 8   6162921.404 7
  19986698.514    19986702.421    19444593.583 6 -59640306.438 7
 86  6 20  1 15 53.0800000  0  3G 6G13G 9
  21692853.733    21692859.676    16099542.032 6  -7160018.452 6
  20753792.518    20753794.634    -8338665.535 7   6157094.447 6
  19986552.640    19986554.739    19443826.734 6 -59640903.970 6
 86  6 20  1 15 59.0800000  0  3G 6G13G 9
  21695929.643    21695932.474    16115707.741 8  -7147421.782 6
  20752374.077    20752378.892    -8346123.736 8   6151282.872 7
  19986411.918    19986414.489    19443084.418 5 -59641482.398 6
 86  6 20  1 16  5.0800000  0  3G 6G13G 9
  21699010.819    21699012.531    16131891.717 8  -7134810.908 6
  20750958.641    20750960.374    -8353562.236 7   6145486.642 8
  19986274.280    19986276.769    19442366.594 7 -59642041.728 7
 86  6 20  1 16 11.0800000  0  3G 6G13G 9
  21702094.429    21702096.391    16148093.891 8  -7122185.857 6
  20749546.752    20749548.751    -8360981.010 7   6139705.782 7
  19986142.266    19986142.414    19441673.337 6 -59642581.935 6
 86  6 20  1 16 17.0800000  0  3G 6G13G 9
  21705181.474    21705184.029    16164314.277 8  -7109546.600 7
  20748138.151    20748142.077    -8368380.095 8   6133940.275 7
  19986016.960    19986018.039    19441004.565 6 -59643103.061 6
 86  6 20  1 16 23.0800000  0  3G 6G13G 9
  21708272.094    21708274.581    16180552.881 8  -7096893.177 6
  20746733.992    20746736.850    -8375759.453 7   6128190.135 7
  19985894.735    19985894.989    19440360.288 6 -59643605.084 6
 86  6 20  1 16 29.0800000  0  3G 6G13G 9
  21711365.185    21711371.180    16196809.633 8  -7084225.594 6
  20745331.407    20745337.978    -8383119.149 7   6122455.311 6
  19985776.304    19985778.084    19439740.537 6 -59644088.007 5
 86  6 20  1 16 35.0800000  0  3G 6G13G 9
  21714463.070    21714464.104    16213084.463 7  -7071543.895 4
  20743935.244    20743938.399    -8390459.186 8   6116735.805 7
  19985661.764    19985662.445    19439145.277 6 -59644551.846 5
 86  6 20  1 16 41.0800000  0  3G 6G13G 9
  21717562.214    21717567.408    16229377.526 8  -7058848.034 7
  20742542.216    20742545.501    -8397779.507 8   6111031.670 6
  19985554.229    19985555.138    19438574.487 7 -59644996.617 6
 86  6 20  1 16 47.0800000  0  3G 6G13G 9
  21720666.978    21720671.031    16245688.734 8  -7046137.996 7
  20741153.706    20741157.259    -8405080.139 7   6105342.881 6
  19985448.914    19985451.918    19438028.335 6 -59645422.194 5
 86  6 20  1 16 53.0800000  0  3G 6G13G 9
  21723774.811    21723778.816    16262018.078 8  -7033413.839 7
  20739768.601    20739772.389    -8412361.123 8   6099669.389 6
  19985351.611    19985352.441    19437506.736 6 -59645828.617 6
 86  6 20  1 16 59.0800000  0  3G 6G13G 9
  21726884.824    21726888.293    16278365.505 8  -7020675.594 7
  20738386.272    20738389.848    -8419622.412 8   6094011.239 8
  19985258.322    19985258.220    19437009.734 6 -59646215.902 6
 86  6 20  1 17  5.0800000  0  3G 6G13G 9
  21729998.995    21730003.069    16294731.054 8  -7007923.212 6
  20737009.907    20737012.411    -8426864.057 7   6088368.406 6
  19985166.664    19985169.979    19436537.293 7 -59646584.026 6
 86  6 20  1 17 11.0800000  0  3G 6G13G 9
  21733116.625    21733120.036    16311114.635 7  -6995156.766 7
  20735634.065    20735638.900    -8434086.037 8   6082740.892 6
  19985081.648    19985083.342    19436089.473 7 -59646932.979 6
 86  6 20  1 17 17.0800000  0  3G 6G13G 9
  21736237.703    21736240.711    16327516.369 8  -6982376.205 6
  20734263.638    20734267.674    -8441288.326 8   6077128.720 6
  19985001.235    19985001.541    19435666.151 7 -59647262.848 6
 86  6 20  1 17 23.0800000  0  3G 6G13G 9
  21739361.398    21739365.197    16343936.157 7  -6969581.560 7
  20732898.254    20732900.156    -8448470.897 8   6071531.928 7
  19984926.468    19984926.570    19435267.538 7 -59647573.443 7
 86  6 20  1 17 29.0800000  0  3G 6G13G 9
  21742489.898    21742493.072    16360373.944 7  -6956772.904 6
  20731536.416    20731538.480    -8455633.809 8   6065950.439 6
  19984852.777    19984856.167    19434893.488 6 -59647864.918 6
 86  6 20  1 17 35.0800000  0  3G 6G13G 9
  21745621.246    21745624.406    16376829.732 7  -6943950.216 6
  20730177.298    20730179.514    -8462776.976 8   6060384.331 7
  19984785.729    19984786.473    19434544.126 5 -59648137.133 6
 86  6 20  1 17 41.0800000  0  3G 6G13G 9
  21748756.322    21748758.347    16393303.525 8  -6931113.508 7
  20728820.532    20728823.492    -8469900.440 8   6054833.590 7
  19984723.079    19984724.839    19434219.343 6 -59648390.199 7
 86  6 20  1 17 47.0800000  0  3G 6G13G 9
  21751894.582    21751895.851    16409795.357 8  -6918262.728 7
  20727469.567    20727471.031    -8477004.275 8   6049298.145 7
  19984666.091    19984668.669    19433919.250 6 -59648624.050 6
 86  6 20  1 17 53.0800000  0  3G 6G13G 9
  21755036.960    21755038.636    16426305.177 8  -6905397.959 6
  20726120.788    20726123.805    -8484088.461 8   6043778.003 7
  19984615.487    19984616.049    19433643.756 6 -59648838.730 6
 86  6 20  1 17 59.0800000  0  3G 6G13G 9
  21758182.202    21758184.712    16442833.024 9  -6892519.126 6
  20724776.987    20724779.856    -8491152.963 8   6038273.204 7
  19984565.877    19984568.962    19433393.029 5 -59649034.084 5
 86  6 20  1 18  5.0800000  0  3G 6G13G 9
  21761330.608    21761333.045    16459378.771 8  -6879626.363 6
  20723436.048    20723439.849    -8498197.830 8   6032783.681 5
  19984523.074    19984525.521    19433166.909 6 -59649210.298 5
 86  6 20  1 18 11.0800000  0  3G 6G13G 9
  21764482.611    21764485.581    16475942.468 8  -6866719.589 3
  20722099.705    20722098.707    -8505222.972 8   6027309.561 3
  19984487.033    19984487.018    19432965.531 6 -59649367.199 3
 86  6 20  1 18 17.0800000  0  3G 6G13G 9
  21767637.248    21767640.668    16492524.156 8  -6853798.808 6
  20720765.202    20720767.794    -8512228.428 8   6021850.767 6
  19984450.806    19984453.212    19432788.746 6 -59649504.966 5
 86  6 20  1 18 23.0800000  0  3G 6G13G 9
  21770796.166    21770798.809    16509123.768 8  -6840864.028 5
  20719436.857    20719437.310    -8519214.290 7   6016407.242 5
  19984421.434    19984425.929    19432636.775 6 -59649623.400 3
 86  6 20  1 18 29.0800000  0  3G 6G13G 9
  21773959.272    21773961.573    16525741.300 8  -6827915.311 6
  20718110.939    20718113.441    -8526180.530 7   6010979.019 6
  19984398.091    19984400.713    19432509.455 6 -59649722.573 6
 86  6 20  1 18 35.0800000  0  3G 6G13G 9
  21777123.085    21777127.388    16542376.587 9  -6814952.740 5
  20716789.079    20716792.777    -8533127.189 8   6005566.039 5
  19984380.444    19984382.475    19432406.788 5 -59649802.580 6
 86  6 20  1 18 41.0800000  0  3G 6G13G 9
  21780292.418    21780295.480    16559029.866 8  -6801976.157 5
  20715471.729    20715475.782    -8540054.124 8   6000168.423 5
  19984363.740    19984365.789    19432328.864 6 -59649863.306 3
 86  6 20  1 18 47.0800000  0  3G 6G13G 9
  21783465.428    21783468.723    16575700.951 8  -6788985.687 7
  20714155.940    20714160.771    -8546961.447 7   5994786.115 6
  19984354.704    19984356.213    19432275.635 5 -59649904.777 7
 86  6 20  1 18 53.0800000  0  3G 6G13G 9
  21786642.042    21786644.497    16592390.128 8  -6775981.127 7
  20712846.046    20712848.466    -8553848.871 8   5989419.315 6
  19984347.341    19984350.536    19432247.414 5 -59649926.754 6
 86  6 20  1 18 59.0800000  0  3G 6G13G 9
  21789821.502    21789821.637    16609097.101 8  -6762962.696 6
  20711538.446    20711540.690    -8560716.697 8   5984067.778 6
  19984347.291    19984349.953    19432243.889 6 -59649929.505 6
 86  6 20  1 19  5.0800000  0  3G 6G13G 9
  21793003.971    21793005.894    16625821.952 8  -6749930.337 7
  20710236.080    20710238.664    -8567564.873 8   5978731.542 8
  19984352.411    19984353.740    19432265.266 6 -59649912.857 6
 86  6 20  1 19 11.0800000  0  3G 6G13G 9
  21796190.231    21796189.996    16642564.485 8  -6736884.227 6
  20708935.089    20708938.461    -8574393.564 8   5973410.479 6
  19984361.987    19984362.021    19432311.305 6 -59649876.977 5
 86  6 20  1 19 17.0800000  0  3G 6G13G 9
  21799379.797    21799379.690    16659324.645 9  -6723824.371 5
  20707640.739    20707640.298    -8581202.795 8   5968104.602 6
  19984373.010    19984374.220    19432381.811 5 -59649822.041 4
 86  6 20  1 19 23.0800000  0  3G 6G13G 9
  21802572.910    21802571.351    16676102.812 8  -6710750.507 6
  20706347.075    20706350.810    -8587992.190 9   5962814.190 6
  19984394.627    19984393.167    19432477.342 6 -59649747.589 6
 86  6 20  1 19 29.0800000  0  3G 6G13G 9
  21805767.420    21805769.043    16692898.683 8  -6697662.851 5
  20705059.847    20705061.350    -8594762.056 8   5957538.975 6
  19984416.064    19984418.006    19432597.609 6 -59649653.896 4
 86  6 20  1 19 35.0800000  0  3G 6G13G 9
  21808967.802    21808967.499    16709712.309 8  -6684561.313 7
  20703775.226    20703776.966    -8601512.492 8   5952278.900 6
  19984446.907    19984443.992    19432742.689 7 -59649540.822 5
 86  6 20  1 19 41.0800000  0  3G 6G13G 9
  21812170.185    21812171.466    16726543.663 9  -6671445.992 7
  20702494.439    20702496.742    -8608243.271 9   5947034.157 7
  19984477.084    19984478.258    19432912.665 7 -59649408.397 5
 86  6 20  1 19 47.0800000  0  3G 6G13G 9
  21815376.308    21815379.522    16743392.741 9  -6658316.882 3
  20701217.657    20701217.584    -8614954.462 8   5941804.649 1
  19984515.786    19984514.794    19433107.358 7 -59649256.708 4
 86  6 20  1 19 53.0800000  0  3G 6G13G 9
  21818585.570    21818587.606    16760259.507 8  -6645173.941 6
  20699944.143    20699946.054    -8621646.014 8   5936590.466 6
  19984557.564    19984555.784    19433326.992 7 -59649085.533 7
 86  6 20  1 19 59.0800000  0  3G 6G13G 9
  21821799.000    21821803.363    16777144.020 7  -6632017.185 8
  20698674.315    20698675.076    -8628317.904 7   5931391.595 8
  19984604.354    19984604.474    19433571.437 7 -59648895.057 8
 86  6 20  1 20  5.0800000  0  3G 6G13G 9
  21825013.807    21825019.804    16794046.205 7  -6618846.652 8
  20697407.524    20697409.529    -8634970.211 8   5926207.989 6
  19984654.269    19984654.594    19433840.632 7 -59648685.299 7
 86  6 20  1 20 11.0800000  0  4G 6G13G 9G11
  21828234.430    21828239.185    16810966.028 8  -6605662.359 7
  20696145.394    20696148.078    -8641602.953 8   5921039.636 7
  19984709.965    19984709.877    19434134.754 7 -59648456.119 6
                  25023125.822   -16098994.149 1
 86  6 20  1 20 17.0800000  0  4G 6G13G 9G11
  21831457.193    21831461.165    16827903.521 8  -6592464.316 7
  20694886.955    20694890.180    -8648216.137 8   5915886.494 7
  19984770.041    19984771.318    19434453.708 6 -59648207.582 7
                  25200094.052   -16083836.828 1
 86  6 20  1 20 23.0800000  0  4G 6G13G 9G11
  21834683.681    21834688.350    16844858.620 8  -6579252.543 7
  20693633.194    20693635.888    -8654809.783 7   5910748.598 6
  19984834.326    19984835.796    19434797.489 7 -59647939.694 6
                  25076074.823   -16071883.328 1
 86  6 20  1 20 29.0800000  0  4G 6G13G 9G11
  21837915.249    21837917.975    16861831.349 8  -6566027.033 8
  20692382.315    20692383.688    -8661383.888 8   5905625.928 7
  19984905.859    19984906.578    19435166.108 6 -59647652.475 7
                  24950230.963   -16060277.854 1
 86  6 20  1 20 35.0800000  0  4G 6G13G 9G11
  21841145.956    21841149.526    16878821.734 8  -6552787.793 6
  20691135.240    20691134.935    -8667938.450 8   5900518.474 6
  19984979.585    19984978.811    19435559.637 6 -59647345.831 6
                  25127142.544   -16043878.820 1
 86  6 20  1 20 41.0800000  0  4G 6G13G 9G11
  21844383.617    21844386.290    16895829.654 8  -6539534.854 7
  20689891.599    20689891.857    -8674473.387 8   5895426.331 8
  19985061.639    19985060.230    19435978.026 6 -59647019.815 6
                  25004422.519   -16029720.492 1
 86  6 20  1 20 47.0800000  0  4G 6G13G 9G11
  21847625.188    21847624.971    16912855.183 7  -6526268.223 6
  20688651.282    20688653.091    -8680988.738 8   5890349.414 7
  19985144.421    19985143.651    19436421.319 6 -59646674.397 5
                  25179243.612   -16019685.497 1
 86  6 20  1 20 53.0800000  0  4G 6G13G 9G11
  21850867.943    21850867.622    16929898.283 8  -6512987.868 6
  20687414.505    20687416.144    -8687484.484 7   5885287.824 8
  19985232.799    19985233.677    19436889.576 5 -59646309.527 6
                  25056645.891   -16004883.601 1
 86  6 20  1 20 59.0800000  0  4G 6G13G 9G11
  21854114.060    21854113.544    16946958.936 8  -6499693.865 6
  20686181.428    20686185.436    -8693960.658 8   5880241.458 5
  19985327.917    19985328.716    19437382.765 6 -59645925.213 3
                  25235555.152   -15987228.944 1
 86  6 20  1 21  5.0800000  0  4G 6G13G 9G11
  21857363.844    21857362.989    16964037.143 7  -6486386.210 5
  20684952.264    20684957.334    -8700417.323 7   5875210.288 7
  19985425.790    19985426.555    19437900.765 7 -59645521.590 6
                  25112263.076   -15977614.263 1
 86  6 20  1 21 11.0800000  0  4G 6G13G 9G11
  21860616.445    21860616.377    16981132.853 7  -6473064.879 6
  20683726.482    20683731.909    -8706854.392 7   5870194.386 7
  19985528.267    19985531.813    19438443.752 7 -59645098.504 6
                  24989223.268   -15966672.967 1
 86  6 20  1 21 17.0800000  0  4G 6G13G 9G11
  21863874.427    21863875.029    16998246.075 8  -6459729.933 7
  20682505.971    20682511.184    -8713271.903 8   5865193.729 7
  19985637.023    19985639.721    19439011.679 7 -59644655.962 6
                  25166610.317   -15947776.596 1
 86  6 20  1 21 23.0800000  0  4G 6G13G 9G11
  21867132.638    21867136.453    17015376.792 9  -6446381.320 7
  20681289.342    20681294.181    -8719669.909 7   5860208.275 7
  19985750.036    19985753.479    19439604.573 7 -59644193.971 6
                  25044054.161   -15934296.931 1
 86  6 20  1 21 29.0800000  0  4G 6G13G 9G11
  21870395.592    21870398.994    17032525.006 8  -6433019.089 7
  20680075.554    20680080.277    -8726048.468 8   5855237.976 6
  19985866.274    19985870.176    19440222.424 6 -59643712.516 6
                  25220195.452   -15926564.526 1
 86  6 20  1 21 35.0800000  0  4G 6G13G 9G11
  21873662.742    21873667.628    17049690.677 9  -6419643.260 7
  20678865.610    20678870.286    -8732407.494 7   5850282.883 6
  19985988.375    19985992.508    19440865.176 6 -59643211.669 6
                  25098066.587   -15909294.324 1
 86  6 20  1 21 41.0800000  0  4G 6G13G 9G11
  21876931.763    21876937.214    17066873.861 8  -6406253.745 7
  20677659.425    20677662.745    -8738747.019 7   5845343.004 7
  19986117.366    19986120.690    19441532.903 7 -59642691.352 8
                  24976628.446   -15889938.339 1
 86  6 20  1 21 47.0800000  0  4G 6G13G 9G11
  21880205.490    21880209.750    17084074.431 7  -6392850.711 7
  20676456.534    20676460.930    -8745067.079 8   5840418.285 7
  19986247.737    19986251.038    19442225.575 6 -59642151.612 8
                  25153429.962   -15883364.183 1
 86  6 20  1 21 53.0800000  0  4G 6G13G 9G11
  21883481.785    21883485.692    17101292.428 8  -6379434.091 8
  20675258.080    20675261.606    -8751367.643 8   5835508.771 8
  19986382.789    19986387.929    19442943.292 6 -59641592.348 8
                  25029950.816   -15871644.880 1
 86  6 20  1 21 59.0800000  0  4G 6G13G 9G11
  21886762.110    21886766.468    17118527.771 7  -6366003.937 6
  20674062.400    20674067.050    -8757648.639 7   5830614.490 7
  19986525.021    19986529.715    19443685.939 5 -59641013.651 7
                  25209572.261   -15850251.174 1
 86  6 20  1 22  5.0800000  0  4G 6G13G 9G11
  21890044.881    21890049.102    17135780.595 8  -6352560.182 8
  20672871.070    20672875.109    -8763910.092 7   5825735.424 8
  19986670.384    19986675.964    19444453.612 6 -59640415.476 8
                  25084827.681   -15839028.662 1
 86  6 20  1 22 11.0800000  0  4G 6G13G 9G11
  21893331.008    21893335.769    17153050.736 8  -6339102.927 7
  20671683.157    20671686.949    -8770152.001 7   5820871.605 7
  19986821.859    19986826.762    19445246.355 5 -59639797.757 7
                  25261410.267   -15833598.844 1
 86  6 20  1 22 17.0800000  0  4G 6G13G 9G11
  21896620.584    21896623.580    17170338.288 8  -6325632.097 7
  20670498.667    20670501.833    -8776374.484 8   5816022.927 8
  19986979.175    19986982.141    19446063.931 4 -59639160.668 8
                  25138566.112   -15812392.072 1
 86  6 20  1 22 23.0800000  0  4G 6G13G 9G11
  21899915.461    21899916.600    17187643.182 7  -6312147.763 7
  20669317.746    20669322.394    -8782577.436 7   5811189.463 7
  19987137.221    19987141.022    19446906.595 4 -59638504.060 7
                  25017064.245   -15793364.044 1
 86  6 20  1 22 29.0800000  0  4G 6G13G 9G11
  21903210.405    21903212.270    17204965.404 8  -6298649.933 8
  20668142.740    20668144.862    -8788760.867 8   5806371.216 9
  19987301.965    19987306.644    19447774.315 5 -59637827.902 8
                  25193427.430   -15789092.477 1
 86  6 20  1 22 35.0800000  0  4G 6G13G 9G11
  21906509.599    21906513.327    17222304.913 8  -6285138.620 7
  20666969.713    20666971.891    -8794924.828 8   5801568.128 7
  19987471.721    19987475.570    19448667.077 6 -59637132.251 5
                  25069738.723   -15775398.453 1
 86  6 20  1 22 41.0800000  0  4G 6G13G 9G11
  21909814.001    21909814.634    17239661.726 7  -6271613.839 7
  20665800.097    20665803.052    -8801069.374 8   5796780.173 6
  19987646.550    19987651.992    19449584.864 4 -59636417.080 5
                  25249834.603   -15751507.411 1
 86  6 20  1 22 47.0800000  0  4G 6G13G 9G11
  21913118.724    21913121.472    17257035.824 9  -6258075.584 8
  20664634.756    20664637.432    -8807194.466 8   5792007.384 8
  19987826.378    19987830.133    19450527.693 5 -59635682.413 6
                  25126214.256   -15743616.847 1
 86  6 20  1 22 53.0800000  0  4G 6G13G 9G11
  21916427.738    21916429.133    17274427.244 8  -6244523.840 7
  20663472.563    20663476.046    -8813300.072 8   5787249.779 7
  19988012.474    19988014.481    19451495.629 6 -59634928.177 6
                  25001939.465   -15739165.013 1
 86  6 20  1 22 59.0800000  0  4G 6G13G 9G11
  21919741.804    21919742.858    17291835.876 9  -6230958.669 7
  20662312.521    20662318.312    -8819386.238 8   5782507.316 8
  19988202.663    19988202.810    19452488.508 7 -59634154.493 7
                  25182271.747   -15714032.257 1
 86  6 20  1 23  5.0800000  0  4G 6G13G 9G11
  21923055.930    21923058.902    17309261.727 8  -6217380.100 8
  20661159.719    20661164.538    -8825452.994 8   5777779.981 7
  19988394.686    19988396.670    19453506.480 6 -59633361.282 6
                  25060389.029   -15697008.038 1
 86  6 20  1 23 11.0800000  0  4G 6G13G 9G11
  21926376.750    21926378.232    17326704.809 8  -6203788.094 7
  20660009.878    20660013.872    -8831500.202 8   5773067.872 7
  19988594.247    19988595.816    19454549.472 7 -59632548.561 6
                  25236313.852   -15695039.059 1
 86  6 20  1 23 17.0800000  0  4G 6G13G 9G11
  21929698.135    21929701.475    17344165.150 8  -6190182.647 8
  20658863.716    20658866.013    -8837527.969 8   5768370.923 7
  19988797.164    19988798.473    19455617.598 7 -59631716.266 7
                  25114541.444   -15677439.893 1
 86  6 20  1 23 23.0800000  0  4G 6G13G 9G11
  21933025.149    21933027.518    17361642.646 9  -6176563.832 8
  20657720.668    20657723.508    -8843536.305 9   5763689.120 8
  19989003.154    19989006.194    19456710.767 6 -59630864.445 8
                  25295112.002   -15651051.514 1
 86  6 20  1 23 29.0800000  0  4G 6G13G 9G11
  21936353.910    21936359.105    17379137.370 8  -6162931.595 7
  20656580.909    20656583.014    -8849525.174 8   5759022.475 7
  19989217.569    19989222.041    19457829.117 7 -59629993.029 7
                  25170483.575   -15648455.321 1
 86  6 20  1 23 35.0800000  0  4G 6G13G 9G11
  21939686.830    21939690.016    17396649.262 9  -6149285.970 6
  20655445.670    20655446.186    -8855494.627 9   5754370.978 7
  19989435.049    19989438.835    19458972.547 7 -59629102.046 7
                  25045435.756   -15641908.929 1
 86  6 20  1 23 41.0800000  0  4G 6G13G 9G11
  21943020.640    21943027.005    17414178.270 8  -6135627.032 6
  20654314.055    20654315.522    -8861444.639 8   5749734.605 7
  19989656.122    19989661.935    19460140.982 5 -59628191.576 6
                  25225363.332   -15614278.837 1
 86  6 20  1 23 47.0800000  0  4G 6G13G 9G11
  21946361.348    21946368.424    17431724.428 9  -6121954.698 6
  20653184.119    20653184.595    -8867375.216 8   5745113.374 6
  19989884.042    19989889.261    19461334.589 5 -59627261.495 6
                  25096030.165   -15593291.179 1
 86  6 20  1 23 53.0800000  0  4G 6G13G 9G11
  21949702.861    21949708.565    17449287.738 7  -6108269.013 6
  20652059.948    20652060.868    -8873286.409 8   5740507.262 6
  19990115.363    19990117.881    19462553.407 6 -59626311.747 6
                  25251143.039   -15579029.038 1
 86  6 20  1 23 59.0800000  0  4G 6G13G 9G11
  21953048.299    21953052.923    17466868.129 8  -6094569.990 7
  20650937.829    20650939.796    -8879178.140 8   5735916.307 7
  19990352.832    19990356.598    19463797.175 4 -59625342.589 7
                  25109850.932   -15565441.253 1
 86  6 20  1 24  5.0800000  0  4G 6G13G 9G11
  21956396.010    21956402.272    17484465.650 8  -6080857.669 6
  20649820.220    20649824.312    -8885050.374 8   5731340.540 6
  19990595.890    19990597.509    19465066.116 6 -59624353.795 6
                  25268257.483   -15552351.271 1
 86  6 20  1 24 11.0800000  0  4G 6G13G 9G11
  21959749.619    21959753.047    17502080.202 7  -6067132.040 5
  20648706.629    20648709.025    -8890903.149 8   5726779.927 5
  19990843.550    19990845.324    19466360.186 5 -59623345.443 5
                  25122171.054   -15537782.844 1
 86  6 20  1 24 17.0800000  0  4G 6G13G 9G11
  21963103.145    21963106.004    17519711.832 8  -6053393.088 6
  20647595.791    20647598.440    -8896736.611 8   5722234.384 6
  19991092.777    19991094.925    19467679.434 4 -59622317.431 5
                  25281624.680   -15522265.079 1
 86  6 20  1 24 23.0800000  0  4G 6G13G 9G11
  21966462.654    21966466.031    17537360.549 8  -6039640.868 7
  20646489.429    20646493.443    -8902550.672 8   5717703.945 5
  19991348.349    19991349.552    19469023.805 6 -59621269.888 4
                  25131733.973   -15509206.201 1
 86  6 20  1 24 29.0800000  0  4G 6G13G 9G11
  21969825.543    21969827.367    17555026.262 8  -6025875.370 6
  20645387.592    20645390.231    -8908345.268 8   5713188.686 6
  19991607.725    19991609.309    19470393.374 7 -59620202.676 4
                  25288750.456   -15497260.557 1
 86  6 20  1 24 35.0800000  0  4G 6G13G 9G11
  21973191.021    21973191.223    17572709.031 8  -6012096.619 4
  20644288.548    20644291.217    -8914120.512 8   5708688.496 5
  19991874.690    19991875.834    19471788.072 6 -59619115.911 5
                  25132564.349   -15481859.943 1
 86  6 20  1 24 41.0800000  0  4G 6G13G 9G11
  21976557.396    21976558.644    17590408.799 7  -5998304.592 6
  20643194.634    20643194.995    -8919876.381 8   5704203.410 7
  19992143.305    19992147.363    19473207.974 5 -59618009.486 6
                  25289327.273   -15465086.555 1
 86  6 20  1 24 47.0800000  0  4G 6G13G 9G11
  21979930.190    21979929.506    17608125.505 9  -5984499.376 6
  20642101.212    20642103.320    -8925612.869 8   5699733.430 7
  19992418.996    19992419.581    19474652.989 6 -59616883.487 5
                  25127095.683   -15452200.588 1
 86  6 20  1 24 53.0800000  0  4G 6G13G 9G11
  21983304.844    21983304.053    17625859.200 8  -5970680.931 5
  20641012.057    20641015.071    -8931329.934 8   5695278.560 6
  19992697.604    19992702.301    19476123.252 5 -59615737.820 5
                  25280376.653   -15441399.284 1
 86  6 20  1 24 59.0800000  0  4G 6G13G 9G11
  21986682.857    21986682.281    17643609.862 8  -5956849.262 6
  20639928.198    20639931.540    -8937027.587 8   5690838.852 7
  19992983.439    19992984.564    19477618.725 6 -59614572.536 7
                  25124425.406   -15426310.464 1
 86  6 20  1 25  5.0800000  0  4G 6G13G 9G11
  21990063.234    21990063.412    17661377.472 9  -5943004.374 5
  20638848.124    20638850.177    -8942705.885 7   5686414.217 6
  19993274.014    19993273.735    19479139.300 5 -59613387.664 6
                  25279082.820   -15408281.452 1
 86  6 20  1 25 11.0800000  0  4G 6G13G 9G11
  21993447.714    21993449.585    17679161.986 9  -5929146.345 6
  20637771.692    20637776.577    -8948364.836 8   5682004.634 4
  19993567.721    19993570.400    19480685.039 6 -59612183.202 5
                  25132500.458   -15394776.410 1
 86  6 20  1 25 17.0800000  0  4G 6G13G 9G11
  21996833.946    21996836.079    17696963.343 9  -5915275.154 6
  20636698.347    20636700.316    -8954004.509 8   5677610.095 6
  19993865.452    19993868.804    19482256.033 6 -59610959.058 4
                  25291718.497   -15385119.444 1
 86  6 20  1 25 23.0800000  0  4G 6G13G 9G11
  22000225.360    22000226.979    17714781.634 8  -5901390.778 7
  20635627.733    20635631.924    -8959624.886 8   5673230.594 8
  19994169.952    19994171.960    19483852.187 6 -59609715.291 7
                  25146395.223   -15369622.430 1
 86  6 20  1 25 29.0800000  0  4G 6G13G 9G11
  22003620.106    22003620.813    17732616.796 9  -5887493.267 6
  20634561.527    20634565.595    -8965225.896 8   5668866.174 7
  19994478.793    19994482.999    19485473.646 6 -59608451.827 6
                  25293671.312   -15350337.795 1
 86  6 20  1 25 35.0800000  0  4G 6G13G 9G11
  22007017.366    22007020.091    17750468.810 8  -5873582.607 5
  20633499.830    20633502.264    -8970807.557 8   5664516.831 6
  19994792.043    19994794.763    19487120.278 6 -59607168.736 6
                  25147292.005   -15337305.660 1
 86  6 20  1 25 41.0800000  0  4G 6G13G 9G11
  22010417.048    22010419.510    17768337.608 9  -5859658.848 6
  20632440.119    20632445.667    -8976369.886 8   5660182.568 6
  19995108.645    19995112.512    19488792.140 5 -59605865.988 6
                  25302190.285   -15328793.033 1
 86  6 20  1 25 47.0800000  0  4G 6G13G 9G11
  22013821.312    22013823.006    17786223.326 8  -5845721.926 5
  20631387.028    20631391.268    -8981912.866 7   5655863.367 7
  19995432.219    19995433.571    19490489.095 5 -59604543.662 5
                  25171699.411   -15312343.834 1
 86  6 20  1 25 53.0800000  0  4G 6G13G 9G11
  22017227.661    22017229.474    17804125.813 8  -5831771.925 7
  20630337.265    20630339.111    -8987436.471 8   5651559.263 6
  19995759.536    19995762.263    19492211.359 6 -59603201.647 7
                  25324490.390   -15291803.575 1
 86  6 20  1 25 59.0800000  0  4G 6G13G 9G11
  22020640.045    22020641.065    17822045.155 8  -5817808.818 7
  20629290.453    20629292.770    -8992940.797 8   5647270.187 6
  19996091.456    19996095.359    19493958.855 7 -59601839.968 7
                  25178628.928   -15280668.324 1
 86  6 20  1 26  5.0800000  0  4G 6G13G 9G11
  22024053.076    22024053.792    17839981.200 9  -5803832.674 7
  20628245.596    20628248.640    -8998425.882 7   5642996.091 5
  19996430.179    19996432.029    19495731.550 6 -59600458.644 2
                  25327447.675   -15273300.037 1
 86  6 20  1 26 11.0800000  0  4G 6G13G 9G11
  22027469.305    22027469.555    17857934.009 9  -5789843.474 7
  20627205.298    20627208.184    -9003891.644 8   5638737.067 6
  19996771.080    19996773.350    19497529.580 6 -59599057.579 5
                  25186050.699   -15255642.656 1
 86  6 20  1 26 17.0800000  0  4G 6G13G 9G11
  22030888.166    22030889.260    17875903.598 8  -5775841.219 7
  20626168.470    20626171.984    -9009338.062 7   5634493.118 6
  19997119.760    19997121.273    19499352.878 5 -59597636.842 5
                  25349044.247   -15233846.774 1
 86  6 20  1 26 23.0800000  0  4G 6G13G 9G11
  22034310.467    22034310.683    17893889.921 9  -5761825.903 7
  20625136.241    20625139.939    -9014765.099 8   5630264.254 7
  19997471.600    19997472.506    19501201.401 6 -59596196.430 6
                  25189583.208   -15224884.404 1
 86  6 20  1 26 29.0800000  0  4G 6G13G 9G11
  22037735.830    22037736.331    17911892.936 9  -5747797.596 7
  20624106.184    20624109.081    -9020172.915 9   5626050.376 8
  19997826.473    19997828.367    19503075.134 5 -59594736.377 6
                  25330564.339   -15218660.456 1
 86  6 20  1 26 35.0800000  0  4G 6G13G 9G11
  22041165.218    22041163.507    17929912.688 8  -5733756.233 3
  20623082.247    20623083.747    -9025561.463 7   5621851.518 3
  19998189.206    19998189.787    19504974.239 6 -59593256.564 3
                  25192666.109   -15201106.873 1
 86  6 20  1 26 41.0800000  0  4G 6G13G 9G11
  22044594.471    22044597.494    17947949.039 8  -5719701.945 6
  20622060.362    20622061.969    -9030930.704 8   5617667.708 6
  19998555.397    19998555.445    19506898.595 6 -59591757.072 6
                  25356190.728   -15178055.367 1
 86  6 20  1 26 47.0800000  0  4G 6G13G 9G11
  22048029.764    22048031.775    17966002.155 8  -5705634.609 5
  20621041.723    20621045.000    -9036280.736 8   5613498.845 5
  19998928.194    19998927.332    19508848.276 6 -59590237.845 6
                  25206061.007   -15169333.907 1
 86  6 20  1 26 53.0800000  0  4G 6G13G 9G11
  22051468.258    22051469.831    17984071.911 8  -5691554.261 6
  20620027.304    20620028.412    -9041611.581 9   5609344.965 6
  19999301.816    19999302.899    19510823.170 6 -59588698.972 5
                  25365287.403   -15164254.299 1
 86  6 20  1 26 59.0800000  0  4G 6G13G 9G11
  22054909.642    22054911.135    18002158.277 8  -5677460.986 7
  20619016.008    20619018.463    -9046923.134 9   5605206.084 7
  19999684.521    19999684.278    19512823.499 7 -59587140.292 7
                  25217597.214   -15142708.578 1
 86  6 20  1 27  5.0800000  0  4G 6G13G 9G11
  22058355.059    22058357.430    18020261.307 8  -5663354.751 6
  20618008.579    20618012.285    -9052215.350 8   5601082.298 6
  20000069.255    20000069.548    19514848.898 6 -59585562.057 6
                  25376380.023   -15118401.449 1
 86  6 20  1 27 11.0800000  0  4G 6G13G 9G11
  22061803.597    22061803.850    18038380.941 8  -5649235.560 6
  20617005.264    20617008.052    -9057488.291 8   5596973.509 7
  20000458.394    20000460.873    19516899.690 7 -59583964.030 6
                  25232605.454   -15111696.872 1
 86  6 20  1 27 17.0800000  0  4G 6G13G 9G11
  22065255.555    22065254.849    18056517.116 9  -5635103.461 7
  20616004.393    20616008.375    -9062742.017 8   5592879.700 7
  20000852.315    20000854.044    19518975.849 6 -59582346.253 6
                  25393959.053   -15107761.602 1
 86  6 20  1 27 23.0800000  0  4G 6G13G 9G11
  22068711.464    22068709.602    18074669.872 9  -5620958.486 7
  20615008.444    20615012.735    -9067976.529 7   5588800.859 7
  20001250.582    20001254.653    19521077.194 6 -59580708.838 5
                  25257765.632   -15082783.734 1
 86  6 20  1 27 29.0800000  0  4G 6G13G 9G11
  22072168.783    22072168.737    18092839.158 8  -5606800.602 7
  20614017.091    20614019.970    -9073191.777 8   5584737.037 7
  20001656.807    20001661.568    19523203.858 6 -59579051.685 7
                  25119576.950   -15059050.250 1
 86  6 20  1 27 35.0800000  0  4G 6G13G 9G11
  22075629.293    22075629.448    18111025.024 9  -5592629.805 8
  20613027.880    20613030.789    -9078387.817 7   5580688.180 8
  20002066.017    20002069.810    19525355.850 6 -59577374.793 6
                  25273090.042   -15056273.229 1
 86  6 20  1 27 41.0800000  0  4G 6G13G 9G11
  22079093.600    22079093.338    18129227.431 9  -5578446.136 8
  20612043.518    20612045.552    -9083564.668 7   5576654.273 7
  20002481.942    20002484.565    19527533.152 5 -59575678.205 7
                  25129782.598   -15050196.775 1
 86  6 20  1 27 47.0800000  0  4G 6G13G 9G11
  22082559.874    22082559.667    18147446.252 9  -5564249.658 6
  20611062.198    20611064.044    -9088722.346 9   5572635.315 5
  20002899.400    20002901.802    19529735.871 6 -59573961.805 5
                  25288454.369   -15023392.310 1
 86  6 20  1 27 53.0800000  0  4G 6G13G 9G11
  22086029.939    22086031.066    18165681.596 9  -5550040.329 7
  20610084.226    20610085.477    -9093860.815 8   5568631.317 6
  20003326.500    20003325.413    19531963.827 5 -59572225.738 5
                  25138733.886   -14998656.690 1
 86  6 20  1 27 59.0800000  0  4G 6G13G 9G11
  22089502.908    22089503.814    18183933.432 9  -5535818.109 7
  20609110.113    20609112.871    -9098980.036 7   5564642.324 7
  20003755.196    20003755.010    19534217.112 6 -59570469.927 6
                  25244429.592   -14983824.216 1
 86  6 20  1 28  5.0800000  0  4G 6G13G 9G11
  22092977.747    22092981.587    18202201.718 7  -5521583.085 7
  20608137.992    20608141.628    -9104080.024 7   5560668.299 7
  20004186.872    20004188.941    19536495.842 6 -59568694.302 6
                  25350420.584   -14968977.831 1
 86  6 20  1 28 11.0800000  0  4G 6G13G 9G11
  22096456.156    22096460.212    18220486.429 8  -5507335.266 7
  20607170.625    20607173.501    -9109160.873 7   5556709.209 6
  20004626.144    20004627.909    19538799.879 4 -59566898.942 6
                  25358315.040   -14953453.371 3
 86  6 20  1 28 17.0800000  0  4G 6G13G 9G11
  22099938.565    22099943.591    18238787.562 8  -5493074.629 7
  20606207.383    20606212.604    -9114222.532 8   5552765.055 7
  20005067.554    20005070.368    19541129.229 6 -59565083.885 7
                  24972053.895   -19029515.940 3
 86  6 20  1 28 23.0800000  0  4G 6G13G 9G11
  22103424.214    22103428.378    18257105.067 8  -5478801.249 8
  20605247.547    20605252.735    -9119265.037 8   5548835.846 8
  20005516.227    20005519.572    19543483.928 5 -59563249.056 8
                  25150817.202   -19013846.918 3
 86  6 20  1 28 29.0800000  0  4G 6G13G 9G11
  22106912.517    22106917.148    18275439.025 8  -5464515.057 6
  20604293.791    20604296.178    -9124288.347 8   5544921.574 7
  20005969.571    20005969.930    19545863.972 5 -59561394.466 7
                  25028498.483   -18998795.997 3
 86  6 20  1 28 35.0800000  0  4G 6G13G 9G11
  22110406.202    22110407.210    18293789.301 8  -5450216.149 7
  20603341.179    20603343.781    -9129292.494 8   5541022.240 8
  20006424.632    20006429.666    19548269.355 5 -59559520.142 7
                  25206159.410   -18984298.621 3
 86  6 20  1 28 41.0800000  0  4G 6G13G 9G11
  22113903.182    22113902.679    18312155.987 9  -5435904.454 6
  20602393.329    20602393.593    -9134277.523 8   5537137.802 7
  20006888.956    20006893.064    19550700.201 5 -59557625.992 6
                  25084106.987   -18967842.552 3
 86  6 20  1 28 47.0800000  0  4G 6G13G 9G11
  22117400.421    22117400.464    18330539.019 8  -5421580.036 7
  20601447.598    20601450.924    -9139243.381 7   5533268.315 7
  20007358.908    20007360.657    19553156.370 3 -59555712.070 7
                  24962369.530   -18951277.711 3
 86  6 20  1 28 53.0800000  0  4G 6G13G 9G11
  22120903.972    22120901.488    18348938.362 9  -5407242.895 8
  20600507.047    20600508.635    -9144190.172 8   5529413.683 8
  20007828.660    20007832.231    19555637.927 6 -59553778.402 7
                  25138931.970   -18937937.817 3
 86  6 20  1 28 59.0800000  0  4G 6G13G 9G11
  22124408.902    22124407.672    18367354.007 8  -5392893.067 7
  20599569.280    20599570.461    -9149117.852 7   5525573.923 8
  20008307.906    20008310.674    19558144.860 4 -59551824.957 6
                  25016929.176   -18922758.669 3
 86  6 20  1 29  5.0800000  0  4G 6G13G 9G11
  22127916.078    22127913.664    18385785.974 8  -5378530.502 6
  20598635.065    20598636.870    -9154026.372 8   5521749.119 6
  20008786.007    20008792.092    19560677.150 5 -59549851.728 6
                  25194410.495   -18904590.517 3
 86  6 20  1 29 11.0800000  0  4G 6G13G 9G11
  22131426.193    22131424.994    18404234.216 8  -5364155.267 8
  20597704.134    20597706.950    -9158915.727 7   5517939.237 6
  20009272.722    20009277.508    19563234.829 5 -59547858.723 6
                  25071347.401   -18890369.530 3
 86  6 20  1 29 17.0800000  0  4G 6G13G 9G11
  22134939.089    22134938.416    18422698.685 9  -5349767.375 8
  20596776.432    20596780.177    -9163785.972 8   5514144.236 7
  20009765.104    20009769.601    19565817.918 5 -59545845.930 6
                  25248570.466   -18878172.949 3
 86  6 20  1 29 23.0800000  0  4G 6G13G 9G11
  22138455.081    22138455.666    18441179.371 8  -5335366.845 7
  20595852.872    20595856.292    -9168637.140 8   5510364.106 6
  20010263.144    20010266.062    19568426.466 6 -59543813.276 7
                  25126413.498   -18859192.636 3
 86  6 20  1 29 29.0800000  0  4G 6G13G 9G11
  22141973.111    22141975.752    18459676.308 8  -5320953.639 7
  20594934.373    20594937.772    -9173469.131 8   5506598.915 7
  20010764.980    20010766.465    19571060.285 7 -59541760.946 7
                  25004568.868   -18841645.756 3
 86  6 20  1 29 35.0800000  0  4G 6G13G 9G11
  22145496.094    22145500.409    18478189.459 8  -5306527.796 8
  20594020.105    20594020.222    -9178281.981 8   5502848.640 6
  20011270.658    20011271.781    19573719.586 6 -59539688.765 6
                  25182451.831   -18830606.656 3
 86  6 20  1 29 41.0800000  0  4G 6G13G 9G11
  22149023.947    22149025.599    18496718.781 7  -5292089.362 6
  20593107.923    20593108.681    -9183075.772 8   5499113.218 6
  20011783.369    20011783.256    19576404.323 6 -59537596.767 6
                  25060602.673   -18814623.237 3
 86  6 20  1 29 47.0800000  0  4G 6G13G 9G11
  22152553.652    22152555.577    18515264.304 7  -5277638.309 6
  20592198.901    20592199.974    -9187850.498 8   5495392.661 6
  20012298.625    20012299.036    19579114.379 6 -59535485.041 6
                  25239438.171   -18793955.954 3
 86  6 20  1 29 53.0800000  0  4G 6G13G 9G11
  22156086.176    22156086.838    18533825.948 8  -5263174.693 6
  20591293.726    20591294.159    -9192606.159 8   5491686.937 6
  20012818.905    20012817.713    19581849.870 6 -59533353.514 6
                  25116553.028   -18781880.878 3
 86  6 20  1 29 59.0800000  0  4G 6G13G 9G11
  22159622.032    22159622.525    18552403.759 8  -5248698.484 7
  20590393.755    20590394.209    -9197342.791 9   5487996.075 6
  20013341.598    20013345.476    19584610.850 6 -59531202.097 7
                  24993744.229   -18770942.321 3
 86  6 20  1 30  5.0800000  0  4G 6G13G 9G11
  22163159.660    22163161.396    18570997.657 9  -5234209.760 5
  20589495.772    20589494.833    -9202060.309 9   5484320.087 4
  20013870.174    20013877.053    19587397.126 5 -59529030.975 6
                  25173695.516   -18749032.558 3
 86  6 20  1 30 11.0800000  0  4G 6G13G 9G11
  22166701.190    22166700.573    18589607.699 9  -5219708.439 6
  20588601.549    20588600.752    -9206758.784 8   5480658.957 6
  20014406.824    20014410.498    19590208.877 5 -59526839.978 6
                  25052029.809   -18732083.615 3
 86  6 20  1 30 17.0800000  0  4G 6G13G 9G11
  22170244.013    22170246.227    18608233.773 7  -5205194.623 5
  20587710.700    20587710.971    -9211438.211 7   5477012.650 5
  20014944.615    20014951.139    19593046.076 5 -59524629.194 6
                  25229474.969   -18723345.311 3
 86  6 20  1 30 23.0800000  0  4G 6G13G 9G11
  22173791.767    22173792.876    18626875.957 8  -5190668.279 6
  20586823.219    20586824.581    -9216098.624 8   5473381.162 6
  20015490.836    20015495.480    19595908.604 5 -59522398.655 4
                  25107198.980   -18704989.645 3
 86  6 20  1 30 29.0800000  0  4G 6G13G 9G11
  22177342.213    22177345.138    18645534.231 8  -5176129.358 6
  20585939.246    20585941.133    -9220739.987 8   5469764.516 6
  20016041.063    20016043.493    19598796.618 3 -59520148.219 5
                  25287388.643   -18681823.232 3
 86  6 20  1 30 35.0800000  0  4G 6G13G 9G11
  22180894.668    22180898.589    18664208.574 9  -5161577.957 6
  20585058.287    20585060.715    -9225362.353 7   5466162.692 7
  20016596.069    20016599.471    19601710.076 6 -59517877.998 5
                  25162916.755   -18673466.044 3
 86  6 20  1 30 41.0800000  0  4G 6G13G 9G11
  22184450.908    22184454.961    18682898.913 7  -5147014.045 7
  20584184.481    20584186.563    -9229965.660 7   5462575.704 6
  20017155.406    20017158.520    19604648.928 5 -59515588.016 5
                  25039328.790   -18662003.211 3
 86  6 20  1 30 47.0800000  0  4G 6G13G 9G11
  22188011.654    22188013.938    18701605.263 8  -5132437.658 6
  20583311.347    20583314.135    -9234550.015 8   5459003.484 6
  20017718.583    20017723.036    19607613.327 5 -59513278.084 5
                  25219755.098   -18637594.316 3
 86  6 20  1 30 53.0800000  0  4G 6G13G 9G11
  22191573.870    22191577.747    18720327.592 7  -5117848.833 6
  20582443.911    20582447.231    -9239115.337 8   5455446.096 6
  20018290.254    20018292.704    19610603.175 6 -59510948.316 6
                  25096851.106   -18622535.290 3
 86  6 20  1 30 59.0800000  0  4G 6G13G 9G11
  22195140.572    22195142.948    18739065.908 6  -5103247.535 7
  20581578.732    20581579.869    -9243661.604 7   5451903.552 7
  20018862.826    20018865.291    19613618.478 6 -59508598.738 5
                  25272100.133   -18616097.779 3
 86  6 20  1 31  5.0800000  0  4G 6G13G 9G11
  22198709.136    22198711.915    18757820.129 7  -5088633.863 7
  20580716.346    20580718.666    -9248188.894 8   5448375.812 6
  20019440.741    20019445.235    19616659.156 6 -59506229.364 7
                  25151044.273   -18594409.882 3
 86  6 20  1 31 11.0800000  0  4G 6G13G 9G11
  22202281.894    22202283.672    18776590.270 8  -5074007.778 7
  20579859.892    20579863.716    -9252697.111 8   5444862.916 5
  20020023.748    20020027.398    19619725.266 6 -59503840.199 5
                  25030713.368   -18570449.052 3
 86  6 20  1 31 17.0800000  0  4G 6G13G 9G11
  22205856.325    22205857.302    18795376.381 7  -5059369.250 7
  20579005.236    20579007.090    -9257186.379 7   5441364.797 5
  20020611.105    20020615.097    19622816.837 6 -59501431.168 6
                  25207499.660   -18565169.023 3
 86  6 20  1 31 23.0800000  0  4G 6G13G 9G11
  22209434.196    22209436.519    18814178.392 8  -5044718.341 6
  20578154.011    20578156.217    -9261656.759 8   5437881.391 6
  20021207.510    20021207.029    19625933.802 7 -59499002.373 6
                  25085152.959   -18551805.935 3
 86  6 20  1 31 29.0800000  0  4G 6G13G 9G11
  22213015.555    22213018.181    18832996.244 9  -5030055.097 5
  20577305.492    20577307.933    -9266108.200 8   5434412.745 6
  20021805.368    20021807.979    19629076.353 5 -59496553.629 7
                  25266054.275   -18524897.912 3
 86  6 20  1 31 35.0800000  0  4G 6G13G 9G11
  22216599.185    22216599.613    18851830.000 8  -5015379.449 6
  20576463.617    20576464.688    -9270540.646 8   5430958.907 5
  20022408.314    20022410.547    19632244.400 6 -59494085.028 6
                  25143408.193   -18513104.780 3
 86  6 20  1 31 41.0800000  0  4G 6G13G 9G11
  22220185.626    22220188.031    18870679.623 9  -5000691.456 6
  20575621.574    20575625.546    -9274954.106 8   5427519.868 5
  20023016.993    20023017.274    19635437.815 7 -59491596.629 7
                  25319977.730   -18508968.064 3
 86  6 20  1 31 47.0800000  0  4G 6G13G 9G11
  22223776.762    22223778.223    18889545.005 8  -4985991.182 4
  20574787.761    20574790.114    -9279348.701 9   5424095.500 6
  20023628.172    20023629.821    19638656.718 6 -59489088.409 4
                  25199352.831   -18481931.966 3
 86  6 20  1 31 53.0800000  0  4G 6G13G 9G11
  22227368.695    22227368.992    18908426.271 9  -4971278.511 6
  20573954.741    20573956.561    -9283724.379 8   5420685.881 7
  20024246.771    20024245.995    19641901.082 6 -59486560.331 7
                  25072549.105   -18456570.037 3
 86  6 20  1 31 59.0800000  0  4G 6G13G 9G11
  22230964.139    22230965.657    18927323.315 9  -4956553.553 6
  20573125.940    20573125.569    -9288081.064 8   5417291.061 7
  20024868.167    20024868.263    19645170.980 7 -59484012.353 6
                  25225914.226   -18440391.009 3
 86  6 20  1 32  5.0800000  0  4G 6G13G 9G11
  22234563.452    22234565.945    18946236.167 8  -4941816.277 8
  20572300.104    20572303.614    -9292418.817 8   5413911.010 8
  20025495.454    20025494.320    19648466.393 7 -59481444.503 7
                  25075626.960   -18424470.089 3
 86  6 20  1 32 11.0800000  0  4G 6G13G 9G11
  22238164.249    22238168.787    18965164.795 8  -4927066.709 8
  20571478.585    20571480.972    -9296737.669 8   5410545.664 7
  20026128.333    20026126.433    19651787.292 5 -59478856.807 7
                  25231113.706   -18409462.710 3
 86  6 20  1 32 17.0800000  0  4G 6G13G 9G11
  22241769.023    22241774.840    18984109.147 8  -4912304.889 8
  20570659.527    20570662.900    -9301037.571 7   5407195.097 8
  20026765.756    20026763.696    19655133.589 7 -59476249.294 6
                  25084272.625   -18393912.614 3
 86  6 20  1 32 23.0800000  0  4G 6G13G 9G11
  22245378.361    22245382.566    19003069.221 8  -4897530.796 7
  20569845.284    20569848.336    -9305318.601 7   5403859.226 8
  20027405.281    20027406.132    19658505.420 7 -59473621.906 7
                  25235824.772   -18376476.939 3
 86  6 20  1 32 29.0800000  0  4G 6G13G 9G11
  22248988.404    22248994.063    19022045.067 7  -4882744.433 7
  20569032.195    20569037.541    -9309580.818 7   5400538.029 7
  20028052.019    20028052.487    19661902.828 6 -59470974.578 6
                  25089198.106   -18359807.920 3
 86  6 20  1 32 35.0800000  0  4G 6G13G 9G11
  22252603.884    22252607.907    19041036.586 8  -4867945.837 8
  20568225.394    20568229.390    -9313824.094 8   5397231.572 7
  20028703.208    20028704.413    19665325.591 7 -59468307.495 7
                  25243880.760   -18345943.854 3
 86  6 20  1 32 41.0800000  0  4G 6G13G 9G11
  22256221.857    22256224.286    19060043.780 9  -4853135.045 8
  20567420.869    20567424.302    -9318048.459 7   5393939.867 7
  20029360.746    20029361.606    19668773.917 7 -59465620.482 7
                  25106078.659   -18330640.529 3
 86  6 20  1 32 47.0800000  0  4G 6G13G 9G11
  22259841.590    22259844.988    19079066.629 9  -4838312.054 6
  20566621.567    20566624.659    -9322253.959 7   5390662.861 6
  20030019.194    20030021.345    19672247.705 7 -59462913.625 6
                  25254060.604   -18311948.205 3
 86  6 20  1 32 53.0800000  0  4G 6G13G 9G11
  22263466.226    22263465.900    19098105.157 9  -4823476.856 6
  20565823.110    20565826.114    -9326440.647 8   5387400.497 6
  20030685.391    20030686.874    19675747.018 6 -59460186.911 5
                  25097902.881   -18294543.087 3
 86  6 20  1 32 59.0800000  0  4G 6G13G 9G11
  22267091.304    22267093.280    19117159.278 9  -4808629.496 7
  20565030.446    20565034.297    -9330608.458 8   5384152.874 7
  20031357.302    20031360.132    19679271.785 6 -59457440.326 7
                  25239766.202   -18281822.335 3
 86  6 20  1 33  5.0800000  0  4G 6G13G 9G11
  22270721.085    22270720.489    19136229.039 8  -4793769.951 7
  20564243.710    20564246.422    -9334757.372 8   5380919.974 7
  20032033.211    20032033.017    19682822.116 6 -59454673.840 7
                  25089029.282   -18268269.756 3
 86  6 20  1 33 11.0800000  0  4G 6G13G 9G11
  22274351.460    22274351.920    19155314.371 9  -4778898.270 7
  20563456.205    20563458.339    -9338887.487 8   5377701.701 6
  20032716.304    20032714.257    19686397.994 6 -59451887.443 7
                  25238130.208   -18248320.783 3
 86  6 20  1 33 17.0800000  0  4G 6G13G 9G11
  22277985.419    22277987.003    19174415.284 7  -4764014.460 7
  20562673.470    20562676.532    -9342998.723 8   5374498.150 7
  20033400.970    20033401.413    19689999.313 6 -59449081.230 6
                  25102172.235   -18229479.578 3
 86  6 20  1 33 23.0800000  0  4G 6G13G 9G11
  22281622.470    22281624.566    19193531.788 9  -4749118.514 7
  20561896.626    20561898.682    -9347091.130 7   5371309.266 7
  20034088.159    20034089.324    19693626.234 6 -59446255.036 6
                  25258178.361   -18217902.140 3
 86  6 20  1 33 29.0800000  0  4G 6G13G 9G11
  22285263.599    22285265.365    19212663.802 7  -4734210.432 6
  20561120.495    20561122.923    -9351164.656 8   5368135.097 7
  20034783.934    20034786.466    19697278.674 6 -59443408.986 6
                  25118935.350   -18204004.342 3
 86  6 20  1 33 35.0800000  0  4G 6G13G 9G11
  22288906.225    22288908.436    19231811.345 8  -4719290.283 6
  20560349.142    20560350.822    -9355219.374 8   5364975.572 7
  20035484.860    20035485.490    19700956.527 6 -59440543.140 6
                  25277066.220   -18182798.721 3
 86  6 20  1 33 41.0800000  0  4G 6G13G 9G11
  22292553.149    22292555.408    19250974.347 8  -4704358.078 8
  20559581.971    20559583.902    -9359255.326 8   5361830.676 8
  20036189.049    20036190.827    19704659.857 5 -59437657.415 7
                  25127860.347   -18164281.400 3
 86  6 20  1 33 47.0800000  0  4G 6G13G 9G11
  22296204.121    22296204.162    19270152.909 8  -4689413.760 6
  20558817.006    20558817.910    -9363272.465 8   5358700.445 7
  20036897.486    20036899.685    19708388.806 6 -59434751.756 7
                  25279253.032   -18153847.276 3
 86  6 20  1 33 53.0800000  0  4G 6G13G 9G11
  22299855.898    22299856.035    19289346.878 8  -4674457.422 6
  20558056.331    20558056.487    -9367270.811 9   5355584.855 7
  20037612.051    20037615.861    19712143.229 6 -59431826.240 6
                  25126083.934   -18140756.239 3
 86  6 20  1 33 59.0800000  0  4G 6G13G 9G11
  22303512.921    22303513.293    19308556.293 8  -4659489.055 6
  20557299.375    20557300.133    -9371250.359 8   5352483.900 7
  20038330.958    20038333.761    19715923.204 5 -59428880.793 6
                  25282109.077   -18118293.969 3
 86  6 20  1 34  5.0800000  0  4G 6G13G 9G11
  22307170.843    22307172.619    19327781.182 9  -4644508.649 8
  20556544.210    20556545.082    -9375211.144 8   5349397.584 7
  20039055.218    20039059.314    19719728.660 6 -59425915.499 7
                  25140354.825   -18099120.548 3
 86  6 20  1 34 11.0800000  0  4G 6G13G 9G11
  22310831.729    22310833.291    19347021.497 8  -4629516.202 8
  20555795.359    20555794.802    -9379153.194 8   5346325.880 7
  20039784.233    20039787.203    19723559.689 6 -59422930.279 7
                  25294459.646   -18089829.737 3
 86  6 20  1 34 17.0800000  0  4G 6G13G 9G11
  22314494.615    22314497.940    19366277.168 8  -4614511.796 7
  20555048.827    20555047.399    -9383076.509 8   5343268.743 6
  20040518.962    20040521.465    19727416.253 6 -59419925.155 5
                  25141741.552   -18077449.463 3
 86  6 20  1 34 23.0800000  0  4G 6G13G 9G11
  22318162.116    22318163.768    19385548.229 7  -4599495.392 8
  20554304.947    20554304.137    -9386981.219 9   5340226.123 7
  20041256.900    20041260.019    19731298.328 5 -59416900.176 6
                  25304454.238   -18053730.546 3
 86  6 20  1 34 29.0800000  0  4G 6G13G 9G11
  22321832.469    22321835.555    19404834.642 8  -4584467.045 8
  20553565.128    20553565.141    -9390867.145 8   5337198.144 6
  20042000.753    20042002.207    19735205.881 5 -59413855.318 7
                  25160916.583   -18034681.013 3
 86  6 20  1 34 35.0800000  0  4G 6G13G 9G11
  22325505.174    22325508.111    19424136.384 8  -4569426.726 7
  20552829.158    20552829.263    -9394734.244 8   5334184.804 6
  20042751.443    20042752.984    19739139.001 5 -59410790.561 7
                  25306892.223   -18026533.517 3
 86  6 20  1 34 41.0800000  0  4G 6G13G 9G11
  22329180.337    22329183.787    19443453.451 8  -4554374.470 9
  20552096.241    20552098.501    -9398582.633 8   5331186.083 8
  20043500.982    20043503.911    19743097.668 6 -59407705.864 7
                  25160617.463   -18014168.017 3
 86  6 20  1 34 47.0800000  0  4G 6G13G 9G11
  22332859.042    22332863.993    19462785.803 7  -4539310.310 7
  20551367.844    20551370.147    -9402412.343 7   5328201.888 8
  20044260.336    20044261.622    19747081.798 6 -59404601.372 7
                  25313604.994   -17989192.452 3
 86  6 20  1 34 53.0800000  0  4G 6G13G 9G11
  22336540.573    22336544.084    19482133.473 8  -4524234.199 7
  20550642.287    20550644.208    -9406223.353 9   5325232.272 6
  20045023.837    20045024.835    19751091.391 5 -59401476.982 6
                  25173933.748   -17969846.812 3
 86  6 20  1 34 59.0800000  0  4G 6G13G 9G11
  22340225.210    22340230.631    19501496.445 8  -4509146.190 7
  20549921.181    20549924.456    -9410015.621 7   5322277.273 6
  20045790.508    20045794.362    19755126.638 4 -59398332.636 7
                  25328190.561   -17962842.630 3
 86  6 20  1 35  5.0800000  0  4G 6G13G 9G11
  22343912.462    22343917.672    19520874.661 8  -4494046.277 7
  20549204.290    20549206.660    -9413789.154 7   5319336.834 7
  20046563.331    20046566.962    19759187.336 5 -59395168.486 7
                  25175243.345   -17950123.910 3
 86  6 20  1 35 11.0800000  0  4G 6G13G 9G11
  22347605.166    22347608.883    19540268.087 7  -4478934.524 6
  20548488.440    20548492.637    -9417544.024 8   5316410.974 7
  20047339.889    20047344.935    19763273.651 5 -59391984.332 6
                  25342242.723   -17923891.695 3
 86  6 20  1 35 17.0800000  0  4G 6G13G 9G11
  22351297.787    22351302.151    19559676.717 8  -4463810.911 6
  20547778.355    20547779.729    -9421280.162 8   5313499.712 6
  20048123.064    20048126.044    19767385.547 6 -59388780.264 7
                  25196497.090   -17905673.927 3
 86  6 20  1 35 23.0800000  0  4G 6G13G 9G11
  22354995.291    22354997.177    19579100.615 8  -4448675.421 7
  20547070.950    20547072.090    -9424997.584 7   5310603.020 7
  20048911.018    20048914.157    19771522.920 6 -59385556.340 6
                  25347311.627   -17899813.058 3
 86  6 20  1 35 29.0800000  0  4G 6G13G 9G11
  22358694.652    22358696.136    19598539.647 8  -4433528.127 6
  20546366.680    20546367.269    -9428696.363 8   5307720.864 6
  20049701.616    20049706.275    19775685.928 5 -59382312.456 5
                  25203151.835   -17885581.137 3
 86  6 20  1 35 35.0800000  0  4G 6G13G 9G11
  22362397.285    22362399.445    19617993.867 8  -4418369.020 6
  20545665.543    20545668.457    -9432376.550 7   5304853.182 7
  20050501.805    20050504.642    19779874.442 5 -59379048.687 5
                  25367753.621   -17858092.275 3
 86  6 20  1 35 41.0800000  0  4G 6G13G 9G11
  22366102.456    22366102.869    19637463.264 8  -4403198.057 8
  20544969.588    20544970.236    -9436038.127 8   5302000.033 7
  20051303.402    20051305.584    19784088.495 6 -59375764.979 6
                  25220575.632   -17841234.376 3
 86  6 20  1 35 47.0800000  0  4G 6G13G 9G11
  22369808.050    22369810.315    19656947.809 9  -4388015.305 8
  20544276.600    20544278.395    -9439681.000 8   5299161.412 7
  20052107.371    20052112.308    19788328.047 5 -59372461.453 7
                  25372638.674   -17836516.822 3
 86  6 20  1 35 53.0800000  0  4G 6G13G 9G11
  22373519.926    22373521.600    19676447.459 7  -4372820.794 7
  20543586.421    20543587.011    -9443305.261 8   5296337.332 6
  20052919.936    20052924.269    19792593.119 7 -59369138.029 5
                  25213380.601   -17821539.686 3
 86  6 20  1 35 59.0800000  0  4G 6G13G 9G11
  22377232.632    22377235.183    19695962.141 8  -4357614.545 8
  20542899.337    20542902.899    -9446910.902 8   5293527.752 7
  20053735.858    20053739.721    19796883.768 6 -59365794.665 6
                  25376170.443   -17792794.175 3
 86  6 20  1 36  5.0800000  0  4G 6G13G 9G11
  22380947.247    22380950.274    19715491.935 8  -4342396.527 7
  20542216.181    20542220.608    -9450497.919 7   5290732.679 6
  20054556.800    20054558.255    19801199.959 6 -59362431.406 6
                  25208874.609   -17769237.204 3
 86  6 20  1 36 11.0800000  0  4G 6G13G 9G11
  22384666.901    22384669.434    19735036.801 9  -4327166.771 7
  20541537.948    20541540.385    -9454066.375 7   5287952.053 6
  20055384.137    20055387.767    19805541.789 7 -59359048.164 6
                  25316636.563   -17752463.171 3
 86  6 20  1 36 17.0800000  0  4G 6G13G 9G11
  22388389.419    22388391.512    19754596.703 8  -4311925.312 7
  20540862.955    20540865.267    -9457616.267 8   5285185.912 7
  20056215.162    20056216.661    19809909.090 6 -59355645.062 6
                  25422057.047   -17735674.971 3
 86  6 20  1 36 23.0800000  0  4G 6G13G 9G11
  22392113.536    22392116.522    19774171.615 8  -4296672.136 6
  20540190.041    20540193.451    -9461147.481 8   5282434.324 6
  20057052.026    20057050.704    19814301.948 6 -59352222.043 5
                  25240753.892   -17719504.872 3
 86  6 20  1 36 29.0800000  0  4G 6G13G 9G11
  22395844.488    22395844.246    19793761.523 7  -4281407.281 7
  20539522.475    20539523.997    -9464660.059 7   5279697.247 7
  20057893.001    20057893.411    19818720.340 6 -59348779.155 7
                  25345365.478   -17703888.320 3
 86  6 20  1 36 35.0800000  0  4G 6G13G 9G11
  22399574.665    22399574.967    19813366.437 7  -4266130.743 7
  20538856.818    20538860.289    -9468154.127 8   5276974.611 8
  20058739.004    20058738.657    19823164.333 6 -59345316.321 6
                  25440601.123   -17688257.601 3
 86  6 20  1 36 41.0800000  0  4G 6G13G 9G11
  22403309.953    22403308.612    19832986.326 7  -4250842.511 6
  20538196.982    20538197.201    -9471629.627 7   5274266.427 7
  20059590.233    20059591.499    19827633.886 6 -59341833.569 6
                  25253649.859   -17670972.184 3
 86  6 20  1 36 47.0800000  0  4G 6G13G 9G11
  22407045.014    22407044.701    19852621.157 8  -4235542.672 7
  20537539.052    20537540.105    -9475086.590 7   5271572.711 7
  20060445.974    20060447.993    19832128.993 6 -59338330.881 6
                  25376016.061   -17652913.170 3
 86  6 20  1 36 53.0800000  0  4G 6G13G 9G11
  22410785.343    22410784.184    19872270.964 8  -4220231.165 6
  20536884.394    20536886.682    -9478524.958 8   5268893.459 7
  20061304.789    20061307.954    19836649.652 6 -59334808.299 5
                  25475819.916   -17634839.988 3
 86  6 20  1 36 59.0800000  0  4G 6G13G 9G11
  22414527.552    22414526.381    19891935.609 8  -4204908.072 6
  20536232.925    20536235.370    -9481944.823 7   5266228.620 7
  20062170.898    20062172.592    19841195.835 6 -59331265.820 6
                  25290776.861   -17619849.428 3
 86  6 20  1 37  5.0800000  0  4G 6G13G 9G11
  22418272.182    22418271.076    19911615.179 9  -4189573.366 7
  20535585.230    20535589.159    -9485346.206 8   5263578.208 6
  20063039.177    20063043.668    19845767.539 6 -59327703.444 6
                  25392537.698   -17605347.856 3
 86  6 20  1 37 11.0800000  0  4G 6G13G 9G11
  22422019.686    22422019.557    19931309.654 8  -4174227.052 7
  20534942.346    20534944.660    -9488729.012 7   5260942.268 7
  20063916.273    20063917.359    19850364.894 6 -59324121.090 8
                  25203039.132   -17590671.005 3
 86  6 20  1 37 17.0800000  0  4G 6G13G 9G11
  22425769.254    22425769.751    19951018.961 7  -4158869.163 8
  20534301.184    20534305.921    -9492093.308 7   5258320.717 8
  20064793.774    20064797.308    19854987.768 6 -59320518.853 7
                  25310700.737   -17571341.174 3
 86  6 20  1 37 23.0800000  0  4G 6G13G 9G11
  22429520.918    22429524.213    19970743.065 8  -4143499.733 8
  20533664.175    20533669.071    -9495439.160 7   5255713.573 7
  20065677.240    20065681.865    19859636.163 6 -59316896.733 7
                  25429208.894   -17551997.177 3
 86  6 20  1 37 29.0800000  0  4G 6G13G 9G11
  22433276.378    22433280.621    19990482.006 7  -4128118.764 8
  20533030.601    20533035.436    -9498766.585 6   5253120.782 7
  20066566.573    20066571.047    19864310.122 6 -59313254.691 7
                  25254541.329   -17534840.373 3
 86  6 20  1 37 35.0800000  0  4G 6G13G 9G11
  22437034.336    22437039.674    20010235.772 7  -4112726.218 8
  20532400.564    20532406.979    -9502075.495 8   5250542.413 7
  20067460.912    20067464.102    19869009.654 5 -59309592.706 7
                  25384513.240   -17521467.947 3
 86  6 20  1 37 41.0800000  0  4G 6G13G 9G11
  22440794.834    22440801.868    20030004.290 7  -4097322.180 8
  20531774.982    20531779.035    -9505365.918 7   5247978.446 7
  20068360.395    20068363.445    19873734.686 6 -59305910.874 7
                  25217073.587   -17507911.687 3
 86  6 20  1 37 47.0800000  0  4G 6G13G 9G11
  22444561.817    22444566.518    20049787.570 7  -4081906.636 8
  20531151.151    20531155.898    -9508637.861 7   5245428.874 8
  20069265.945    20069267.936    19878485.264 6 -59302209.126 9
                  25351352.564   -17487311.042 3
 86  6 20  1 37 53.0800000  0  4G 6G13G 9G11
  22448327.849    22448333.576    20069585.606 6  -4066479.607 7
  20530532.088    20530536.307    -9511891.368 7   5242893.672 8
  20070175.202    20070176.476    19883261.382 5 -59298487.454 7
                  25471859.846   -17466696.230 3
 86  6 20  1 37 59.0800000  0  4G 6G13G 9G11
  22452097.755    22452104.780    20089398.375 8  -4051041.097 8
  20529916.998    20529921.337    -9515126.426 8   5240372.856 8
  20071088.581    20071090.716    19888063.116 6 -59294745.856 8
                  25294571.588   -17450997.126 3
 86  6 20  1 38  5.0800000  0  4G 6G13G 9G11
  22455872.861    22455878.073    20109225.838 8  -4035591.130 6
  20529305.677    20529308.657    -9518342.944 8   5237866.480 6
  20072006.430    20072009.309    19892890.482 5 -59290984.278 7
                  25405866.482   -17438753.849 3
 86  6 20  1 38 11.0800000  0  4G 6G13G 9G11
  22459649.636    22459653.292    20129068.023 7  -4020129.703 7
  20528696.059    20528699.884    -9521541.023 8   5235374.465 6
  20072930.246    20072931.538    19897743.318 5 -59287202.881 6
                  25507787.725   -17426496.404 3
 86  6 20  1 38 17.0800000  0  4G 6G13G 9G11
  22463427.816    22463431.683    20148924.824 8  -4004656.880 7
  20528091.689    20528094.116    -9524720.706 8   5232896.808 7
  20073857.548    20073858.917    19902621.694 6 -59283401.521 7
                  25321691.868   -17406254.688 3
 86  6 20  1 38 23.0800000  0  4G 6G13G 9G11
  22467210.817    22467213.251    20168796.331 7  -3989172.623 7
  20527491.610    20527494.610    -9527881.969 8   5230433.498 8
  20074789.088    20074792.410    19907525.620 4 -59279580.286 6
                  25438046.049   -17384369.061 3
 86  6 20  1 38 29.0800000  0  4G 6G13G 9G11
  22470994.402    22470997.015    20188682.428 8  -3973676.962 6
  20526893.457    20526896.239    -9531024.857 8   5227984.494 7
  20075729.245    20075728.202    19912455.019 5 -59275739.177 6
                  25256686.549   -17363875.754 3
 86  6 20  1 38 35.0800000  0  4G 6G13G 9G11
  22474779.231    22474782.241    20208583.175 8  -3958169.914 7
  20526298.491    20526302.223    -9534149.348 7   5225549.822 7
  20076672.405    20076672.714    19917410.139 4 -59271878.066 4
                  25374507.007   -17352761.623 3
 86  6 20  1 38 41.0800000  0  4G 6G13G 9G11
  22478569.342    22478572.648    20228498.521 7  -3942651.459 6
  20525709.484    20525709.515    -9537255.454 8   5223129.498 8
  20077616.700    20077619.019    19922390.742 5 -59267997.077 6
                  25493503.324   -17341633.325 3
 86  6 20  1 38 47.0800000  0  4G 6G13G 9G11
  22482362.955    22482365.987    20248428.433 8  -3927121.676 7
  20525121.395    20525123.002    -9540343.217 8   5220723.449 8
  20078570.103    20078573.174    19927396.883 4 -59264096.181 6
                  25319909.887   -17323448.185 3
 86  6 20  1 38 53.0800000  0  4G 6G13G 9G11
  22486157.355    22486160.163    20268372.919 7  -3911580.543 7
  20524537.694    20524538.570    -9543412.633 8   5218331.702 6
  20079528.753    20079533.616    19932428.478 3 -59260175.471 4
                  25442367.095   -17300291.743 3
 86  6 20  1 38 59.0800000  0  4G 6G13G 9G11
  22489954.826    22489958.301    20288331.915 7  -3896028.082 9
  20523957.435    20523957.990    -9546463.698 9   5215954.264 8
  20080492.522    20080496.263    19937485.722 4 -59256234.736 7
                  25266758.597   -17278840.174 3
 86  6 20  1 39  5.0800000  0  4G 6G13G 9G11
  22493756.306    22493759.137    20308305.494 7  -3880464.271 7
  20523380.654    20523381.581    -9549496.402 7   5213591.111 8
  20081459.099    20081462.094    19942568.568 4 -59252274.098 5
                  25386122.730   -17268855.191 3
 86  6 20  1 39 11.0800000  0  4G 6G13G 9G11
  22497560.491    22497564.749    20328293.586 8  -3864889.148 7
  20522805.001    20522807.879    -9552510.708 9   5211242.305 8
  20082431.341    20082434.451    19947676.877 5 -59248293.578 6
                  25503145.723   -17258856.041 3
 86  6 20  1 39 17.0800000  0  4G 6G13G 9G11
  22501366.425    22501370.605    20348296.077 7  -3849302.799 9
  20522235.695    20522238.038    -9555506.682 8   5208907.785 8
  20083408.373    20083411.683    19952810.828 5 -59244293.093 8
                  25314524.177   -17242647.477 3
 86  6 20  1 39 23.0800000  0  4G 6G13G 9G11
  22505176.432    22505179.618    20368313.073 8  -3833705.150 8
  20521669.058    20521671.323    -9558484.322 9   5206587.548 8
  20084390.146    20084394.305    19957970.209 5 -59240272.792 7
                  25443376.307   -17218220.219 3
 86  6 20  1 39 29.0800000  0  4G 6G13G 9G11
  22508987.983    22508990.475    20388344.536 8  -3818096.240 7
  20521105.979    20521108.147    -9561443.703 8   5204281.537 7
  20085378.477    20085379.103    19963155.221 5 -59236232.500 7
                  25571646.196   -17193778.795 3
 86  6 20  1 39 35.0800000  0  4G 6G13G 9G11
  22512803.707    22512806.168    20408390.398 8  -3802476.089 7
  20520546.498    20520548.929    -9564384.778 9   5201989.803 7
  20086368.720    20086370.805    19968365.753 6 -59232172.358 7
                  25384575.170   -17184822.584 3
 86  6 20  1 39 41.0800000  0  4G 6G13G 9G11
  22516620.979    22516623.767    20428450.735 7  -3786844.681 8
  20519990.682    20519992.897    -9567307.550 8   5199712.313 7
  20087364.908    20087367.823    19973601.835 6 -59228092.297 7
                  25484679.174   -17175952.581 3
 86  6 20  1 39 47.0800000  0  4G 6G13G 9G11
  22520442.811    22520443.614    20448525.429 8  -3771202.068 9
  20519438.233    20519438.772    -9570212.078 9   5197449.053 9
  20088368.749    20088369.236    19978863.468 5 -59223992.334 7
                  25297215.977   -17164432.550 3
 86  6 20  1 39 53.0800000  0  4G 6G13G 9G11
  22524264.424    22524266.968    20468614.487 8  -3755548.267 6
  20518888.508    20518890.030    -9573098.341 7   5195200.028 7
  20089373.044    20089371.415    19984150.618 5 -59219872.469 6
                  25409020.694   -17138734.478 3
 86  6 20  1 39 59.0800000  0  4G 6G13G 9G11
  22528090.749    22528090.467    20488717.937 8  -3739883.246 7
  20518342.647    20518345.056    -9575966.400 9   5192965.170 7
  20090383.874    20090384.886    19989463.326 5 -59215732.715 6
                  25531670.105   -17113022.239 3
 86  6 20  1 40  5.0800000  0  4G 6G13G 9G11
  22531919.791    22531920.583    20508835.684 7  -3724207.092 7
  20517799.477    20517801.348    -9578816.135 8   5190744.603 8
  20091400.947    20091398.721    19994801.607 6 -59211573.007 6
                  25335824.375   -17094739.898 3
 86  6 20  1 40 11.0800000  0  4G 6G13G 9G11
  22535749.783    22535749.114    20528967.790 9  -3708519.761 6
  20517260.329    20517261.878    -9581647.563 8   5188538.300 7
  20092421.292    20092420.129    20000165.463 6 -59207393.381 5
                  25440402.205   -17086999.043 3
 86  6 20  1 40 17.0800000  0  4G 6G13G 9G11
  22539583.528    22539582.379    20549114.179 8  -3692821.276 6
  20516725.006    20516726.590    -9584460.796 8   5186346.168 8
  20093445.665    20093445.697    20005554.811 5 -59203193.890 5
                  25555238.624   -17079244.020 3
 86  6 20  1 40 23.0800000  0  4G 6G13G 9G11
  22543420.074    22543420.472    20569274.806 8  -3677111.715 7
  20516191.273    20516195.084    -9587255.806 9   5184168.251 7
  20094477.439    20094477.667    20010969.724 6 -59198974.475 7
                  25357363.450   -17060846.538 3
 86  6 20  1 40 29.0800000  0  4G 6G13G 9G11
  22547259.471    22547260.037    20589449.673 8  -3661391.059 7
  20515664.537    20515666.658    -9590032.638 8   5182004.495 7
  20095514.711    20095513.443    20016410.114 5 -59194735.226 6
                  25476445.850   -17033863.483 3
 86  6 20  1 40 35.0800000  0  4G 6G13G 9G11
  22551099.327    22551101.495    20609638.792 8  -3645659.289 8
  20515138.117    20515141.152    -9592791.294 8   5179854.899 7
  20096553.085    20096553.405    20021876.039 5 -59190476.060 7
                  25596409.253   -17006866.262 3
 86  6 20  1 40 41.0800000  0  4G 6G13G 9G11
  22554943.334    22554945.787    20629842.185 8  -3629916.408 6
  20514617.789    20514620.300    -9595531.711 7   5177719.514 6
  20097598.945    20097597.596    20027367.538 6 -59186196.969 5
                  25396398.170   -16998151.325 3
 86  6 20  1 40 47.0800000  0  4G 6G13G 9G11
  22558788.359    22558794.227    20650059.721 8  -3614162.501 8
  20514100.522    20514101.017    -9598253.900 8   5175598.330 7
  20098650.049    20098648.384    20032884.512 8 -59181898.029 6
                  25483473.039   -16991525.450 3
 86  6 20  1 40 53.0800000  0  4G 6G13G 9G11
  22562638.985    22562644.876    20670291.478 7  -3598397.510 7
  20513585.100    20513587.879    -9600957.917 8   5173491.310 8
  20099705.252    20099703.373    20038427.036 6 -59177579.184 8
                  25586376.651   -16984885.407 3
 86  6 20  1 40 59.0800000  0  4G 6G13G 9G11
  22566491.019    22566496.428    20690537.372 7  -3582621.495 8
  20513073.724    20513077.041    -9603643.718 8   5171398.495 7
  20100762.763    20100764.274    20043995.056 7 -59173240.472 6
                  25405270.682   -16961522.444 3
 86  6 20  1 41  5.0800000  0  4G 6G13G 9G11
  22570347.028    22570353.086    20710797.436 8  -3566834.431 8
  20512566.881    20512568.502    -9606311.374 9   5169319.794 8
  20101828.643    20101827.476    20049588.647 6 -59168881.834 7
                  25528700.244   -16933254.408 3
 86  6 20  1 41 11.0800000  0  4G 6G13G 9G11
  22574204.858    22574210.906    20731071.553 7  -3551036.429 7
  20512063.164    20512063.700    -9608960.910 7   5167255.234 7
  20102895.916    20102897.174    20055207.715 6 -59164503.345 7
                  25352864.306   -16909917.424 3
 86  6 20  1 41 17.0800000  0  4G 6G13G 9G11
  22578066.909    22578072.172    20751359.896 7  -3535227.341 7
  20511562.211    20511563.805    -9611592.258 7   5165204.821 7
  20103969.986    20103972.499    20060852.319 7 -59160104.942 7
                  25462875.665   -16904420.696 3
 86  6 20  1 41 23.0800000  0  4G 6G13G 9G11
  22581931.452    22581935.081    20771662.293 7  -3519407.294 7
  20511064.662    20511067.068    -9614205.410 8   5163168.607 6
  20105050.322    20105050.458    20066522.565 7 -59155686.571 7
                  25570253.103   -16898909.801 3
 86  6 20  1 41 29.0800000  0  4G 6G13G 9G11
  22585797.999    22585801.789    20791978.724 7  -3503576.317 7
  20510571.598    20510573.510    -9616800.432 8   5161146.523 7
  20106133.791    20106134.971    20072218.265 6 -59151248.368 6
                  25365433.075   -16884659.301 3
 86  6 20  1 41 35.0800000  0  4G 6G13G 9G11
  22589668.086    22589671.043    20812309.212 7  -3487734.387 7
  20510080.487    20510083.745    -9619377.401 8   5159138.499 7
  20107220.119    20107223.939    20077939.389 6 -59146790.358 6
                  25486467.663   -16855120.450 3
 86  6 20  1 41 41.0800000  0  4G 6G13G 9G11
  22593538.853    22593542.334    20832653.704 8  -3471881.542 6
  20509594.336    20509595.175    -9621936.332 8   5157144.529 7
  20108314.676    20108316.542    20083686.019 6 -59142312.446 7
                  25610727.760   -16825567.431 3
 86  6 20  1 41 47.0800000  0  4G 6G13G 9G11
  22597413.668    22597416.184    20853012.263 8  -3456017.759 7
  20509111.521    20509114.898    -9624477.153 8   5155164.684 8
  20109412.498    20109415.142    20089458.222 6 -59137814.625 7
                  25471356.670   -16804642.898 3
 86  6 20  1 41 53.0800000  0  4G 6G13G 9G11
  22601288.164    22601293.341    20873384.761 9  -3440143.100 7
  20508631.256    20508631.768    -9626999.858 8   5153198.932 7
  20110516.130    20110517.846    20095256.012 6 -59133296.880 4
                  25649605.505   -16787061.357 3
 86  6 20  1 41 59.0800000  0  4G 6G13G 9G11
  22605168.128    22605172.453    20893771.284 8  -3424257.508 7
  20508153.585    20508157.268    -9629504.396 8   5151247.352 7
  20111623.695    20111626.257    20101079.359 7 -59128759.201 6
                  25526661.776   -16770669.910 3
 86  6 20  1 42  5.0800000  0  4G 6G13G 9G11
  22609050.073    22609054.729    20914171.744 8  -3408361.058 8
  20507678.968    20507684.617    -9631990.909 8   5149309.813 8
  20112735.667    20112737.576    20106928.139 6 -59124201.713 5
                  25403853.798   -16753571.471 3
 86  6 20  1 42 11.0800000  0  4G 6G13G 9G11
  22612934.422    22612939.822    20934586.117 7  -3392453.775 6
  20507208.319    20507216.433    -9634459.433 7   5147386.287 4
  20113854.876    20113855.600    20112802.466 6 -59119624.322 5
                  25583218.092   -16734747.449 3
 86  6 20  1 42 17.0800000  0  4G 6G13G 9G11
  22616821.146    22616826.391    20955014.463 8  -3376535.596 6
  20506743.169    20506746.972    -9636909.938 7   5145476.800 5
  20114977.216    20114975.055    20118702.281 6 -59115027.076 3
                  25460349.350   -16717962.065 3
 86  6 20  1 42 23.0800000  0  4G 6G13G 9G11
  22620711.899    22620716.087    20975456.681 7  -3360606.610 6
  20506281.227    20506285.497    -9639342.345 7   5143581.410 6
  20116104.036    20116105.585    20124627.583 6 -59110409.941 5
                  25638154.329   -16702709.653 3
 86  6 20  1 42 29.0800000  0  4G 6G13G 9G11
  22624603.191    22624609.332    20995912.776 7  -3344666.805 5
  20505821.953    20505824.450    -9641756.705 8   5141700.107 5
  20117236.696    20117236.498    20130578.401 4 -59105772.983 3
                  25514009.549   -16683394.023 3
 86  6 20  1 42 35.0800000  0  4G 6G13G 9G11
  22628498.844    22628505.259    21016382.721 7  -3328716.215 4
  20505366.304    20505366.887    -9644153.045 8   5139832.833 5
  20118373.254    20118374.639    20136554.735 5 -59101116.101 4
                  25391635.242   -16664014.736 3
 86  6 20  1 42 41.0800000  0  4G 6G13G 9G11
  22632396.646    22632403.030    21036866.523 8  -3312754.818 6
  20504913.299    20504913.793    -9646531.370 7   5137979.591 5
  20119515.276    20119512.271    20142556.483 5 -59096439.422 3
                  25570098.329   -16649919.804 3
 86  6 20  1 42 47.0800000  0  4G 6G13G 9G11
  22636298.011    22636302.738    21057364.084 8  -3296782.681 6
  20504463.937    20504465.678    -9648891.727 8   5136140.368 6
  20120660.984    20120665.105    20148583.704 5 -59091742.860 5
                  25448451.024   -16632881.079 3
 86  6 20  1 42 53.0800000  0  4G 6G13G 9G11
  22640202.504    22640208.126    21077875.472 7  -3280799.816 7
  20504017.584    20504021.029    -9651234.091 6   5134315.163 7
  20121813.817    20121816.163    20154636.436 5 -59087026.464 6
                  25626532.356   -16611557.927 3
 86  6 20  1 42 59.0800000  0  4G 6G13G 9G11
  22644108.125    22644111.780    21098400.627 8  -3264806.203 4
  20503577.227    20503578.599    -9653558.463 8   5132503.963 6
  20122971.990    20122974.371    20160714.695 6 -59082290.164 6
                  25502862.273   -16595906.470 3
 86  6 20  1 43  5.0800000  0  4G 6G13G 9G11
  22648018.185    22648020.908    21118939.513 7  -3248801.865 6
  20503136.384    20503140.280    -9655864.916 8   5130706.731 7
  20124133.490    20124134.311    20166818.462 6 -59077533.954 6
                  25681108.619   -16582954.853 3
 86  6 20  1 43 11.0800000  0  4G 6G13G 9G11
  22651928.579    22651930.114    21139492.178 8  -3232786.819 7
  20502701.604    20502703.662    -9658153.460 7   5128923.446 7
  20125298.806    20125301.491    20172947.674 7 -59072757.929 6
                  25560452.890   -16560706.985 3
 86  6 20  1 43 17.0800000  0  4G 6G13G 9G11
  22655843.247    22655843.792    21160058.544 7  -3216761.078 6
  20502268.733    20502271.044    -9660423.985 8   5127154.210 6
  20126469.646    20126472.564    20179102.350 6 -59067962.090 5
                  25438451.912   -16540901.650 3
 86  6 20  1 43 23.0800000  0  4G 6G13G 9G11
  22659759.409    22659760.300    21180638.641 8  -3200724.662 5
  20501839.609    20501842.457    -9662676.521 7   5125398.974 8
  20127646.153    20127649.526    20185282.540 6 -59063146.353 5
                  25614718.882   -16529107.514 3
 86  6 20  1 43 29.0800000  0  4G 6G13G 9G11
  22663678.380    22663677.523    21201232.407 8  -3184677.569 6
  20501414.491    20501418.619    -9664911.198 8   5123657.676 7
  20128827.087    20128832.140    20191488.163 6 -59058310.806 6
                  25492994.377   -16510936.523 3
 86  6 20  1 43 35.0800000  0  4G 6G13G 9G11
  22667598.087    22667599.448    21221839.791 7  -3168619.889 6
  20500992.141    20500994.786    -9667127.991 8   5121930.313 7
  20130013.060    20130014.326    20197719.176 6 -59053455.464 7
                  25673309.030   -16487114.242 3
 86  6 20  1 43 41.0800000  0  4G 6G13G 9G11
  22671523.102    22671523.919    21242460.902 8  -3152551.514 8
  20500575.406    20500577.870    -9669326.876 8   5120216.894 8
  20131203.497    20131205.711    20203975.779 6 -59048580.172 7
                  25550894.882   -16474104.690 3
 86  6 20  1 43 47.0800000  0  4G 6G13G 9G11
  22675448.752    22675448.571    21263095.629 8  -3136472.512 8
  20500160.307    20500163.799    -9671507.824 7   5118517.443 7
  20132398.917    20132401.673    20210257.822 7 -59043685.077 6
                  25427143.229   -16461962.546 3
 86  6 20  1 43 53.0800000  0  4G 6G13G 9G11
  22679378.084    22679378.186    21283743.919 9  -3120382.944 8
  20499747.735    20499751.330    -9673670.898 8   5116831.934 7
  20133598.700    20133600.756    20216565.329 6 -59038770.127 7
                  25606815.371   -16436897.782 3
 86  6 20  1 43 59.0800000  0  4G 6G13G 9G11
  22683308.063    22683310.168    21304405.809 7  -3104282.780 8
  20499339.980    20499342.030    -9675816.167 9   5115160.305 6
  20134806.800    20134805.932    20222898.304 5 -59033835.376 6
                  25485256.434   -16417854.381 3
 86  6 20  1 44  5.0800000  0  4G 6G13G 9G11
  22687243.088    22687244.146    21325081.257 8  -3088172.066 6
  20498935.740    20498938.654    -9677943.557 8   5113502.585 6
  20136015.531    20136017.213    20229256.771 5 -59028880.713 5
                  25662843.913   -16408361.039 3
 86  6 20  1 44 11.0800000  0  4G 6G13G 9G11
  22691179.734    22691183.257    21345770.269 8  -3072050.776 6
  20498535.048    20498535.280    -9680053.106 8   5111858.783 6
  20137228.869    20137230.966    20235640.609 6 -59023906.284 6
                  25540734.803   -16387593.804 3
 86  6 20  1 44 17.0800000  0  4G 6G13G 9G11
  22695119.497    22695121.973    21366472.745 7  -3055918.978 7
  20498137.098    20498137.878    -9682144.787 8   5110228.908 7
  20138449.340    20138451.740    20242049.965 6 -59018911.999 7
                  25721524.493   -16361272.393 3
 86  6 20  1 44 23.0800000  0  4G 6G13G 9G11
  22699060.303    22699063.771    21387188.792 7  -3039776.628 6
  20497742.967    20497742.471    -9684218.533 9   5108613.006 6
  20139674.834    20139676.092    20248484.784 6 -59013897.837 6
                  25598357.268   -16352220.725 3
 86  6 20  1 44 29.0800000  0  4G 6G13G 9G11
  22703006.757    22703010.185    21407918.287 7  -3023623.771 7
  20497352.778    20497354.026    -9686274.473 9   5107010.987 7
  20140904.500    20140905.471    20254945.004 6 -59008863.901 7
                  25475970.510   -16339066.313 3
 86  6 20  1 44 35.0800000  0  4G 6G13G 9G11
  22706953.283    22706958.659    21428661.245 8  -3007460.443 6
  20496963.734    20496966.239    -9688312.750 8   5105422.726 6
  20142138.128    20142140.505    20261430.617 7 -59003810.172 6
                  25656117.660   -16311502.420 3
 86  6 20  1 44 41.0800000  0  4G 6G13G 9G11
  22710902.908    22710907.162    21449417.635 7  -2991286.638 6
  20496580.123    20496579.997    -9690333.230 8   5103848.337 7
  20143378.521    20143377.250    20267941.775 7 -58998736.531 7
                  25534112.293   -16294808.928 3
 86  6 20  1 44 47.0800000  0  4G 6G13G 9G11
  22714855.705    22714860.150    21470187.510 8  -2975102.319 7
  20496198.554    20496200.580    -9692335.878 9   5102287.827 8
  20144621.787    20144622.705    20274478.302 6 -58993643.147 7
                  25711261.968   -16287616.381 3
 86  6 20  1 44 53.0800000  0  4G 6G13G 9G11
  22718812.341    22718813.465    21490970.728 8  -2958907.598 6
  20495821.232    20495822.815    -9694320.800 9   5100741.130 7
  20145869.764    20145872.324    20281040.322 6 -58988529.901 7
                  25591128.483   -16262620.929 3
 86  6 20  1 44 59.0800000  0  4G 6G13G 9G11
  22722769.542    22722772.818    21511767.342 8  -2942702.473 6
  20495445.920    20495447.086    -9696287.952 8   5099208.297 7
  20147124.338    20147126.097    20287627.728 6 -58983396.836 7
                  25470351.312   -16236389.643 3
 86  6 20  1 45  5.0800000  0  4G 6G13G 9G11
  22726730.664    22726730.627    21532577.391 8  -2926486.856 6
  20495074.689    20495078.175    -9698237.298 9   5097689.323 6
  20148383.287    20148384.533    20294240.554 6 -58978243.999 5
                  25647281.612   -16230354.577 3
 86  6 20  1 45 11.0800000  0  4G 6G13G 9G11
  22730692.803    22730693.991    21553400.757 8  -2910260.864 7
  20494706.960    20494709.827    -9700168.888 9   5096184.216 6
  20149643.671    20149646.164    20300878.900 6 -58973071.254 7
                  25524461.368   -16214859.916 3
 86  6 20  1 45 17.0800000  0  4G 6G13G 9G11
  22734657.962    22734658.254    21574237.435 8  -2894024.508 9
  20494343.448    20494345.117    -9702082.702 8   5094692.925 7
  20150912.676    20150915.065    20307542.548 6 -58967878.802 8
                  25705963.454   -16184796.893 3
 86  6 20  1 45 23.0800000  0  4G 6G13G 9G11
  22738624.043    22738624.906    21595087.447 8  -2877777.769 9
  20493982.684    20493982.978    -9703978.779 8   5093215.463 8
  20152184.424    20152188.212    20314231.629 6 -58962666.525 8
                  25570012.893   -16162842.363 3
 86  6 20  1 45 29.0800000  0  4G 6G13G 9G11
  22742593.389    22742593.838    21615950.745 8  -2861520.658 7
  20493625.522    20493626.504    -9705857.089 9   5091751.856 7
  20153464.905    20153465.641    20320946.263 6 -58957434.339 6
                  25724913.605   -16144750.819 3
 86  6 20  1 45 35.0800000  0  4G 6G13G 9G11
  22746566.616    22746568.477    21636827.371 8  -2845253.182 8
  20493271.105    20493271.587    -9707717.727 9   5090302.007 7
  20154744.838    20154747.687    20327686.180 7 -58952182.465 7
                  25576348.035   -16127489.373 3
 86  6 20  1 45 41.0800000  0  4G 6G13G 9G11
  22750541.699    22750542.492    21657717.220 8  -2828975.385 7
  20492920.176    20492920.127    -9709560.596 9   5088866.004 6
  20156033.611    20156035.113    20334451.548 6 -58946910.755 7
                  25730439.849   -16110569.476 3
 86  6 20  1 45 47.0800000  0  4G 6G13G 9G11
  22754519.550    22754522.332    21678620.319 8  -2812687.273 8
  20492572.991    20492573.509    -9711385.788 8   5087443.786 7
  20157326.699    20157327.767    20341242.278 6 -58941619.277 8
                  25587406.644   -16091954.881 3
 86  6 20  1 45 53.0800000  0  4G 6G13G 9G11
  22758500.680    22758502.266    21699536.587 8  -2796388.898 7
  20492230.212    20492230.815    -9713193.371 8   5086035.290 6
  20158624.765    20158623.722    20348058.409 7 -58936308.009 7
                  25726428.459   -16072606.687 3
 86  6 20  1 45 59.0800000  0  4G 6G13G 9G11
  22762484.511    22762485.373    21720466.060 8  -2780080.234 5
  20491889.332    20491890.526    -9714983.303 8   5084640.544 6
  20159925.175    20159925.611    20354899.955 7 -58930976.944 6
                  25574897.075   -16055525.128 3
 86  6 20  1 46  5.0800000  0  4G 6G13G 9G11
  22766468.750    22766471.787    21741408.700 8  -2763761.305 6
  20491552.079    20491552.661    -9716755.558 7   5083259.581 6
  20161231.147    20161232.866    20361766.926 6 -58925626.056 6
                  25726427.701   -16039748.544 3
 86  6 20  1 46 11.0800000  0  4G 6G13G 9G11
  22770455.966    22770460.074    21762364.460 8  -2747432.150 7
  20491216.702    20491220.513    -9718510.282 9   5081892.263 6
  20162542.421    20162542.991    20368659.293 6 -58920255.396 7
                  25586068.718   -16020932.726 3
 86  6 20  1 46 17.0800000  0  4G 6G13G 9G11
  22774447.051    22774449.599    21783333.359 8  -2731092.771 5
  20490885.949    20490891.261    -9720247.372 8   5080538.685 6
  20163860.765    20163861.571    20375576.973 6 -58914865.007 5
                  25741741.783   -16000327.884 3
 86  6 20  1 46 23.0800000  0  4G 6G13G 9G11
  22778439.655    22778443.442    21804315.354 8  -2714743.149 6
  20490558.134    20490562.704    -9721966.854 9   5079198.838 7
  20165179.734    20165182.080    20382520.069 6 -58909454.777 6
                  25594244.398   -15983610.207 3
 86  6 20  1 46 29.0800000  0  4G 6G13G 9G11
  22782436.210    22782439.267    21825310.455 8  -2698383.350 6
  20490235.143    20490237.560    -9723668.697 8   5077872.720 7
  20166507.283    20166507.836    20389488.479 7 -58904024.845 6
                  25746728.587   -15968976.938 3
 86  6 20  1 46 35.0800000  0  4G 6G13G 9G11
  22786432.722    22786436.050    21846318.634 8  -2682013.349 7
  20489913.823    20489917.206    -9725352.917 8   5076560.350 7
  20167837.012    20167838.543    20396482.292 6 -58898575.118 6
                  25605273.441   -15949767.901 3
 86  6 20  1 46 41.0800000  0  4G 6G13G 9G11
  22790434.257    22790436.438    21867339.860 7  -2665633.193 7
  20489597.830    20489600.994    -9727019.532 8   5075261.690 7
  20169172.651    20169173.069    20403501.437 6 -58893105.647 6
                  25759719.637   -15927906.412 3
 86  6 20  1 46 47.0800000  0  4G 6G13G 9G11
  22794435.892    22794437.946    21888374.103 7  -2649242.880 7
  20489282.668    20489284.937    -9728668.565 8   5073976.736 7
  20170515.306    20170515.191    20410546.050 7 -58887616.363 5
                  25612164.879   -15911492.621 3
 86  6 20  1 46 53.0800000  0  4G 6G13G 9G11
  22798442.646    22798442.394    21909421.367 7  -2632842.431 6
  20488973.044    20488974.264    -9730300.006 8   5072705.490 6
  20171860.580    20171860.619    20417615.883 6 -58882107.385 6
                  25772637.119   -15898002.665 3
 86  6 20  1 46 59.0800000  0  4G 6G13G 9G11
  22802449.649    22802450.955    21930481.583 9  -2616431.880 7
  20488667.282    20488666.020    -9731913.916 8   5071447.910 7
  20173209.445    20173211.253    20424711.087 7 -58876578.657 6
                  25625210.123   -15877840.417 3
 86  6 20  1 47  5.0800000  0  4G 6G13G 9G11
  22806458.557    22806459.283    21951554.764 8  -2600011.247 8
  20488363.675    20488361.804    -9733510.286 8   5070203.981 8
  20174563.529    20174566.105    20431831.720 6 -58871030.134 5
                  25789565.419   -15854722.279 3
 86  6 20  1 47 11.0800000  0  4G 6G13G 9G11
  22810471.681    22810472.193    21972640.879 6  -2583580.503 7
  20488063.742    20488062.544    -9735089.105 8   5068973.744 6
  20175923.779    20175925.688    20438977.645 6 -58865461.860 6
                  25653645.388   -15840304.346 3
 86  6 20  1 47 17.0800000  0  4G 6G13G 9G11
  22814485.857    22814488.207    21993739.980 7  -2567139.674 8
  20487766.935    20487764.622    -9736650.354 8   5067757.169 6
  20177286.849    20177288.429    20446148.860 6 -58859873.932 6
                  25820348.036   -15827957.704 3
 86  6 20  1 47 23.0800000  0  4G 6G13G 9G11
  22818501.944    22818505.451    22014851.925 8  -2550688.818 7
  20487472.297    20487473.575    -9738194.185 8   5066554.211 6
  20178656.209    20178659.096    20453345.449 6 -58854266.177 5
                  25688565.715   -15804114.288 3
 86  6 20  1 47 29.0800000  0  4G 6G13G 9G11
  22822521.719    22822524.622    22035976.771 7  -2534227.916 6
  20487182.127    20487182.436    -9739720.506 8   5065364.865 7
  20180030.989    20180032.302    20460567.397 6 -58848638.709 6
                  25551032.188   -15781238.543 3
 86  6 20  1 47 35.0800000  0  4G 6G13G 9G11
  22826545.744    22826546.658    22057114.520 8  -2517756.963 6
  20486894.878    20486898.554    -9741229.373 9   5064189.110 6
  20181410.540    20181412.221    20467814.615 6 -58842991.525 6
                  25705498.631   -15770049.383 3
 86  6 20  1 47 41.0800000  0  4G 6G13G 9G11
  22830569.824    22830573.943    22078265.088 8  -2501276.007 6
  20486609.454    20486613.944    -9742720.795 8   5063026.958 6
  20182794.844    20182798.133    20475087.244 6 -58837324.554 5
                  25551008.600   -15757738.728 3
 86  6 20  1 47 47.0800000  0  4G 6G13G 9G11
  22834597.318    22834601.277    22099428.460 7  -2484785.073 5
  20486328.989    20486333.398    -9744194.840 8   5061878.367 6
  20184184.740    20184185.602    20482385.096 5 -58831637.929 6
                  25714374.931   -15732121.460 3
 86  6 20  1 47 53.0800000  0  4G 6G13G 9G11
  22838627.786    22838629.728    22120604.670 7  -2468284.165 6
  20486052.074    20486057.272    -9745651.358 8   5060743.416 5
  20185576.144    20185579.306    20489708.273 6 -58825931.558 6
                  25567268.534   -15708729.614 3
 86  6 20  1 47 59.0800000  0  4G 6G13G 9G11
  22842658.841    22842663.231    22141793.671 8  -2451773.250 7
  20485777.662    20485780.564    -9747090.457 7   5059622.042 7
  20186977.777    20186976.865    20497056.694 5 -58820205.494 6
                  25718294.647   -15698683.767 3
 86  6 20  1 48  5.0800000  0  4G 6G13G 9G11
  22846693.920    22846696.142    22162995.438 7  -2435252.410 7
  20485506.598    20485510.586    -9748512.062 7   5058514.299 8
  20188378.187    20188380.998    20504430.502 5 -58814459.680 7
                  25582770.798   -15685259.904 3
 86  6 20  1 48 11.0800000  0  4G 6G13G 9G11
  22850729.967    22850733.951    22184209.921 7  -2418721.655 7
  20485240.086    20485241.969    -9749916.275 7   5057420.113 8
  20189786.789    20189788.040    20511829.546 5 -58808694.184 7
                  25743739.309   -15658385.987 3
 86  6 20  1 48 17.0800000  0  4G 6G13G 9G11
  22854770.879    22854773.632    22205437.151 7  -2402180.967 7
  20484975.548    20484977.478    -9751303.075 8   5056339.504 9
  20191199.754    20191203.266    20519253.849 5 -58802909.011 7
                  25604634.679   -15636062.013 3
 86  6 20  1 48 23.0800000  0  4G 6G13G 9G11
  22858810.622    22858814.990    22226677.126 7  -2385630.358 7
  20484713.776    20484717.607    -9752672.453 7   5055272.466 8
  20192618.741    20192620.993    20526703.481 5 -58797104.112 7
                  25764527.023   -15627159.480 3
 86  6 20  1 48 29.0800000  0  4G 6G13G 9G11
  22862855.558    22862858.804    22247929.721 7  -2369069.916 7
  20484456.375    20484461.493    -9754024.424 8   5054218.992 7
  20194039.806    20194042.221    20534178.497 6 -58791279.434 6
                  25618278.199   -15611582.425 3
 86  6 20  1 48 35.0800000  0  4G 6G13G 9G11
  22866901.838    22866905.754    22269194.963 7  -2352499.605 7
  20484204.335    20484207.453    -9755359.051 8   5053179.020 9
  20195467.118    20195470.066    20541678.671 6 -58785435.144 7
                  25774796.265   -15583451.859 3
 86  6 20  1 48 41.0800000  0  4G 6G13G 9G11
  22870951.591    22870956.094    22290472.899 7  -2335919.428 8
  20483954.227    20483957.196    -9756676.360 7   5052152.554 8
  20196897.784    20196902.760    20549204.116 5 -58779571.147 6
                  25633057.205   -15562655.751 3
 86  6 20  1 48 47.0800000  0  4G 6G13G 9G11
  22875003.474    22875006.421    22311763.467 8  -2319329.375 8
  20483707.404    20483710.857    -9757976.356 8   5051139.579 6
  20198333.879    20198339.257    20556754.918 6 -58773687.402 3
                  25781595.894   -15554896.533 3
 86  6 20  1 48 53.0800000  0  4G 6G13G 9G11
  22879058.782    22879060.824    22333066.639 6  -2302729.505 7
  20483462.867    20483467.145    -9759258.992 8   5050140.120 8
  20199776.151    20199780.261    20564331.043 5 -58767783.940 6
                  25639459.665   -15539270.253 3
 86  6 20  1 48 59.0800000  0  4G 6G13G 9G11
  22883113.828    22883116.532    22354382.367 8  -2286119.873 8
  20483221.946    20483225.829    -9760524.253 8   5049154.182 9
  20201223.005    20201225.539    20571932.158 5 -58761860.985 8
                  25802077.625   -15509883.040 3
 86  6 20  1 49  5.0800000  0  4G 6G13G 9G11
  22887171.921    22887174.889    22375710.687 8  -2269500.426 8
  20482985.530    20482988.924    -9761772.157 8   5048181.782 9
  20202672.542    20202676.662    20579558.677 5 -58755918.247 8
                  25664845.182   -15491582.782 3
 86  6 20  1 49 11.0800000  0  4G 6G13G 9G11
  22891234.707    22891236.017    22397051.533 8  -2252871.202 8
  20482751.310    20482753.072    -9763002.766 8   5047222.865 9
  20204129.635    20204133.623    20587210.362 5 -58749955.900 8
                  25814339.324   -15484966.877 3
 86  6 20  1 49 17.0800000  0  4G 6G13G 9G11
  22895297.352    22895299.321    22418404.882 8  -2236232.248 8
  20482518.524    20482522.468    -9764216.050 8   5046277.452 8
  20205589.617    20205594.572    20594887.280 5 -58743973.885 6
                  25670924.232   -15466811.411 3
 86  6 20  1 49 23.0800000  0  4G 6G13G 9G11
  22899364.595    22899364.668    22439770.743 9  -2219583.554 7
  20482293.058    20482293.055    -9765412.074 8   5045345.492 6
  20207056.179    20207059.775    20602589.469 6 -58737972.177 7
                  25835247.847   -15436167.549 3
 86  6 20  1 49 29.0800000  0  4G 6G13G 9G11
  22903432.422    22903434.689    22461149.096 8  -2202925.112 7
  20482068.088    20482068.115    -9766590.751 8   5044427.044 7
  20208527.836    20208532.087    20610316.911 6 -58731950.778 7
                  25666490.601   -15412592.197 3
 86  6 20  1 49 35.0800000  0  4G 6G13G 9G11
  22907502.621    22907504.927    22482539.911 9  -2186256.951 7
  20481846.015    20481848.557    -9767752.204 8   5043522.016 8
  20210003.607    20210007.269    20618069.584 6 -58725909.744 6
                  25782525.557   -15393919.813 3
 86  6 20  1 49 41.0800000  0  4G 6G13G 9G11
  22911575.285    22911577.956    22503943.190 8  -2169579.089 8
  20481627.663    20481630.025    -9768896.463 8   5042630.395 8
  20211484.239    20211486.219    20625847.494 5 -58719849.046 6
                  25904132.486   -15375233.262 3
 86  6 20  1 49 47.0800000  0  4G 6G13G 9G11
  22915650.590    22915653.611    22525358.906 8  -2152891.536 8
  20481414.846    20481416.852    -9770023.438 8   5041752.250 8
  20212970.258    20212971.502    20633650.581 6 -58713768.719 8
                  25730713.839   -15357668.806 3
 86  6 20  1 49 53.0800000  0  4G 6G13G 9G11
  22919727.869    22919731.084    22546786.938 8  -2136194.370 8
  20481203.511    20481204.422    -9771133.120 7   5040887.561 8
  20214459.148    20214460.108    20641478.840 6 -58707668.773 7
                  25848581.231   -15340153.904 3
 86  6 20  1 49 59.0800000  0  4G 6G13G 9G11
  22923807.615    22923811.559    22568227.461 8  -2119487.476 7
  20480995.123    20480998.443    -9772225.610 9   5040036.273 8
  20215954.230    20215955.531    20649332.421 5 -58701549.104 7
                  25664782.711   -15321696.291 3
 86  6 20  1 50  5.0800000  0  4G 6G13G 9G11
  22927889.569    22927895.378    22589680.317 7  -2102770.985 7
  20480789.848    20480793.532    -9773300.792 8   5039198.466 7
  20217451.614    20217454.326    20657211.121 7 -58695409.866 5
                  25776371.202   -15301753.093 3
 86  6 20  1 50 11.0800000  0  4G 6G13G 9G11
  22931976.125    22931980.464    22611145.456 8  -2086044.894 8
  20480588.943    20480592.106    -9774358.806 9   5038374.047 8
  20218954.744    20218958.821    20665114.971 7 -58689251.014 7
                  25884445.382   -15281795.728 3
 86  6 20  1 50 17.0800000  0  4G 6G13G 9G11
  22936062.716    22936066.463    22632622.923 7  -2069309.227 7
  20480390.034    20480394.187    -9775399.678 8   5037562.968 7
  20220462.971    20220466.238    20673044.116 7 -58683072.463 7
                  25696135.110   -15263948.998 3
 86  6 20  1 50 23.0800000  0  4G 6G13G 9G11
  22940152.913    22940155.588    22654112.729 8  -2052563.932 8
  20480195.200    20480199.464    -9776423.446 7   5036765.221 8
  20221978.654    20221981.295    20680998.379 6 -58676874.334 8
                  25800893.308   -15247563.242 3
 86  6 20  1 50 29.0800000  0  4G 6G13G 9G11
  22944244.471    22944247.248    22675614.805 8  -2035809.066 8
  20480003.470    20480006.678    -9777430.038 7   5035980.875 8
  20223496.453    20223499.823    20688977.826 6 -58670656.589 8
                  25907411.580   -15231163.320 3
 86  6 20  1 50 35.0800000  0  4G 6G13G 9G11
  22948338.411    22948341.574    22697129.084 9  -2019044.707 8
  20479816.568    20479819.061    -9778419.568 8   5035209.814 7
  20225021.000    20225023.370    20696982.383 7 -58664419.259 8
                  25718611.459   -15211276.170 3
 86  6 20  1 50 41.0800000  0  4G 6G13G 9G11
  22952434.664    22952437.135    22718655.624 8  -2002270.798 8
  20479631.921    20479634.012    -9779391.848 7   5034452.197 7
  20226549.904    20226552.098    20705012.166 5 -58658162.311 8
                  25828393.014   -15190047.988 3
 86  6 20  1 50 47.0800000  0  4G 6G13G 9G11
  22956533.790    22956534.871    22740194.386 8  -1985487.371 8
  20479450.561    20479452.033    -9780346.987 8   5033707.938 8
  20228082.790    20228084.174    20713067.045 7 -58651885.787 8
                  25940521.561   -15168805.641 3
 86  6 20  1 50 53.0800000  0  4G 6G13G 9G11
  22960634.665    22960635.787    22761745.304 8  -1968694.460 7
  20479272.046    20479272.861    -9781284.973 8   5032977.036 6
  20229620.476    20229621.953    20721147.066 6 -58645589.665 7
                  25753260.562   -15153150.432 3
 86  6 20  1 50 59.0800000  0  3G 6G13G 9
  22964737.902    22964738.237    22783308.418 8  -1951892.051 7
  20479095.802    20479097.802    -9782205.842 8   5032259.494 7
  20231163.650    20231163.176    20729252.234 7 -58639273.945 8
 86  6 20  1 51  5.0800000  0  3G 6G13G 9
  22968843.816    22968844.852    22804883.690 8  -1935080.163 8
  20478924.459    20478926.173    -9783109.728 7   5031555.172 7
  20232708.884    20232711.698    20737382.546 6 -58632938.643 7
 86  6 20  1 51 11.0800000  0  3G 6G13G 9
  22972951.398    22972952.600    22826471.078 8  -1918258.842 7
  20478756.028    20478756.193    -9783996.458 8   5030864.224 8
  20234261.231    20234262.567    20745537.993 6 -58626583.773 7
 86  6 20  1 51 17.0800000  0  3G 6G13G 9
  22977063.106    22977063.324    22848070.602 8  -1901428.060 7
  20478590.688    20478591.444    -9784866.079 8   5030186.589 8
  20235815.997    20235819.799    20753718.505 6 -58620209.352 7
 86  6 20  1 51 23.0800000  0  3G 6G13G 9
  22981174.192    22981174.952    22869682.227 8  -1884587.844 6
  20478428.447    20478429.883    -9785718.618 8   5029522.284 8
  20237379.596    20237381.197    20761924.196 6 -58613815.313 8
 86  6 20  1 51 29.0800000  0  3G 6G13G 9
  22985289.716    22985290.799    22891305.916 7  -1867738.232 8
  20478267.497    20478269.792    -9786554.140 8   5028871.233 7
  20238946.313    20238947.426    20770154.967 6 -58607401.719 7
 86  6 20  1 51 35.0800000  0  3G 6G13G 9
  22989406.047    22989409.982    22912941.651 7  -1850879.247 8
  20478112.074    20478113.715    -9787372.588 8   5028233.499 7
  20240516.313    20240520.328    20778410.848 7 -58600968.569 6
 86  6 20  1 51 41.0800000  0  3G 6G13G 9
  22993527.101    22993530.056    22934589.388 7  -1834010.884 7
  20477958.812    20477961.023    -9788174.047 8   5027608.987 6
  20242092.371    20242095.570    20786691.849 7 -58594515.848 7
 86  6 20  1 51 47.0800000  0  3G 6G13G 9
  22997647.529    22997650.364    22956249.146 8  -1817133.161 8
  20477810.050    20477810.295    -9788958.593 7   5026997.653 7
  20243674.504    20243676.181    20794997.961 6 -58588043.544 6
 86  6 20  1 51 53.0800000  0  3G 6G13G 9
  23001772.105    23001775.912    22977920.901 7  -1800246.097 8
  20477664.083    20477664.321    -9789726.211 8   5026399.525 6
  20245258.578    20245261.517    20803329.118 7 -58581551.741 7
 86  6 20  1 51 59.0800000  0  3G 6G13G 9
  23005897.735    23005902.589    22999604.666 8  -1783349.671 7
  20477521.627    20477521.408    -9790476.889 7   5025814.588 6
  20246848.923    20246851.593    20811685.306 6 -58575040.425 6
 86  6 20  1 52  5.0800000  0  2G13G 9
  20477383.033    20477381.784    -9791210.591 7   5025242.878 4
  20248444.590    20248447.231    20820066.619 6 -58568509.532 3
 86  6 20  1 52 11.0800000  0  2G13G 9
  20477246.427    20477246.204    -9791927.334 5   5024684.374 4
  20250042.873    20250044.052    20828472.908 6 -58561959.169 5
 86  6 20  1 52 17.0800000  0  2G13G 9
  20477110.531    20477113.533    -9792627.079 7   5024139.119 7
  20251648.171    20251651.308    20836904.213 6 -58555389.337 7
 86  6 20  1 52 23.0800000  0  3G12G13G 9
                  21902010.035   -27650242.133 9
  20476982.134    20476983.408    -9793309.908 7   5023607.061 8
  20253257.065    20253258.931    20845360.701 7 -58548799.859 8
 86  6 20  1 52 29.0800000  0  3G12G13G 9
                  21898985.192   -27666137.692 8
  20476855.213    20476857.945    -9793975.814 7   5023088.168 8
  20254870.571    20254873.164    20853842.181 6 -58542190.909 8
 86  6 20  1 52 35.0800000  0  3G12G13G 9
                  21895995.645   -27682019.096 7
  20476731.891    20476733.109    -9794624.738 8   5022582.504 8
  20256489.966    20256492.280    20862348.722 7 -58535562.434 8
 86  6 20  1 52 41.0800000  0  3G12G13G 9
  21892976.916    21892984.228   -27697885.793 7  35230891.692 8
  20476611.751    20476614.317    -9795256.761 8   5022090.013 7
  20258112.986    20258114.215    20870880.308 7 -58528914.449 8
 86  6 20  1 52 47.0800000  0  3G12G13G 9
  21889958.860    21889964.944   -27713737.945 7  35218539.415 8
  20476496.022    20476497.096    -9795871.914 7   5021610.667 8
  20259741.283    20259742.416    20879436.914 6 -58522246.977 9
 86  6 20  1 52 53.0800000  0  3G12G13G 9
  21886946.759    21886949.756   -27729575.547 7  35206198.415 8
  20476380.399    20476383.200    -9796470.159 8   5021144.507 7
  20261373.622    20261375.696    20888018.462 6 -58515560.041 7
 86  6 20  1 52 59.0800000  0  3G12G13G 9
  21883935.191    21883939.878   -27745398.643 7  35193868.762 9
  20476270.032    20476272.155    -9797051.546 7   5020691.472 7
  20263011.162    20263013.343    20896625.134 6 -58508853.552 8
 86  6 20  1 53  5.0800000  0  3G12G13G 9
  21880926.824    21880931.538   -27761207.153 7  35181550.439 9
  20476162.191    20476166.272    -9797616.152 7   5020251.508 8
  20264652.539    20264657.744    20905256.738 6 -58502127.622 8
 86  6 20  1 53 11.0800000  0  3G12G13G 9
  21877921.221    21877925.974   -27777001.132 7  35169243.446 8
  20476058.627    20476062.201    -9798163.930 8   5019824.665 8
  20266301.164    20266304.772    20913913.360 6 -58495382.199 8
 86  6 20  1 53 17.0800000  0  3G12G13G 9
  21874919.682    21874923.677   -27792780.524 8  35156947.834 9
  20475956.379    20475960.205    -9798694.862 7   5019410.961 8
  20267953.304    20267956.499    20922594.906 7 -58488617.348 8
 86  6 20  1 53 23.0800000  0  3G12G13G 9
  21871917.976    21871924.298   -27808545.337 7  35144663.566 9
  20475859.012    20475861.846    -9799208.968 8   5019010.359 8
  20269611.794    20269612.949    20931301.484 6 -58481833.011 7
 86  6 20  1 53 29.0800000  0  3G12G13G 9
  21868922.921    21868926.498   -27824295.596 7  35132390.646 9
  20475765.178    20475768.704    -9799706.218 7   5018622.899 8
  20271272.637    20271274.330    20940032.994 7 -58475029.226 8
 86  6 20  1 53 35.0800000  0  3G12G13G 9
  21865927.504    21865931.936   -27840031.180 7  35120129.150 7
  20475673.265    20475676.066    -9800186.640 7   5018248.559 7
  20272938.338    20272940.416    20948789.537 6 -58468205.969 7
 86  6 20  1 53 41.0800000  0  3G12G13G 9
  21862936.670    21862940.779   -27855752.032 7  35107879.141 8
  20475586.031    20475588.551    -9800650.263 8   5017887.309 7
  20274609.253    20274610.532    20957571.004 7 -58461363.258 7
 86  6 20  1 53 47.0800000  0  3G12G13G 9
  21859947.324    21859951.409   -27871458.217 7  35095640.562 8
  20475500.912    20475503.094    -9801097.263 7   5017539.005 7
  20276284.516    20276287.852    20966377.461 7 -58454501.085 8
 86  6 20  1 53 53.0800000  0  3G12G13G 9
  21856961.623    21856965.502   -27887149.694 7  35083413.436 7
  20475417.709    20475420.803    -9801527.539 7   5017203.718 7
  20277964.826    20277966.448    20975208.794 7 -58447619.545 7
 86  6 20  1 53 59.0800000  0  3G12G13G 9
  21853979.008    21853983.875   -27902826.335 7  35071197.881 9
  20475339.642    20475342.131    -9801940.968 8   5016881.576 8
  20279649.297    20279651.921    20984065.155 6 -58440718.478 8
 86  6 20  1 54  5.0800000  0  3G12G13G 9
  21850998.852    21851002.023   -27918488.181 8  35058993.847 8
  20475263.763    20475265.832    -9802337.763 8   5016572.401 7
  20281341.505    20281342.428    20992946.318 7 -58433798.089 8
 86  6 20  1 54 11.0800000  0  3G12G13G 9
  21848020.550    21848024.485   -27934135.227 7  35046801.346 9
  20475191.067    20475194.161    -9802717.830 8   5016276.249 7
  20283036.403    20283037.223    21001852.418 7 -58426858.283 7
 86  6 20  1 54 17.0800000  0  3G12G13G 9
  21845046.136    21845049.395   -27949767.398 8  35034620.430 7
  20475121.526    20475123.757    -9803081.218 7   5015993.097 8
  20284736.822    20284736.619    21010783.496 7 -58419898.981 7
 86  6 20  1 54 23.0800000  0  3G12G13G 9
  21842075.665    21842077.363   -27965384.716 8  35022451.108 8
  20475056.998    20475057.563    -9803427.930 7   5015722.937 7
  20286440.557    20286440.950    21019739.593 6 -58412920.227 8
 86  6 20  1 54 29.0800000  0  3G12G13G 9
  21839105.166    21839109.163   -27980987.210 8  35010293.322 9
  20474994.065    20474995.521    -9803758.019 8   5015465.725 8
  20288151.134    20288149.916    21028720.382 7 -58405922.213 8
 86  6 20  1 54 35.0800000  0  3G12G13G 9
  21836139.948    21836142.577   -27996574.755 8  34998147.180 7
  20474934.478    20474936.362    -9804071.401 8   5015221.547 7
  20289863.893    20289863.585    21037726.136 7 -58398904.755 7
 86  6 20  1 54 41.0800000  0  3G12G13G 9
  21833175.983    21833178.689   -28012147.375 7  34986012.684 7
  20474878.539    20474879.268    -9804368.033 7   5014990.402 7
  20291583.008    20291582.051    21046756.790 6 -58391867.892 7
 86  6 20  1 54 47.0800000  0  3G12G13G 9
  21830215.446    21830218.678   -28027705.070 8  34973889.812 8
  20474825.150    20474827.008    -9804647.972 8   5014772.270 8
  20293305.751    20293306.278    21055812.306 7 -58384811.645 7
 86  6 20  1 54 53.0800000  0  3G12G13G 9
  21827257.631    21827260.775   -28043247.869 8  34961778.540 8
  20474775.759    20474776.356    -9804911.264 8   5014567.123 7
  20295032.357    20295033.180    21064892.667 7 -58377736.052 7
 86  6 20  1 54 59.0800000  0  3G12G13G 9
  21824303.112    21824305.420   -28058775.633 8  34949678.989 8
  20474728.922    20474730.530    -9805157.983 7   5014374.867 7
  20296764.223    20296765.773    21073997.868 7 -58370641.090 7
 86  6 20  1 55  5.0800000  0  3G12G13G 9
  21821351.476    21821352.420   -28074288.383 8  34937591.128 8
  20474685.556    20474686.286    -9805388.159 8   5014195.513 8
  20298500.756    20298504.884    21083127.837 7 -58363526.813 7
 86  6 20  1 55 11.0800000  0  3G12G13G 9
  21818402.704    21818403.712   -28089786.043 8  34925515.033 6
  20474643.962    20474645.526    -9805601.614 8   5014029.174 6
  20300242.698    20300246.101    21092282.784 8 -58356393.096 7
 86  6 20  1 55 17.0800000  0  3G12G13G 9
  21815455.166    21815458.369   -28105268.686 8  34913450.645 7
  20474605.755    20474607.047    -9805798.577 8   5013875.705 6
  20301990.463    20301993.390    21101462.535 8 -58349240.058 6
 86  6 20  1 55 23.0800000  0  3G12G13G 9
  21812512.379    21812514.262   -28120736.147 9  34901398.082 7
  20474572.214    20474573.600    -9805978.898 8   5013735.188 8
  20303741.784    20303744.608    21110667.096 7 -58342067.656 6
 86  6 20  1 55 29.0800000  0  3G12G13G 9
  21809570.781    21809574.303   -28136188.454 8  34889357.326 6
  20474540.455    20474541.509    -9806142.718 8   5013607.538 7
  20305499.533    20305500.524    21119896.499 7 -58334875.925 7
 86  6 20  1 55 35.0800000  0  3G12G13G 9
  21806633.823    21806636.197   -28151625.669 8  34877328.333 9
  20474512.403    20474514.560    -9806290.042 8   5013492.750 8
  20307260.081    20307261.878    21129150.730 7 -58327664.817 8
 86  6 20  1 55 41.0800000  0  3G12G13G 9
  21803697.299    21803701.013   -28167047.665 8  34865311.198 8
  20474487.798    20474488.887    -9806420.811 8   5013390.853 9
  20309025.032    20309027.909    21138429.735 7 -58320434.431 8
 86  6 20  1 55 47.0800000  0  3G12G13G 9
  21800767.232    21800768.467   -28182454.459 8  34853305.911 8
  20474465.121    20474466.762    -9806535.013 8   5013301.872 7
  20310795.023    20310799.041    21147733.652 8 -58313184.641 7
 86  6 20  1 55 53.0800000  0  3G12G13G 9
  21797838.574    21797838.067   -28197846.056 8  34841312.465 7
  20474445.963    20474447.229    -9806632.711 7   5013225.725 6
  20312571.670    20312573.874    21157062.246 6 -58305915.602 6
 86  6 20  1 55 59.0800000  0  3G12G13G 9
  21794911.496    21794914.241   -28213222.592 8  34829330.742 8
  20474430.658    20474433.157    -9806714.123 7   5013162.304 7
  20314351.435    20314353.740    21166415.560 6 -58298627.306 7
 86  6 20  1 56  5.0800000  0  3G12G13G 9
  21791988.261    21791990.898   -28228583.660 8  34817361.090 7
  20474417.244    20474420.326    -9806778.796 8   5013111.917 6
  20316137.044    20316137.183    21175793.895 7 -58291319.512 5
 86  6 20  1 56 11.0800000  0  3G12G13G 9
  21789067.601    21789070.224   -28243929.575 7  34805403.239 7
  20474408.790    20474411.706    -9806827.200 8   5013074.191 7
  20317922.575    20317928.972    21185196.742 6 -58283992.617 6
 86  6 20  1 56 17.0800000  0  3G12G13G 9
  21786150.527    21786154.023   -28259260.265 8  34793457.259 8
  20474403.352    20474405.579    -9806859.263 8   5013049.225 7
  20319717.418    20319722.986    21194624.286 7 -58276646.494 7
 86  6 20  1 56 23.0800000  0  3G12G13G 9
  21783236.211    21783239.048   -28274575.546 9  34781523.279 8
  20474399.701    20474403.589    -9806874.787 8   5013037.133 7
  20321516.647    20321523.040    21204076.619 7 -58269281.039 8
 86  6 20  1 56 29.0800000  0  3G12G13G 9
  21780324.566    21780326.216   -28289875.394 8  34769601.324 7
  20474401.470    20474402.475    -9806873.884 8   5013037.840 7
  20323319.206    20323324.270    21213553.771 6 -58261896.246 8
 86  6 20  1 56 35.0800000  0  3G12G13G 9
  21777416.315    21777417.938   -28305159.973 8  34757691.266 8
  20474402.969    20474406.997    -9806856.598 8   5013051.303 8
  20325129.097    20325132.901    21223055.572 6 -58254492.249 7
 86  6 20  1 56 41.0800000  0  3G12G13G 9
  21774511.171    21774512.751   -28320429.261 8  34745793.115 6
  20474411.141    20474415.213    -9806822.987 7   5013077.502 7
  20326938.161    20326943.257    21232581.956 5 -58247069.079 6
 86  6 20  1 56 47.0800000  0  3G12G13G 9
  21771608.332    21771609.174   -28335682.888 8  34733907.180 7
  20474420.403    20474422.877    -9806772.782 8   5013116.632 8
  20328757.899    20328762.490    21242133.343 6 -58239626.443 6
 86  6 20  1 56 53.0800000  0  3G12G13G 9
  21768709.210    21768710.770   -28350921.059 8  34722033.296 7
  20474433.374    20474435.647    -9806706.129 8   5013168.566 7
  20330580.986    20330585.626    21251709.351 6 -58232164.631 7
 86  6 20  1 56 59.0800000  0  3G12G13G 9
  21765812.226    21765813.997   -28366143.923 8  34710171.317 9
  20474449.343    20474451.746    -9806623.262 8   5013233.141 9
  20332408.185    20332412.288    21261309.923 7 -58224683.651 8
 86  6 20  1 57  5.0800000  0  3G12G13G 9
  21762918.619    21762919.366   -28381351.229 8  34698321.466 7
  20474468.060    20474469.497    -9806523.935 8   5013310.539 8
  20334240.844    20334243.415    21270935.286 6 -58217183.367 8
 86  6 20  1 57 11.0800000  0  3G12G13G 9
  21760027.741    21760029.624   -28396542.976 9  34686483.744 8
  20474490.015    20474492.387    -9806408.189 8   5013400.719 8
  20336076.323    20336079.259    21280585.318 6 -58209663.865 8
 86  6 20  1 57 17.0800000  0  3G12G13G 9
  21757139.509    21757143.080   -28411719.272 8  34674658.051 7
  20474514.283    20474517.165    -9806276.252 7   5013503.515 7
  20337918.236    20337920.852    21290259.957 7 -58202125.194 6
 86  6 20  1 57 23.0800000  0  3G12G13G 9
  21754254.876    21754257.950   -28426879.986 9  34662844.515 8
  20474541.730    20474544.071    -9806127.985 7   5013619.050 6
  20339764.091    20339765.028    21299959.296 7 -58194567.275 7
 86  6 20  1 57 29.0800000  0  3G12G13G 9
  21751372.673    21751376.136   -28442025.086 8  34651043.143 7
  20474573.581    20474575.237    -9805963.364 7   5013747.322 6
  20341615.010    20341616.128    21309683.221 7 -58186990.191 6
 86  6 20  1 57 35.0800000  0  3G12G13G 9
  21748494.083    21748496.231   -28457154.505 9  34639253.985 8
  20474607.936    20474611.207    -9805782.358 7   5013888.377 6
  20343469.168    20343471.035    21319431.863 7 -58179393.858 7
 86  6 20  1 57 41.0800000  0  3G12G13G 9
  21745619.212    21745619.973   -28472268.375 8  34627476.929 7
  20474644.843    20474647.066    -9805585.082 8   5014042.096 6
  20345329.113    20345331.497    21329205.070 7 -58171778.377 7
 86  6 20  1 57 47.0800000  0  3G12G13G 9
  21742745.690    21742747.714   -28487366.581 8  34615712.107 7
  20474686.350    20474689.312    -9805371.545 8   5014208.482 7
  20347191.556    20347194.359    21339002.950 7 -58164143.651 7
 86  6 20  1 57 53.0800000  0  3G12G13G 9
  21739874.156    21739877.658   -28502449.090 8  34603959.510 7
  20474729.820    20474733.416    -9805141.752 8   5014387.554 5
  20349062.839    20349064.830    21348825.408 7 -58156489.807 7
 86  6 20  1 57 59.0800000  0  3G12G13G 9
  21737007.133    21737011.289   -28517515.916 9  34592219.121 6
  20474778.266    20474779.218    -9804895.770 8   5014579.238 6
  20350936.622    20350939.195    21358672.443 6 -58148816.780 8
 86  6 20  1 58  5.0800000  0  3G12G13G 9
  21734142.588    21734146.544   -28532567.024 8  34580490.985 7
  20474827.085    20474829.959    -9804633.636 8   5014783.511 6
  20352815.193    20352817.828    21368544.167 7 -58141124.552 7
 86  6 20  1 58 11.0800000  0  3G12G13G 9
  21731281.093    21731284.407   -28547602.375 9  34568775.132 8
  20474879.783    20474882.237    -9804355.316 8   5015000.375 6
  20354699.515    20354701.254    21378440.396 7 -58133413.202 7
 86  6 20  1 58 17.0800000  0  3G12G13G 9
  21728422.943    21728428.206   -28562621.969 8  34557071.561 9
  20474936.100    20474937.033    -9804060.895 7   5015229.802 8
  20356585.804    20356589.726    21388361.094 7 -58125682.783 8
 86  6 20  1 58 23.0800000  0  3G12G13G 9
  21725568.635    21725572.586   -28577625.712 8  34545380.335 6
  20474994.685    20474996.096    -9803750.227 8   5015471.897 7
  20358479.435    20358482.117    21398306.457 8 -58117933.154 7
 86  6 20  1 58 29.0800000  0  3G12G13G 9
  21722715.280    21722720.086   -28592613.641 8  34533701.430 7
  20475055.941    20475060.407    -9803423.348 8   5015726.600 6
  20360376.295    20360379.984    21408276.392 8 -58110164.375 6
 86  6 20  1 58 35.0800000  0  3G12G13G 9
  21719866.767    21719871.317   -28607585.748 9  34522034.867 7
  20475121.518    20475123.466    -9803080.374 8   5015993.858 7
  20362279.557    20362280.245    21418270.851 7 -58102376.469 6
 86  6 20  1 58 41.0800000  0  3G12G13G 9
  21717020.900    21717025.142   -28622541.980 8  34510380.667 8
  20475190.518    20475192.148    -9802721.250 7   5016273.699 7
  20364184.457    20364186.689    21428289.754 8 -58094569.546 7
 86  6 20  1 58 47.0800000  0  3G12G13G 9
  21714178.191    21714182.077   -28637482.289 8  34498738.883 9
  20475262.847    20475263.356    -9802345.951 8   5016566.133 8
  20366097.275    20366098.176    21438333.272 7 -58086743.416 7
 86  6 20  1 58 53.0800000  0  3G12G13G 9
  21711337.526    21711342.961   -28652406.657 9  34487109.495 7
  20475337.090    20475338.614    -9801954.491 8   5016871.182 6
  20368012.364    20368014.090    21448401.443 7 -58078898.083 6
 86  6 20  1 58 59.0800000  0  3G12G13G 9
  21708501.464    21708505.207   -28667315.100 9  34475492.536 9
  20475415.716    20475416.443    -9801546.982 8   5017188.721 7
  20369934.061    20369932.889    21458494.138 7 -58071033.649 7
 86  6 20  1 59  5.0800000  0  3G12G13G 9
  21705667.445    21705669.869   -28682207.576 8  34463888.023 7
  20475496.471    20475497.535    -9801123.373 8   5017518.821 6
  20371859.769    20371859.436    21468611.206 8 -58063150.235 6
 86  6 20  1 59 11.0800000  0  3G12G13G 9
  21702837.645    21702840.578   -28697084.068 9  34452295.950 8
  20475581.442    20475581.741    -9800683.666 8   5017861.446 6
  20373788.477    20373788.784    21478752.765 7 -58055247.722 7
 86  6 20  1 59 17.0800000  0  3G12G13G 9
  21700008.877    21700013.777   -28711944.541 9  34440716.358 6
  20475666.556    20475667.414    -9800227.907 8   5018216.589 5
  20375723.304    20375721.183    21488918.810 7 -58047326.125 6
 86  6 20  1 59 23.0800000  0  3G12G13G 9
  21697186.068    21697187.021   -28726788.974 9  34429149.279 7
  20475755.110    20475757.621    -9799756.075 8   5018584.253 5
  20377660.568    20377662.927    21499109.331 6 -58039385.471 6
 86  6 20  1 59 29.0800000  0  3G12G13G 9
  21694364.119    21694364.814   -28741617.353 9  34417594.692 6
  20475848.426    20475852.405    -9799268.201 7   5018964.417 6
  20379604.504    20379606.905    21509324.189 7 -58031425.832 6
 86  6 20  1 59 35.0800000  0  3G12G13G 9
  21691546.745    21691545.609   -28756429.639 8  34406052.650 6
  20475944.397    20475947.403    -9798764.324 7   5019357.022 6
  20381553.476    20381554.001    21519563.526 7 -58023447.140 5
 86  6 20  1 59 41.0800000  0  3G12G13G 9
  21688730.525    21688730.549   -28771225.802 9  34394523.188 7
  20476042.980    20476045.501    -9798244.398 7   5019762.176 6
  20383506.308    20383508.331    21529827.356 7 -58015449.347 7
 86  6 20  1 59 47.0800000  0  3G12G13G 9
  21685917.328    21685918.851   -28786005.956 9  34383006.175 6
  20476144.754    20476149.206    -9797708.522 8   5020179.752 6
  20385464.776    20385466.428    21540115.569 6 -58007432.559 6
 86  6 20  1 59 53.0800000  0  3G12G13G 9
  21683107.339    21683107.851   -28800769.979 9  34371501.752 7
  20476250.671    20476250.425    -9797156.629 8   5020609.805 6
  20387426.432    20387427.957    21550428.249 7 -57999396.707 6
 86  6 20  1 59 59.0800000  0  3G12G13G 9
  21680300.980    21680301.568   -28815517.815 9  34360009.929 7
  20476359.306    20476360.374    -9796588.826 8   5021052.256 7
  20389393.801    20389393.739    21560765.239 6 -57991341.895 7
 86  6 20  2  0  5.0800000  0  3G12G13G 9
  21677498.152    21677499.465   -28830249.345 8  34348530.823 5
  20476469.699    20476469.840    -9796005.012 8   5021507.181 6
  20391365.320    20391365.722    21571126.700 7 -57983268.063 4
 86  6 20  2  0 11.0800000  0  3G12G13G 9
  21674696.779    21674700.272   -28844964.551 9  34337064.404 5
  20476584.041    20476582.372    -9795405.242 8   5021974.529 5
  20393341.189    20393343.093    21581512.499 7 -57975175.217 4
 86  6 20  2  0 17.0800000  0  3G12G13G 9
  21671900.552    21671899.816   -28859663.526 9  34325610.659 6
  20476701.564    20476701.536    -9794789.589 8   5022454.297 4
  20395322.904    20395323.889    21591922.622 6 -57967063.434 5
 86  6 20  2  0 23.0800000  0  3G12G13G 9
  21669104.619    21669107.066   -28874346.273 9  34314169.559 5
  20476820.606    20476822.863    -9794157.996 8   5022946.440 5
  20397306.210    20397309.059    21602357.156 7 -57958932.638 5
 86  6 20  2  0 29.0800000  0  3G12G13G 9
  21666314.807    21666314.587   -28889012.716 9  34302741.160 7
  20476944.213    20476946.148    -9793510.496 8   5023450.975 7
  20399296.567    20399298.340    21612816.007 7 -57950782.866 5
 86  6 20  2  0 35.0800000  0  3G12G13G 9
  21663526.473    21663527.949   -28903662.788 8  34291325.513 7
  20477070.121    20477072.163    -9792847.111 8   5023967.919 6
  20401291.695    20401293.106    21623299.215 6 -57942614.164 5
 86  6 20  2  0 41.0800000  0  3G12G13G 9
  21660742.176    21660743.008   -28918296.582 8  34279922.562 7
  20477199.566    20477203.066    -9792167.845 8   5024497.185 6
  20403292.040    20403294.627    21633806.774 6 -57934426.454 6
 86  6 20  2  0 47.0800000  0  3G12G13G 9
  21657960.618    21657960.753   -28932914.023 9  34268532.351 6
  20477332.499    20477336.115    -9791472.649 8   5025038.899 5
  20405295.521    20405299.293    21644338.659 7 -57926219.784 5
 86  6 20  2  0 53.0800000  0  3G12G13G 9
  21655181.372    21655183.061   -28947515.114 9  34257154.881 6
  20477467.241    20477470.476    -9790761.653 7   5025592.926 6
  20407306.084    20407307.256    21654894.788 6 -57917994.231 5
 86  6 20  2  0 59.0800000  0  3G12G13G 9
  21652407.405    21652408.508   -28962099.778 9  34245790.196 5
  20477604.970    20477609.762    -9790034.840 7   5026159.262 6
  20409318.740    20409319.432    21665475.338 5 -57909749.657 6
 86  6 20  2  1  5.0800000  0  3G12G13G 9
  21649635.089    21649634.292   -28976668.035 9  34234438.311 6
  20477745.674    20477750.968    -9789292.237 8   5026737.917 7
  20411336.510    20411338.404    21676080.052 6 -57901486.223 7
 86  6 20  2  1 11.0800000  0  3G12G13G 9
  21646864.578    21646866.653   -28991219.811 8  34223099.260 7
  20477891.359    20477894.728    -9788533.808 7   5027328.907 6
  20413360.047    20413361.689    21686709.004 6 -57893203.934 8
 86  6 20  2  1 17.0800000  0  3G12G13G 9
  21644098.740    21644101.193   -29005755.079 9  34211773.073 5
  20478038.001    20478041.218    -9787759.524 7   5027932.236 6
  20415386.864    20415387.077    21697362.339 7 -57884902.626 6
 86  6 20  2  1 23.0800000  0  3G12G13G 9
  21641335.710    21641337.576   -29020273.859 8  34200459.747 7
  20478187.261    20478191.974    -9786969.386 7   5028547.945 8
  20417418.204    20417420.095    21708039.910 6 -57876582.450 7
 86  6 20  2  1 29.0800000  0  3G12G13G 9
  21638577.241    21638579.370   -29034776.100 9  34189159.292 6
  20478340.617    20478343.865    -9786163.451 8   5029175.960 6
  20419454.050    20419456.434    21718741.638 6 -57868243.436 5
 86  6 20  2  1 35.0800000  0  3G12G13G 9
  21635821.201    21635821.514   -29049261.753 9  34177871.758 6
  20478496.136    20478499.575    -9785341.699 7   5029816.275 7
  20421495.691    20421495.107    21729467.601 6 -57859885.549 6
 86  6 20  2  1 41.0800000  0  3G12G13G 9
  21633067.464    21633068.204   -29063730.791 9  34166597.187 5
  20478656.336    20478659.531    -9784504.349 8   5030468.772 5
  20423541.328    20423541.661    21740217.842 6 -57851508.753 3
 86  6 20  2  1 47.0800000  0  3G12G13G 9
  21630317.409    21630318.080   -29078183.316 9  34155335.473 5
  20478820.319    20478821.563    -9783651.370 7   5031133.430 7
  20425592.010    20425592.699    21750992.336 6 -57843113.047 5
 86  6 20  2  1 53.0800000  0  3G12G13G 9
  21627569.775    21627569.873   -29092619.260 8  34144086.686 7
  20478985.887    20478986.074    -9782782.632 8   5031810.394 6
  20427646.469    20427646.673    21761790.991 6 -57834698.508 6
 86  6 20  2  1 59.0800000  0  3G12G13G 9
  21624825.116    21624826.870   -29107038.529 8  34132850.889 7
  20479152.961    20479156.279    -9781898.174 8   5032499.575 6
  20429706.735    20429707.231    21772613.843 6 -57826265.110 6
 86  6 20  2  2  5.0800000  0  3G12G13G 9
  21622084.828    21622086.181   -29121441.111 8  34121628.094 8
  20479326.442    20479328.210    -9780998.061 8   5033200.954 8
  20431771.328    20431772.245    21783460.865 7 -57817812.907 6
 86  6 20  2  2 11.0800000  0  3G12G13G 9
  21619347.373    21619348.919   -29135827.022 8  34110418.302 7
  20479499.816    20479500.605    -9780082.204 8   5033914.634 6
  20433839.579    20433842.891    21794332.108 6 -57809341.825 5
 86  6 20  2  2 17.0800000  0  3G12G13G 9
  21616612.306    21616614.428   -29150196.228 8  34099221.515 8
  20479677.698    20479679.022    -9779150.819 7   5034640.366 7
  20435913.153    20435915.452    21805227.472 6 -57800851.924 7
 86  6 20  2  2 23.0800000  0  3G12G13G 9
  21613880.833    21613882.897   -29164548.672 8  34088037.799 6
  20479857.542    20479859.705    -9778203.787 8   5035378.307 7
  20437990.816    20437994.304    21816147.011 7 -57792343.199 5
 86  6 20  2  2 29.0800000  0  3G12G13G 9
  21611151.939    21611154.854   -29178884.332 9  34076867.161 7
  20480039.580    20480043.321    -9777241.035 8   5036128.511 7
  20440072.120    20440076.589    21827090.656 7 -57783815.693 7
 86  6 20  2  2 35.0800000  0  3G12G13G 9
  21608428.303    21608431.083   -29193203.285 8  34065709.509 5
  20480225.374    20480229.673    -9776262.718 6   5036890.826 6
  20442160.661    20442161.904    21838058.437 7 -57775269.360 6
 86  6 20  2  2 41.0800000  0  3G12G13G 9
  21605706.659    21605708.575   -29207505.373 8  34054565.035 6
  20480415.372    20480416.996    -9775268.764 7   5037665.342 6
  20444250.142    20444253.221    21849050.382 6 -57766704.233 6
 86  6 20  2  2 47.0800000  0  3G12G13G 9
  21602988.126    21602991.864   -29221790.628 7  34043433.681 7
  20480606.576    20480609.832    -9774259.197 7   5038452.018 7
  20446346.992    20446349.274    21860066.427 7 -57758120.287 7
 86  6 20  2  2 53.0800000  0  3G12G13G 9
  21600272.550    21600276.020   -29236059.066 8  34032315.416 6
  20480801.473    20480804.687    -9773234.080 7   5039250.828 6
  20448448.270    20448449.066    21871106.502 7 -57749517.640 6
 86  6 20  2  2 59.0800000  0  3G12G13G 9
  21597560.915    21597564.114   -29250310.653 8  34021210.283 5
  20481000.406    20481002.190    -9772193.385 7   5040061.754 5
  20450553.498    20450554.358    21882170.801 6 -57740896.105 7
 86  6 20  2  3  5.0800000  0  3G12G13G 9
  21594852.683    21594855.016   -29264545.314 8  34010118.340 7
  20481199.727    20481204.231    -9771137.108 7   5040884.833 7
  20452662.814    20452665.605    21893259.083 7 -57732255.897 6
 86  6 20  2  3 11.0800000  0  3G12G13G 9
  21592146.095    21592150.141   -29278763.048 8  33999039.580 6
  20481403.416    20481407.710    -9770065.350 7   5041719.980 6
  20454776.909    20454778.550    21904371.265 7 -57723597.068 6
 86  6 20  2  3 17.0800000  0  3G12G13G 9
  21589445.213    21589447.319   -29292963.790 8  33987974.075 7
  20481611.653    20481614.551    -9768978.030 7   5042567.259 8
  20456895.040    20456900.079    21915507.569 7 -57714919.433 7
 86  6 20  2  3 23.0800000  0  3G12G13G 9
  21586745.884    21586747.489   -29307147.634 8  33976921.744 8
  20481819.311    20481824.220    -9767875.193 7   5043426.604 8
  20459019.164    20459021.868    21926667.909 7 -57706223.070 7
 86  6 20  2  3 29.0800000  0  3G12G13G 9
  21584049.746    21584051.363   -29321314.465 8  33965882.647 6
  20482032.239    20482036.487    -9766756.906 7   5044298.011 7
  20461149.366    20461153.600    21937852.275 7 -57697508.009 6
 86  6 20  2  3 35.0800000  0  3G12G13G 9
  21581357.224    21581359.473   -29335464.271 9  33954856.829 8
  20482248.847    20482252.895    -9765623.082 8   5045181.519 7
  20463282.607    20463285.789    21949060.649 6 -57688774.200 7
 86  6 20  2  3 41.0800000  0  3G12G13G 9
  21578667.787    21578670.624   -29349597.063 8  33943844.260 7
  20482467.925    20482470.972    -9764473.756 7   5046077.096 7
  20465419.400    20465422.756    21960293.059 6 -57680021.684 6
 86  6 20  2  3 47.0800000  0  3G12G13G 9
  21575982.528    21575983.873   -29363712.809 8  33932844.978 7
  20482691.027    20482692.226    -9763309.002 7   5046984.697 7
  20467561.755    20467565.177    21971549.456 6 -57671250.464 6
 86  6 20  2  3 53.0800000  0  3G12G13G 9
  21573300.019    21573300.576   -29377811.480 9  33921858.987 7
  20482915.883    20482915.223    -9762128.849 7   5047904.294 6
  20469709.031    20469712.732    21982829.743 7 -57662460.605 5
 86  6 20  2  3 59.0800000  0  3G12G13G 9
  21570620.426    21570622.288   -29391893.076 9  33910886.319 8
  20483144.171    20483145.101    -9760933.257 8   5048835.932 6
  20471859.808    20471863.877    21994133.981 6 -57653652.120 6
 86  6 20  2  4  5.0800000  0  3G12G13G 9
  21567943.456    21567942.921   -29405957.611 9  33899926.933 6
  20483373.771    20483375.451    -9759722.221 8   5049779.591 6
  20474016.604    20474018.765    22005462.188 6 -57644824.949 6
 86  6 20  2  4 11.0800000  0  3G12G13G 9
  21565270.350    21565270.131   -29420004.911 8  33888980.989 6
  20483606.309    20483608.964    -9758495.750 9   5050735.296 6
  20476175.167    20476179.803    22016814.307 7 -57635979.147 7
 86  6 20  2  4 17.0800000  0  3G12G13G 9
  21562600.344    21562600.506   -29434035.009 8  33878048.444 5
  20483843.936    20483845.037    -9757253.948 8   5051702.922 5
  20478339.815    20478342.998    22028190.384 7 -57627114.673 6
 86  6 20  2  4 23.0800000  0  3G12G13G 9
  21559934.062    21559934.295   -29448047.861 8  33867129.329 7
  20484082.573    20484084.214    -9755996.832 8   5052682.507 5
  20480510.240    20480511.332    22039590.443 7 -57618231.503 6
 86  6 20  2  4 29.0800000  0  3G12G13G 9
  21557270.342    21557272.180   -29462043.486 9  33856223.663 8
  20484323.293    20484327.811    -9754724.281 8   5053674.104 6
  20482684.833    20482685.665    22051014.395 6 -57609329.711 7
 86  6 20  2  4 35.0800000  0  3G12G13G 9
  21554610.087    21554610.809   -29476021.825 9  33845331.436 7
  20484570.043    20484572.646    -9753436.395 7   5054677.655 6
  20484862.895    20484864.356    22062462.166 7 -57600409.365 6
 86  6 20  2  4 41.0800000  0  3G12G13G 9
  21551954.712    21551954.774   -29489982.862 9  33834452.706 6
  20484817.912    20484820.567    -9752133.147 8   5055693.184 7
  20487045.014    20487046.911    22073933.895 7 -57591470.364 6
 86  6 20  2  4 47.0800000  0  3G12G13G 9
  21549298.969    21549301.330   -29503926.647 8  33823587.420 6
  20485069.922    20485072.069    -9750814.600 8   5056720.619 8
  20489233.006    20489233.458    22085429.378 7 -57582512.848 6
 86  6 20  2  4 53.0800000  0  3G12G13G 9
  21546649.434    21546652.028   -29517853.109 8  33812735.618 5
  20485323.245    20485327.334    -9749480.714 8   5057760.019 6
  20491425.233    20491424.092    22096948.829 8 -57573536.652 5
 86  6 20  2  4 59.0800000  0  3G12G13G 9
  21544004.110    21544004.067   -29531762.221 8  33801897.353 7
  20485580.885    20485581.478    -9748131.470 8   5058811.386 7
  20493622.719    20493621.099    22108492.120 7 -57564541.876 6
 86  6 20  2  5  5.0800000  0  3G12G13G 9
  21541356.719    21541362.509   -29545653.940 8  33791072.665 7
  20485839.585    20485842.944    -9746766.950 9   5059874.662 7
  20495822.454    20495821.826    22120059.160 7 -57555528.614 5
 86  6 20  2  5 11.0800000  0  3G12G13G 9
  21538717.802    21538721.306   -29559528.245 8  33780261.509 5
  20486102.130    20486103.480    -9745387.160 8   5060949.822 6
  20498029.335    20498027.405    22131650.112 6 -57546496.699 3
 86  6 20  2  5 17.0800000  0  3G12G13G 9
  21536080.004    21536083.933   -29573385.182 7  33769463.899 6
  20486367.686    20486371.192    -9743992.106 8   5062036.884 5
  20500240.009    20500238.374    22143264.876 7 -57537446.249 4
 86  6 20  2  5 23.0800000  0  3G12G13G 9
  21533446.393    21533452.894   -29587224.690 8  33758679.889 7
  20486636.253    20486638.813    -9742581.798 8   5063135.837 6
  20502452.615    20502453.389    22154903.399 5 -57528377.266 5
 86  6 20  2  5 29.0800000  0  3G12G13G 9
  21530816.403    21530822.124   -29601046.820 8  33747909.392 7
  20486908.363    20486908.013    -9741156.364 8   5064246.578 7
  20504672.948    20504672.897    22166565.641 7 -57519289.814 6
 86  6 20  2  5 35.0800000  0  3G12G13G 9
  21528189.707    21528194.393   -29614851.498 7  33737152.510 9
  20487181.455    20487181.767    -9739715.754 8   5065369.127 6
  20506897.054    20506896.639    22178251.787 6 -57510183.738 6
 86  6 20  2  5 41.0800000  0  3G12G13G 9
  21525564.545    21525570.855   -29628638.660 7  33726409.267 7
  20487458.877    20487457.650    -9738260.011 8   5066503.493 5
  20509125.648    20509126.172    22189961.717 7 -57501059.103 5
 86  6 20  2  5 47.0800000  0  3G12G13G 9
  21522945.574    21522950.576   -29642408.265 7  33715679.706 8
  20487739.526    20487738.332    -9736789.121 9   5067649.646 7
  20511359.318    20511359.158    22201695.249 8 -57491916.107 6
 86  6 20  2  5 53.0800000  0  3G12G13G 9
  21520327.123    21520334.377   -29656160.352 8  33704963.801 6
  20488022.883    20488022.205    -9735303.126 8   5068807.564 5
  20513596.479    20513598.042    22213452.486 7 -57482754.626 6
 86  6 20  2  5 59.0800000  0  3G12G13G 9
  21517715.076    21517719.430   -29669894.890 8  33694261.579 7
  20488308.346    20488307.075    -9733801.919 8   5069977.340 5
  20515839.052    20515836.284    22225233.509 6 -57473574.603 7
 86  6 20  2  6  5.0800000  0  3G12G13G 9
  21515103.511    21515109.000   -29683611.846 7  33683573.041 6
  20488597.261    20488595.468    -9732285.533 8   5071158.937 6
  20518084.157    20518086.439    22237038.229 7 -57464376.143 6
 86  6 20  2  6 11.0800000  0  3G12G13G 9
  21512496.141    21512501.739   -29697311.173 8  33672898.241 6
  20488887.846    20488888.343    -9730754.007 8   5072352.331 5
  20520334.422    20520336.795    22248866.539 6 -57455159.272 6
 86  6 20  2  6 17.0800000  0  3G12G13G 9
  21509893.571    21509898.434   -29710992.837 7  33662237.212 6
  20489181.643    20489182.298    -9729207.336 8   5073557.524 6
  20522589.008    20522590.775    22260718.522 8 -57445923.956 6
 86  6 20  2  6 23.0800000  0  3G12G13G 9
  21507293.790    21507298.875   -29724656.873 7  33651589.923 6
  20489477.013    20489479.165    -9727645.569 9   5074774.516 7
  20524848.206    20524851.482    22272594.268 7 -57436670.141 6
 86  6 20  2  6 29.0800000  0  3G12G13G 9
  21504694.529    21504700.821   -29738303.233 7  33640956.388 6
  20489777.779    20489778.703    -9726068.715 7   5076003.220 6
  20527112.631    20527115.715    22284493.680 6 -57427397.884 5
 86  6 20  2  6 35.0800000  0  3G12G13G 9
  21502102.022    21502107.627   -29751931.926 7  33630336.640 6
  20490080.396    20490081.043    -9724476.811 7   5077243.681 7
  20529380.757    20529383.564    22296416.712 6 -57418107.205 6
 86  6 20  2  6 41.0800000  0  3G12G13G 9
  21499513.744    21499516.613   -29765542.874 8  33619730.702 6
  20490386.889    20490388.457    -9722869.861 7   5078495.853 6
  20531654.628    20531657.737    22308363.281 7 -57408798.196 4
 86  6 20  2  6 47.0800000  0  3G12G13G 9
  21496927.697    21496931.407   -29779136.167 7  33609138.537 6
  20490694.651    20490697.306    -9721247.881 7   5079759.742 6
  20533934.087    20533936.024    22320333.574 7 -57399470.717 6
 86  6 20  2  6 53.0800000  0  3G12G13G 9
  21494344.974    21494346.595   -29792711.717 7  33598560.186 6
  20491006.759    20491007.829    -9719610.861 8   5081035.339 7
  20536216.136    20536218.355    22332327.553 7 -57390124.754 6
 86  6 20  2  6 59.0800000  0  3G12G13G 9
  21491764.540    21491768.148   -29806269.518 7  33587995.680 8
  20491320.672    20491322.568    -9717958.814 8   5082322.651 8
  20538501.838    20538505.293    22344344.925 7 -57380760.575 6
 86  6 20  2  7  5.0800000  0  3G12G13G 9
  21489189.664    21489191.046   -29819809.484 8  33577445.062 8
  20491637.834    20491640.514    -9716291.805 8   5083621.627 6
  20540793.032    20540796.339    22356385.917 7 -57371377.987 6
 86  6 20  2  7 11.0800000  0  3G12G13G 9
  21486616.910    21486617.959   -29833331.584 8  33566908.360 8
  20491957.880    20491960.178    -9714609.881 8   5084932.226 7
  20543089.434    20543093.294    22368450.491 7 -57361977.031 7
 86  6 20  2  7 17.0800000  0  3G12G13G 9
  21484047.202    21484048.188   -29846835.762 8  33556385.621 7
  20492282.348    20492282.819    -9712912.989 8   5086254.482 7
  20545391.028    20545391.815    22380538.582 7 -57352557.755 6
 86  6 20  2  7 23.0800000  0  3G12G13G 9
  21481481.211    21481482.002   -29860322.056 9  33545876.832 5
  20492608.938    20492608.010    -9711201.152 8   5087588.391 5
  20547695.160    20547695.711    22392650.253 6 -57343120.099 5
 86  6 20  2  7 29.0800000  0  3G12G13G 9
  21478917.792    21478918.714   -29873790.459 9  33535381.966 7
  20492936.989    20492936.773    -9709474.368 7   5088933.943 5
  20550003.173    20550006.188    22404785.370 7 -57333664.135 7
 86  6 20  2  7 35.0800000  0  3G12G13G 9
  21476358.562    21476360.112   -29887240.905 8  33524901.089 7
  20493267.932    20493267.565    -9707732.665 8   5090291.102 5
  20552319.299    20552319.740    22416944.095 7 -57324189.824 5
 86  6 20  2  7 41.0800000  0  3G12G13G 9
  21473801.591    21473804.470   -29900673.345 8  33514434.263 8
  20493601.638    20493602.613    -9705976.055 7   5091659.901 6
  20554636.435    20554638.314    22429126.328 7 -57314697.183 6
 86  6 20  2  7 47.0800000  0  3G12G13G 9
  21471250.019    21471250.610   -29914087.799 9  33503981.441 6
  20493937.951    20493937.946    -9704204.565 8   5093040.263 6
  20556959.646    20556961.436    22441331.974 7 -57305186.280 6
 86  6 20  2  7 53.0800000  0  3G12G13G 9
  21468699.328    21468702.073   -29927484.233 8  33493542.655 6
  20494277.531    20494279.529    -9702418.227 8   5094432.213 6
  20559285.147    20559287.095    22453561.099 7 -57295657.100 6
 86  6 20  2  7 59.0800000  0  3G12G13G 9
  21466154.217    21466153.516   -29940862.610 8  33483117.942 6
  20494621.182    20494620.663    -9700616.971 8   5095835.780 5
  20561618.179    20561620.721    22465813.656 7 -57286109.661 5
 86  6 20  2  8  5.0800000  0  3G12G13G 9
  21463610.289    21463614.006   -29954222.932 9  33472707.314 6
  20494966.549    20494967.716    -9698800.841 7   5097250.961 6
  20563953.556    20563956.084    22478089.760 6 -57276543.869 5
 86  6 20  2  8 11.0800000  0  3G12G13G 9
  21461072.400    21461074.113   -29967565.169 8  33462310.746 5
  20495314.959    20495314.669    -9696969.850 8   5098677.699 5
  20566294.028    20566298.865    22490389.277 5 -57266959.831 5
 86  6 20  2  8 17.0800000  0  3G12G13G 9
  21458536.928    21458538.544   -29980889.340 9  33451928.291 6
  20495666.497    20495667.885    -9695124.034 7   5100115.998 6
  20568639.528    20568642.471    22502712.212 7 -57257357.521 5
 86  6 20  2  8 23.0800000  0  3G12G13G 9
  21456005.310    21456007.730   -29994195.369 8  33441559.949 5
  20496020.112    20496023.159    -9693263.389 8   5101565.862 5
  20570988.190    20570992.326    22515058.561 7 -57247737.023 5
 86  6 20  2  8 29.0800000  0  3G12G13G 9
  21453476.145    21453476.937   -30007483.261 8  33431205.753 8
  20496376.625    20496380.522    -9691387.918 8   5103027.278 6
  20573341.937    20573344.040    22527428.245 7 -57238098.290 6
 86  6 20  2  8 35.0800000  0  3G12G13G 9
  21450950.433    21450953.238   -30020753.007 7  33420865.697 7
  20496735.847    20496739.680    -9689497.685 8   5104500.184 7
  20575700.433    20575703.504    22539821.261 7 -57228441.396 7
 86  6 20  2  8 41.0800000  0  3G12G13G 9
  21448428.726    21448430.821   -30034004.612 8  33410539.773 7
  20497099.135    20497101.151    -9687592.744 7   5105984.542 6
  20578061.939    20578064.788    22552237.662 7 -57218766.288 5
 86  6 20  2  8 47.0800000  0  3G12G13G 9
  21445910.288    21445912.972   -30047238.020 9  33400228.034 7
  20497465.094    20497467.612    -9685673.098 7   5107480.375 7
  20580430.886    20580432.906    22564677.365 6 -57209073.022 7
 86  6 20  2  8 53.0800000  0  3G12G13G 9
  21443395.218    21443398.184   -30060453.206 8  33389930.482 7
  20497832.166    20497835.320    -9683738.730 7   5108987.679 5
  20582801.743    20582803.796    22577140.526 7 -57199361.470 6
 86  6 20  2  8 59.0800000  0  3G12G13G 9
  21440883.835    21440888.278   -30073650.214 8  33379647.106 6
  20498205.225    20498206.575    -9681789.691 8   5110506.420 7
  20585178.274    20585182.203    22589626.930 7 -57189631.803 6
 86  6 20  2  9  5.0800000  0  3G12G13G 9
  21438375.617    21438378.744   -30086828.881 8  33369378.014 8
  20498578.391    20498579.863    -9679825.958 8   5112036.598 7
  20587556.638    20587561.770    22602136.656 8 -57179883.993 7
 86  6 20  2  9 11.0800000  0  3G12G13G 9
  21435871.849    21435876.279   -30099989.251 8  33359123.182 6
  20498954.083    20498955.857    -9677847.580 8   5113578.192 6
  20589942.720    20589946.929    22614669.632 7 -57170118.024 7
 86  6 20  2  9 17.0800000  0  3G12G13G 9
  21433370.967    21433375.613   -30113131.322 9  33348882.605 7
  20499333.581    20499335.017    -9675854.392 7   5115131.323 5
  20592332.654    20592334.500    22627225.973 7 -57160333.880 6
 86  6 20  2  9 23.0800000  0  3G12G13G 9
  21430872.643    21430877.236   -30126255.048 9  33338656.335 7
  20499714.833    20499716.349    -9673846.572 8   5116695.870 7
  20594725.479    20594730.788    22639805.463 7 -57150531.665 6
 86  6 20  2  9 29.0800000  0  3G12G13G 9
  21428379.191    21428383.451   -30139360.377 8  33328444.380 8
  20500100.102    20500101.435    -9671824.135 8   5118271.782 7
  20597125.682    20597128.348    22652408.246 6 -57140711.321 8
 86  6 20  2  9 35.0800000  0  3G12G13G 9
  21425888.451    21425892.568   -30152447.365 7  33318246.731 6
  20500487.117    20500487.443    -9669787.098 8   5119859.101 6
  20599528.025    20599531.762    22665034.367 6 -57130872.784 5
 86  6 20  2  9 41.0800000  0  3G12G13G 9
  21423402.954    21423406.043   -30165515.970 7  33308063.401 5
  20500878.835    20500879.233    -9667735.368 8   5121457.844 5
  20601936.296    20601937.624    22677683.684 7 -57121016.186 6
 86  6 20  2  9 47.0800000  0  3G12G13G 9
  21420918.685    21420924.060   -30178566.167 8  33297894.434 6
  20501271.584    20501273.460    -9665669.046 8   5123067.979 7
  20604347.223    20604347.236    22690356.213 7 -57111141.488 6
 86  6 20  2  9 53.0800000  0  3G12G13G 9
  21418439.496    21418442.274   -30191597.892 8  33287739.846 7
  20501668.462    20501669.384    -9663588.004 8   5124689.567 6
  20606762.897    20606764.918    22703051.950 7 -57101248.722 4
 86  6 20  2  9 59.0800000  0  3G12G13G 9
  21415962.710    21415967.307   -30204611.151 9  33277599.634 8
  20502066.355    20502068.829    -9661492.358 9   5126322.549 6
  20609183.066    20609184.791    22715770.811 6 -57091337.918 5
 86  6 20  2 10  5.0800000  0  3G12G13G 9
  21413488.871    21413495.558   -30217605.953 8  33267473.842 6
  20502469.789    20502469.729    -9659382.138 8   5127966.870 6
  20611606.566    20611609.263    22728512.936 7 -57081409.005 6
 86  6 20  2 10 11.0800000  0  3G12G13G 9
  21411020.066    21411024.364   -30230582.166 7  33257362.505 7
  20502872.552    20502874.414    -9657257.411 9   5129622.503 6
  20614036.288    20614038.246    22741278.014 7 -57071462.198 7
 86  6 20  2 10 17.0800000  0  3G12G13G 9
  21408555.653    21408560.117   -30243539.921 8  33247265.557 8
  20503279.874    20503279.863    -9655118.148 8   5131289.472 6
  20616468.681    20616471.362    22754066.287 7 -57061497.313 6
 86  6 20  2 10 23.0800000  0  3G12G13G 9
  21406091.920    21406097.366   -30256479.186 8  33237183.019 8
  20503688.904    20503689.418    -9652964.407 8   5132967.725 5
  20618907.915    20618911.496    22766877.623 6 -57051514.460 6
 86  6 20  2 10 29.0800000  0  3G12G13G 9
  21403633.309    21403637.669   -30269399.932 8  33227114.907 8
  20504101.180    20504102.902    -9650796.148 8   5134657.273 7
  20621349.100    20621354.315    22779712.141 6 -57041513.542 7
 86  6 20  2 10 35.0800000  0  3G12G13G 9
  21401178.494    21401183.994   -30282301.995 8  33217061.360 7
  20504516.006    20504516.755    -9648613.379 8   5136358.146 6
  20623797.167    20623801.267    22792569.716 6 -57031494.660 8
 86  6 20  2 10 41.0800000  0  3G12G13G 9
  21398727.171    21398731.345   -30295185.357 8  33207022.389 7
  20504935.229    20504935.302    -9646416.221 8   5138070.217 6
  20626248.391    20626251.073    22805450.399 8 -57021457.772 6
 86  6 20  2 10 47.0800000  0  3G12G13G 9
  21396278.482    21396285.026   -30308050.076 8  33196997.930 7
  20505355.616    20505355.396    -9644204.575 8   5139793.579 6
  20628703.219    20628706.905    22818354.142 7 -57011402.913 6
 86  6 20  2 10 53.0800000  0  3G12G13G 9
  21393833.669    21393838.113   -30320896.203 8  33186987.967 7
  20505778.910    20505780.795    -9641978.493 8   5141528.195 7
  20631164.118    20631165.575    22831280.856 7 -57001330.142 6
 86  6 20  2 10 59.0800000  0  3G12G13G 9
  21391392.790    21391397.819   -30333723.544 9  33176992.642 7
  20506205.513    20506205.948    -9639737.850 7   5143274.173 7
  20633627.353    20633630.911    22844230.742 7 -56991239.330 8
 86  6 20  2 11  5.0800000  0  3G12G13G 9
  21388956.164    21388960.636   -30346532.158 8  33167011.912 6
  20506635.122    20506635.148    -9637482.736 8   5145031.397 6
  20636097.303    20636099.432    22857203.564 7 -56981130.635 6
 86  6 20  2 11 11.0800000  0  3G12G13G 9
  21386521.782    21386526.487   -30359322.137 7  33157045.696 6
  20507067.666    20507067.606    -9635213.336 8   5146799.767 6
  20638571.037    20638572.074    22870199.304 7 -56971004.098 6
 86  6 20  2 11 17.0800000  0  3G12G13G 9
  21384092.735    21384095.891   -30372093.354 8  33147094.106 6
  20507501.611    20507501.346    -9632929.568 9   5148579.323 7
  20641048.200    20641050.104    22883218.093 8 -56960859.598 6
 86  6 20  2 11 23.0800000  0  3G12G13G 9
  21381664.856    21381668.963   -30384845.822 9  33137157.131 6
  20507939.421    20507940.471    -9630631.415 8   5150370.095 7
  20643529.805    20643531.199    22896259.873 8 -56950697.159 6
 86  6 20  2 11 29.0800000  0  3G12G13G 9
  21379242.535    21379244.940   -30397579.470 7  33127234.802 7
  20508378.823    20508380.214    -9628318.960 8   5152172.017 8
  20646016.295    20646020.089    22909324.660 7 -56940516.822 6
 86  6 20  2 11 35.0800000  0  3G12G13G 9
  21376824.485    21376825.207   -30410294.398 9  33117327.062 8
  20508822.387    20508824.126    -9625992.197 8   5153985.082 8
  20648506.289    20648509.694    22922412.306 7 -56930318.642 8
 86  6 20  2 11 41.0800000  0  3G12G13G 9
  21374408.092    21374408.536   -30422990.494 7  33107433.990 6
  20509266.411    20509268.383    -9623651.086 8   5155809.316 6
  20651000.683    20651004.004    22935522.878 5 -56920102.629 6
 86  6 20  2 11 47.0800000  0  3G12G13G 9
  21371994.826    21371996.407   -30435667.733 8  33097555.639 7
  20509715.097    20509716.354    -9621295.638 7   5157644.741 7
  20653499.514    20653503.272    22948656.323 7 -56909868.775 5
 86  6 20  2 11 53.0800000  0  3G12G13G 9
  21369587.885    21369587.785   -30448326.030 8  33087692.030 6
  20510166.147    20510168.556    -9618925.884 9   5159491.291 6
  20656003.980    20656007.659    22961812.780 7 -56899617.003 6
 86  6 20  2 11 59.0800000  0  3G12G13G 9
  21367182.508    21367181.429   -30460965.357 9  33077843.205 7
  20510620.859    20510621.572    -9616541.789 8   5161349.029 7
  20658511.166    20658516.049    22974992.096 8 -56889347.390 6
 86  6 20  2 12  5.0800000  0  3G12G13G 9
  21364779.864    21364781.045   -30473585.758 9  33068009.137 8
  20511077.699    20511077.832    -9614143.412 8   5163217.904 7
  20661026.091    20661027.665    22988194.244 7 -56879060.017 7
 86  6 20  2 12 11.0800000  0  3G12G13G 9
  21362383.278    21362382.334   -30486187.202 8  33058189.820 7
  20511536.332    20511537.488    -9611730.771 8   5165097.883 6
  20663539.991    20663543.988    23001419.251 7 -56868754.801 8
 86  6 20  2 12 17.0800000  0  3G12G13G 9
  21359986.922    21359988.038   -30498769.680 9  33048385.298 6
  20511998.183    20512000.133    -9609303.884 8   5166988.946 7
  20666061.469    20666064.072    23014667.176 8 -56858431.750 8
 86  6 20  2 12 23.0800000  0  3G12G13G 9
  21357596.596    21357596.048   -30511333.107 8  33038595.609 7
  20512462.789    20512463.449    -9606862.735 8   5168891.148 7
  20668587.106    20668590.545    23027937.884 8 -56848090.954 7
 86  6 20  2 12 29.0800000  0  3G12G13G 9
  21355208.941    21355208.767   -30523877.579 8  33028820.693 7
  20512929.451    20512933.131    -9604407.348 8   5170804.432 7
  20671115.995    20671119.164    23041231.444 7 -56837732.335 8
 86  6 20  2 12 35.0800000  0  3G12G13G 9
  21352825.715    21352826.614   -30536403.077 8  33019060.576 6
  20513399.790    20513402.022    -9601937.758 7   5172728.780 6
  20673651.511    20673653.513    23054547.789 7 -56827355.957 6
 86  6 20  2 12 41.0800000  0  3G12G13G 9
  21350446.707    21350445.663   -30548909.487 9  33009315.324 6
  20513871.204    20513873.318    -9599454.035 8   5174664.150 8
  20676188.902    20676190.932    23067886.842 8 -56816961.900 7
 86  6 20  2 12 47.0800000  0  3G12G13G 9
  21348070.036    21348071.007   -30561396.822 9  32999584.932 7
  20514345.508    20514350.043    -9596956.148 7   5176610.555 8
  20678732.645    20678735.279    23081248.731 6 -56806550.049 7
 86  6 20  2 12 53.0800000  0  3G12G13G 9
  21345697.349    21345698.388   -30573864.995 8  32989869.475 7
  20514824.489    20514827.207    -9594444.194 6   5178567.914 8
  20681278.103    20681282.690    23094633.346 7 -56796120.468 7
 86  6 20  2 12 59.0800000  0  3G12G13G 9
  21343328.929    21343328.442   -30586314.110 9  32980168.855 7
  20515306.439    20515307.559    -9591918.137 7   5180536.271 8
  20683830.384    20683833.704    23108040.626 8 -56785673.227 7
 86  6 20  2 13  5.0800000  0  3G12G13G 9
  21340964.470    21340964.605   -30598744.133 8  32970483.130 7
  20515788.408    20515791.527    -9589377.887 8   5182515.689 7
  20686385.654    20686388.929    23121470.662 7 -56775208.281 7
 86  6 20  2 13 11.0800000  0  3G12G13G 9
  21338602.359    21338601.364   -30611155.005 9  32960812.323 5
  20516276.608    20516275.659    -9586823.556 8   5184506.076 7
  20688945.858    20688951.877    23134923.452 8 -56764725.571 6
 86  6 20  2 13 17.0800000  0  3G12G13G 9
  21336244.875    21336243.593   -30623546.669 9  32951156.480 8
  20516765.369    20516767.532    -9584255.138 9   5186507.445 7
  20691509.035    20691514.226    23148398.886 7 -56754225.229 7
 86  6 20  2 13 23.0800000  0  3G12G13G 9
  21333890.663    21333889.883   -30635919.047 9  32941515.658 7
  20517257.177    20517257.291    -9581672.684 9   5188519.755 8
  20694079.981    20694082.226    23161897.027 7 -56743707.216 7
 86  6 20  2 13 29.0800000  0  3G12G13G 9
  21331539.565    21331539.597   -30648272.186 9  32931889.831 7
  20517751.807    20517750.674    -9579076.174 8   5190543.007 6
  20696652.389    20696655.015    23175417.714 8 -56733171.615 7
 86  6 20  2 13 35.0800000  0  3G12G13G 9
  21329192.502    21329193.822   -30660606.052 8  32922279.030 7
  20518249.148    20518248.096    -9576465.614 9   5192577.215 7
  20699227.477    20699232.072    23188961.038 8 -56722618.373 6
 86  6 20  2 13 41.0800000  0  3G12G13G 9
  21326849.330    21326850.336   -30672920.554 8  32912683.314 7
  20518746.192    20518747.752    -9573840.962 8   5194622.397 6
  20701809.193    20701812.859    23202527.043 7 -56712047.466 6
 86  6 20  2 13 47.0800000  0  3G12G13G 9
  21324508.598    21324510.125   -30685215.733 9  32903102.660 6
  20519247.770    20519250.723    -9571202.214 8   5196678.562 6
  20704396.182    20704398.927    23216115.720 8 -56701458.893 7
 86  6 20  2 13 53.0800000  0  3G12G13G 9
  21322174.035    21322173.904   -30697491.632 8  32893537.017 6
  20519753.652    20519754.141    -9568549.506 9   5198745.616 6
  20706987.578    20706989.116    23229726.944 8 -56690852.750 7
 86  6 20  2 13 59.0800000  0  3G12G13G 9
  21319841.136    21319839.883   -30709748.185 9  32883986.453 6
  20520259.722    20520262.458    -9565882.832 8   5200823.544 6
  20709582.067    20709584.280    23243360.777 7 -56680229.009 7
 86  6 20  2 14  5.0800000  0  3G12G13G 9
  21317512.282    21317512.729   -30721985.400 8  32874450.974 6
  20520770.944    20520772.492    -9563202.118 9   5202912.400 6
  20712179.933    20712182.218    23257017.119 7 -56669587.701 6
 86  6 20  2 14 11.0800000  0  3G12G13G 9
  21315186.251    21315187.915   -30734203.274 8  32864930.545 6
  20521284.388    20521286.057    -9560507.397 8   5205012.195 6
  20714780.970    20714785.991    23270695.982 8 -56658928.859 6
 86  6 20  2 14 17.0800000  0  3G12G13G 9
  21312864.783    21312867.704   -30746401.742 9  32855425.254 7
  20521799.587    20521801.112    -9557798.716 8   5207122.863 8
  20717388.659    20717393.438    23284397.419 7 -56648252.415 7
 86  6 20  2 14 23.0800000  0  3G12G13G 9
  21310548.605    21310549.035   -30758580.791 9  32845935.083 6
  20522318.940    20522319.254    -9555076.151 8   5209244.354 7
  20719999.541    20720004.519    23298121.347 7 -56637558.455 7
 86  6 20  2 14 29.0800000  0  3G12G13G 9
  21308233.550    21308234.101   -30770740.421 9  32836460.055 6
  20522838.959    20522838.700    -9552339.678 8   5211376.673 6
  20722615.204    20722618.935    23311867.785 7 -56626846.937 5
 86  6 20  2 14 35.0800000  0  3G12G13G 9
  21305923.153    21305925.256   -30782880.550 8  32827000.207 7
  20523362.687    20523362.105    -9549589.358 9   5213519.792 7
  20725234.532    20725239.855    23325636.716 7 -56616117.899 7
 86  6 20  2 14 41.0800000  0  3G12G13G 9
  21303616.374    21303618.823   -30795001.249 9  32817555.507 6
  20523887.177    20523888.124    -9546825.153 9   5215673.726 7
  20727858.811    20727863.910    23339428.017 8 -56605371.438 6
 86  6 20  2 14 47.0800000  0  3G12G13G 9
  21301314.659    21301316.474   -30807102.450 8  32808126.002 6
  20524416.647    20524416.474    -9544047.059 8   5217838.478 7
  20730488.468    20730493.169    23353241.879 6 -56594607.400 5
 86  6 20  2 14 53.0800000  0  3G12G13G 9
  21299013.409    21299016.373   -30819184.120 9  32798711.710 7
  20524946.855    20524946.882    -9541255.093 9   5220014.045 7
  20733122.218    20733123.965    23367078.090 7 -56583825.930 7
 86  6 20  2 14 59.0800000  0  3G12G13G 9
  21296718.599    21296722.794   -30831246.185 8  32789312.717 8
  20525480.348    20525481.509    -9538449.348 8   5222200.330 6
  20735759.797    20735763.190    23380936.804 8 -56573026.946 6
 86  6 20  2 15  5.0800000  0  3G12G13G 9
  21294426.916    21294430.204   -30843288.654 8  32779928.981 8
  20526016.677    20526017.537    -9535629.793 8   5224397.389 7
  20738402.279    20738402.512    23394817.865 8 -56562210.546 6
 86  6 20  2 15 11.0800000  0  3G12G13G 9
  21292140.753    21292142.834   -30855311.590 7  32770560.471 8
  20526556.221    20526557.025    -9532796.431 8   5226605.202 6
  20741048.477    20741048.122    23408721.330 7 -56551376.697 5
 86  6 20  2 15 17.0800000  0  3G12G13G 9
  21289856.732    21289858.666   -30867314.861 8  32761207.267 6
  20527098.832    20527099.442    -9529949.230 7   5228823.789 6
  20743696.493    20743698.746    23422647.167 7 -56540525.385 6
 86  6 20  2 15 23.0800000  0  3G12G13G 9
  21287575.873    21287579.028   -30879298.436 8  32751869.423 7
  20527642.878    20527643.605    -9527088.263 8   5231053.118 7
  20746352.958    20746352.536    23436595.297 7 -56529656.721 6
 86  6 20  2 15 29.0800000  0  3G12G13G 9
  21285298.380    21285302.504   -30891262.446 8  32742546.828 7
  20528189.883    20528191.967    -9524213.486 9   5233293.211 6
  20749011.868    20749012.570    23450565.905 8 -56518770.559 7
 86  6 20  2 15 35.0800000  0  3G12G13G 9
  21283026.043    21283030.515   -30903206.819 8  32733239.533 6
  20528739.931    20528741.568    -9521324.976 8   5235543.991 6
  20751674.092    20751676.136    23464558.777 8 -56507867.035 6
 86  6 20  2 15 41.0800000  0  3G12G13G 9
  21280757.022    21280759.446   -30915131.373 9  32723947.675 7
  20529291.865    20529295.032    -9518422.742 9   5237805.474 7
  20754341.694    20754342.830    23478573.917 7 -56496946.137 7
 86  6 20  2 15 47.0800000  0  3G12G13G 9
  21278491.360    21278494.551   -30927036.196 8  32714671.206 7
  20529847.119    20529850.124    -9515506.746 8   5240077.681 7
  20757011.622    20757015.312    23492611.270 7 -56486007.933 7
 86  6 20  2 15 53.0800000  0  3G12G13G 9
  21276230.313    21276232.942   -30938921.318 9  32705410.072 7
  20530405.022    20530406.570    -9512577.090 8   5242360.523 7
  20759686.501    20759689.044    23506670.892 8 -56475052.392 7
 86  6 20  2 15 59.0800000  0  3G12G13G 9
  21273971.285    21273974.935   -30950786.677 8  32696164.346 7
  20530964.929    20530967.027    -9509633.756 9   5244654.046 7
  20762365.462    20762368.098    23520752.772 7 -56464079.500 6
 86  6 20  2 16  5.0800000  0  3G12G13G 9
  21271717.149    21271720.493   -30962632.235 9  32686934.045 6
  20531529.441    20531529.620    -9506676.758 7   5246958.194 7
  20765049.532    20765053.684    23534856.892 7 -56453089.287 5
 86  6 20  2 16 11.0800000  0  3G12G13G 9
  21269467.570    21269468.783   -30974457.916 8  32677719.231 6
  20532093.341    20532094.459    -9503706.112 7   5249272.983 7
  20767739.857    20767743.807    23548983.269 8 -56442081.714 6
 86  6 20  2 16 17.0800000  0  3G12G13G 9
  21267218.664    21267221.516   -30986263.800 8  32668519.853 6
  20532660.443    20532662.245    -9500721.789 8   5251598.439 6
  20770432.217    20770435.674    23563131.924 8 -56431056.780 6
 86  6 20  2 16 23.0800000  0  3G12G13G 9
  21264977.411    21264979.204   -30998049.838 8  32659335.911 6
  20533230.095    20533233.088    -9497723.777 8   5253934.557 6
  20773128.619    20773131.595    23577302.682 8 -56420014.652 5
 86  6 20  2 16 29.0800000  0  3G12G13G 9
  21262736.318    21262741.336   -31009816.049 8  32650167.452 7
  20533802.679    20533804.319    -9494712.147 8   5256281.287 6
  20775829.782    20775831.673    23591495.638 7 -56408955.185 5
 86  6 20  2 16 35.0800000  0  3G12G13G 9
  21260502.655    21260504.924   -31021562.328 8  32641014.511 7
  20534378.915    20534380.381    -9491686.905 7   5258638.615 6
  20778535.544    20778537.957    23605710.723 6 -56397878.512 7
 86  6 20  2 16 41.0800000  0  3G12G13G 9
  21258273.103    21258272.187   -31033288.696 8  32631877.079 6
  20534955.959    20534958.064    -9488648.036 6   5261006.561 7
  20781243.699    20781245.080    23619947.975 7 -56386784.557 6
 86  6 20  2 16 47.0800000  0  3G12G13G 9
  21256043.837    21256044.961   -31044995.229 7  32622755.112 7
  20535538.727    20535537.750    -9485595.685 7   5263385.007 7
  20783957.416    20783960.557    23634207.355 7 -56375673.332 5
 86  6 20  2 16 53.0800000  0  3G12G13G 9
  21253819.236    21253820.924   -31056681.800 9  32613648.680 6
  20536121.343    20536123.136    -9482529.788 6   5265774.028 7
  20786674.586    20786677.583    23648488.821 7 -56364544.937 6
 86  6 20  2 16 59.0800000  0  3G12G13G 9
  21251600.326    21251602.235   -31068348.405 8  32604557.836 7
  20536707.394    20536708.989    -9479450.386 8   5268173.561 6
  20789396.774    20789399.849    23662792.351 7 -56353399.333 8
 86  6 20  2 17  5.0800000  0  3G12G13G 9
  21249383.695    21249383.088   -31079994.936 7  32595482.615 7
  20537297.688    20537296.875    -9476357.469 7   5270583.623 6
  20792122.214    20792124.999    23677117.923 7 -56342236.542 7
 86  6 20  2 17 11.0800000  0  3G12G13G 9
  21247172.201    21247172.775   -31091621.381 8  32586423.037 6
  20537887.862    20537887.858    -9473251.045 8   5273004.214 6
  20794851.779    20794855.193    23691465.597 7 -56331056.533 8
 86  6 20  2 17 17.0800000  0  3G12G13G 9
  21244962.911    21244964.090   -31103227.751 9  32577379.120 6
  20538481.403    20538481.767    -9470131.079 8   5275435.365 7
  20797586.840    20797589.893    23705835.303 8 -56319859.361 6
 86  6 20  2 17 23.0800000  0  3G12G13G 9
  21242757.646    21242761.313   -31114814.110 8  32568350.781 6
  20539076.974    20539077.709    -9466997.610 7   5277877.024 6
  20800325.705    20800328.462    23720227.040 8 -56308645.029 6
 86  6 20  2 17 29.0800000  0  3G12G13G 9
  21240556.170    21240559.925   -31126380.420 8  32559338.063 7
  20539676.043    20539677.980    -9463850.757 8   5280329.111 8
  20803067.291    20803070.371    23734640.835 8 -56297413.515 7
 86  6 20  2 17 35.0800000  0  3G12G13G 9
  21238359.362    21238362.029   -31137926.670 9  32550340.987 7
  20540276.335    20540278.047    -9460690.531 7   5282791.636 7
  20805815.718    20805819.060    23749076.482 8 -56286164.961 6
 86  6 20  2 17 41.0800000  0  3G12G13G 9
  21236166.927    21236169.706   -31149452.747 9  32541359.629 7
  20540880.277    20540883.787    -9457516.908 8   5285264.582 8
  20808567.038    20808569.004    23763534.171 7 -56274899.231 6
 86  6 20  2 17 47.0800000  0  3G12G13G 9
  21233977.268    21233980.317   -31160958.695 8  32532393.948 7
  20541487.529    20541489.573    -9454329.882 7   5287747.991 8
  20811321.403    20811324.348    23778013.751 7 -56263616.441 7
 86  6 20  2 17 53.0800000  0  3G12G13G 9
  21231790.741    21231794.805   -31172444.467 8  32523444.001 8
  20542094.954    20542098.752    -9451129.416 8   5290241.855 7
  20814081.502    20814085.492    23792515.359 8 -56252316.505 7
 86  6 20  2 17 59.0800000  0  3G12G13G 9
  21229608.967    21229613.475   -31183910.095 8  32514509.748 8
  20542706.088    20542711.000    -9447915.593 7   5292746.133 7
  20816846.617    20816849.587    23807038.856 8 -56240999.482 7
 86  6 20  2 18  5.0800000  0  3G12G13G 9
  21227430.420    21227434.495   -31195355.513 9  32505591.243 7
  20543320.834    20543325.382    -9444688.375 8   5295260.851 8
  20819615.504    20819617.296    23821584.225 8 -56229665.447 7
 86  6 20  2 18 11.0800000  0  3G12G13G 9
  21225256.571    21225259.539   -31206780.695 8  32496688.518 7
  20543936.779    20543942.405    -9441447.814 8   5297785.957 8
  20822385.706    20822389.404    23836151.408 7 -56218314.395 7
 86  6 20  2 18 17.0800000  0  3G12G13G 9
  21223085.732    21223090.078   -31218185.661 8  32487801.531 7
  20544558.369    20544560.913    -9438193.903 7   5300321.481 7
  20825162.000    20825164.121    23850740.461 8 -56206946.298 6
 86  6 20  2 18 23.0800000  0  3G12G13G 9
  21220918.278    21220923.838   -31229570.302 8  32478930.396 7
  20545179.726    20545182.226    -9434926.565 8   5302867.459 6
  20827942.230    20827944.855    23865351.447 7 -56195561.123 6
 86  6 20  2 18 29.0800000  0  3G12G13G 9
  21218756.206    21218760.443   -31240934.658 8  32470075.060 7
  20545804.494    20545806.648    -9431645.857 8   5305423.850 7
  20830726.050    20830728.002    23879984.268 8 -56184158.933 6
 86  6 20  2 18 35.0800000  0  3G12G13G 9
  21216599.405    21216600.761   -31252278.735 8  32461235.529 8
  20546431.133    20546434.247    -9428351.894 8   5307990.573 7
  20833514.825    20833515.587    23894638.908 8 -56172739.732 7
 86  6 20  2 18 41.0800000  0  3G12G13G 9
  21214443.776    21214446.945   -31263602.486 7  32452411.838 7
  20547061.134    20547061.406    -9425044.671 9   5310567.654 5
  20836307.188    20836308.349    23909315.238 6 -56161303.635 6
 86  6 20  2 18 47.0800000  0  3G12G13G 9
  21212293.896    21212295.615   -31274905.879 8  32443604.006 7
  20547693.547    20547695.451    -9421724.207 8   5313155.018 7
  20839103.717    20839105.712    23924013.385 8 -56149850.546 7
 86  6 20  2 18 53.0800000  0  3G12G13G 9
  21210145.731    21210148.672   -31286188.837 8  32434812.078 7
  20548327.914    20548329.601    -9418390.416 9   5315752.784 6
  20841905.079    20841906.641    23938733.322 8 -56138380.472 5
 86  6 20  2 18 59.0800000  0  3G12G13G 9
  21208003.244    21208005.482   -31297451.378 9  32426036.090 7
  20548964.352    20548966.519    -9415043.453 8   5318360.808 6
  20844710.834    20844712.340    23953474.981 7 -56126893.461 7
 86  6 20  2 19  5.0800000  0  3G12G13G 9
  21205864.097    21205865.457   -31308693.487 8  32417276.007 7
  20549603.280    20549607.209    -9411683.279 8   5320979.141 7
  20847519.041    20847521.353    23968238.320 7 -56115389.568 6
 86  6 20  2 19 11.0800000  0  3G12G13G 9
  21203727.747    21203729.998   -31319915.156 9  32408531.847 7
  20550244.832    20550247.652    -9408309.814 8   5323607.798 7
  20850333.829    20850335.416    23983023.415 7 -56103868.727 6
 86  6 20  2 19 17.0800000  0  3G12G13G 9
  21201596.739    21201596.739   -31331116.411 9  32399803.602 8
  20550889.439    20550892.887    -9404923.091 7   5326246.809 9
  20853150.848    20853152.363    23997830.198 7 -56092330.971 7
 86  6 20  2 19 23.0800000  0  3G12G13G 9
  21199468.835    21199469.996   -31342297.273 8  32391091.239 7
  20551537.164    20551538.000    -9401523.259 7   5328896.014 7
  20855972.370    20855975.208    24012658.681 7 -56080776.326 6
 86  6 20  2 19 29.0800000  0  3G12G13G 9
  21197345.657    21197346.610   -31353457.612 8  32382394.852 6
  20552185.429    20552188.504    -9398110.307 7   5331555.444 7
  20858798.955    20858801.371    24027508.815 7 -56069204.824 6
 86  6 20  2 19 35.0800000  0  3G12G13G 9
  21195225.859    21195226.699   -31364597.469 8  32373714.464 8
  20552837.276    20552838.750    -9394684.206 7   5334225.144 8
  20861628.628    20861630.907    24042380.607 6 -56057616.396 7
 86  6 20  2 19 41.0800000  0  3G12G13G 9
  21193109.777    21193111.739   -31375716.800 9  32365050.047 9
  20553491.069    20553493.708    -9391244.982 7   5336905.050 8
  20864461.871    20864467.454    24057274.011 7 -56046011.168 6
 86  6 20  2 19 47.0800000  0  3G12G13G 9
  21190997.314    21190998.770   -31386815.577 8  32356401.656 8
  20554148.948    20554151.017    -9387792.634 7   5339595.185 7
  20867301.622    20867303.897    24072188.973 7 -56034389.135 7
 86  6 20  2 19 53.0800000  0  3G12G13G 9
  21188889.570    21188890.940   -31397893.773 9  32347769.286 7
  20554809.070    20554810.583    -9384327.174 7   5342295.549 6
  20870142.917    20870146.690    24087125.519 6 -56022750.267 5
 86  6 20  2 19 59.0800000  0  3G12G13G 9
  21186785.340    21186785.866   -31408951.380 8  32339152.967 7
  20555471.156    20555472.302    -9380848.634 8   5345006.086 6
  20872990.955    20872993.810    24102083.685 7 -56011094.554 5
 86  6 20  2 20  5.0800000  0  3G12G13G 9
  21184683.997    21184685.759   -31419988.430 8  32330552.670 7
  20556134.558    20556137.245    -9377357.067 7   5347726.810 6
  20875841.573    20875844.748    24117063.255 8 -55999422.174 6
 86  6 20  2 20 11.0800000  0  3G12G13G 9
  21182588.731    21182590.174   -31431004.805 8  32321968.477 6
  20556802.283    20556803.770    -9373852.382 7   5350457.730 6
  20878695.289    20878699.978    24132064.419 8 -55987732.943 5
 86  6 20  2 20 17.0800000  0  3G12G13G 9
  21180497.418    21180496.640   -31442000.489 7  32313400.424 6
  20557471.394    20557472.732    -9370334.612 7   5353198.845 7
  20881553.520    20881556.961    24147087.157 8 -55976026.934 7
 86  6 20  2 20 23.0800000  0  3G12G13G 9
  21178407.926    21178408.778   -31452975.532 8  32304848.456 7
  20558142.930    20558145.527    -9366803.836 8   5355950.129 8
  20884415.588    20884418.548    24162131.337 7 -55964304.184 7
 86  6 20  2 20 29.0800000  0  3G12G13G 9
  21176323.747    21176325.257   -31463929.930 8  32296312.545 7
  20558818.027    20558819.688    -9363260.101 8   5358711.478 7
  20887282.888    20887287.808    24177196.973 7 -55952564.763 7
 86  6 20  2 20 35.0800000  0  3G12G13G 9
  21174242.943    21174245.404   -31474863.588 7  32287792.817 6
  20559493.490    20559498.050    -9359703.370 8   5361482.955 5
  20890153.922    20890155.517    24192284.141 7 -55940808.532 6
 86  6 20  2 20 41.0800000  0  3G12G13G 9
  21172166.334    21172167.836   -31485776.506 9  32279289.248 6
  20560174.264    20560175.762    -9356133.683 7   5364264.538 6
  20893029.500    20893032.754    24207392.703 8 -55929035.608 7
 86  6 20  2 20 47.0800000  0  3G12G13G 9
  21170093.402    21170095.947   -31496668.693 8  32270801.837 7
  20560856.325    20560857.569    -9352551.035 8   5367056.220 7
  20895908.627    20895912.349    24222522.615 6 -55917246.068 7
 86  6 20  2 20 53.0800000  0  3G12G13G 9
  21168025.907    21168026.356   -31507539.978 8  32262330.703 6
  20561538.493    20561542.132    -9348955.402 7   5369858.012 6
  20898791.842    20898794.553    24237674.007 7 -55905439.799 7
 86  6 20  2 20 59.0800000  0  3G12G13G 9
  21165959.912    21165961.764   -31518390.466 9  32253875.779 6
  20562226.172    20562229.415    -9345346.845 7   5372669.863 7
  20901681.124    20901682.191    24252846.726 7 -55893616.910 6
 86  6 20  2 21  5.0800000  0  3G12G13G 9
  21163900.798    21163899.874   -31529220.148 9  32245437.067 6
  20562916.467    20562917.630    -9341725.412 8   5375491.757 7
  20904571.669    20904572.827    24268040.886 7 -55881777.321 6
 86  6 20  2 21 11.0800000  0  3G12G13G 9
  21161841.755    21161842.568   -31540029.081 9  32237014.522 7
  20563608.549    20563609.029    -9338091.069 7   5378323.709 7
  20907468.396    20907469.207    24283256.249 8 -55869921.173 7
 86  6 20  2 21 17.0800000  0  3G12G13G 9
  21159789.471    21159791.955   -31550817.096 9  32228608.276 7
  20564301.161    20564302.989    -9334443.727 7   5381165.783 7
  20910367.440    20910369.123    24298493.126 7 -55858048.309 6
 86  6 20  2 21 23.0800000  0  3G12G13G 9
  21157740.611    21157742.298   -31561584.352 9  32220218.217 7
  20564997.035    20565000.044    -9330783.591 7   5384017.844 7
  20913270.808    20913273.698    24313751.257 7 -55846158.854 6
 86  6 20  2 21 29.0800000  0  3G12G13G 9
  21155695.795    21155696.083   -31572330.702 8  32211844.430 8
  20565695.570    20565697.360    -9327110.581 7   5386879.928 7
  20916179.690    20916180.652    24329030.598 8 -55834252.882 6
 86  6 20  2 21 35.0800000  0  3G12G13G 9
  21153654.660    21153657.301   -31583056.118 8  32203486.961 7
  20566395.868    20566400.011    -9323424.740 7   5389752.017 6
  20919090.067    20919093.224    24344331.289 8 -55822330.275 7
 86  6 20  2 21 41.0800000  0  3G12G13G 9
  21151618.147    21151620.274   -31593760.535 8  32195145.859 7
  20567100.246    20567103.865    -9319726.074 7   5392634.100 7
  20922004.879    20922007.735    24359653.255 7 -55810391.082 7
 86  6 20  2 21 47.0800000  0  3G12G13G 9
  21149584.484    21149585.952   -31604444.107 8  32186821.003 7
  20567806.760    20567810.281    -9316014.630 8   5395526.126 7
  20924923.096    20924928.457    24374996.542 7 -55798435.291 7
 86  6 20  2 21 53.0800000  0  3G12G13G 9
  21147555.296    21147556.557   -31615106.707 8  32178512.497 7
  20568515.970    20568520.324    -9312290.439 7   5398428.098 6
  20927846.386    20927850.352    24390360.990 6 -55786462.981 7
 86  6 20  2 21 59.0800000  0  3G12G13G 9
  21145529.930    21145530.817   -31625748.210 8  32170220.416 5
  20569228.831    20569230.981    -9308553.427 8   5401340.058 6
  20930774.330    20930777.450    24405746.697 8 -55774474.130 5
 86  6 20  2 22  5.0800000  0  3G12G13G 9
  21143509.688    21143512.133   -31636368.677 9  32161944.731 6
  20569942.751    20569945.637    -9304803.672 7   5404261.952 6
  20933706.509    20933709.930    24421153.489 8 -55762468.838 6
 86  6 20  2 22 11.0800000  0  3G12G13G 9
  21141492.532    21141493.842   -31646968.107 9  32153685.437 7
  20570658.296    20570660.126    -9301041.093 7   5407193.828 7
  20936642.411    20936645.722    24436581.502 8 -55750447.008 8
